<?xml version="1.0" encoding="UTF-8" standalone="no" ?>
<gpx xmlns="http://www.topografix.com/GPX/1/1" xmlns:xsi="http://www.w3.org/2001/XMLSchema-instance" xsi:schemaLocation="http://www.topografix.com/GPX/1/1 http://www.topografix.com/GPX/1/1/gpx.xsd" version="1.1" creator="VisuGPX - https://www.visugpx.com">
  <metadata>
    <name>[22/12/2019] Speedeure - Rando de Noël</name>
    <desc><![CDATA[Speedeure - Rando de Noël]]></desc>
  </metadata>
  <trk>
    <name><![CDATA[Rando_Noel_2019_Record]]></name>
    <trkseg>
      <trkpt lat="49.02211" lon="1.14084">
        <ele>67.2</ele>
        <time>2019-12-22T07:44:13Z</time>
      </trkpt>
      <trkpt lat="49.02211" lon="1.14085">
        <ele>67.2</ele>
        <time>2019-12-22T07:44:14Z</time>
      </trkpt>
      <trkpt lat="49.02211" lon="1.14086">
        <ele>67.2</ele>
        <time>2019-12-22T07:44:15Z</time>
      </trkpt>
      <trkpt lat="49.02212" lon="1.14086">
        <ele>67.2</ele>
        <time>2019-12-22T07:44:16Z</time>
      </trkpt>
      <trkpt lat="49.02212" lon="1.14088">
        <ele>67.2</ele>
        <time>2019-12-22T07:44:27Z</time>
      </trkpt>
      <trkpt lat="49.02212" lon="1.14088">
        <ele>67.2</ele>
        <time>2019-12-22T07:44:34Z</time>
      </trkpt>
      <trkpt lat="49.02213" lon="1.14088">
        <ele>67.2</ele>
        <time>2019-12-22T07:44:50Z</time>
      </trkpt>
      <trkpt lat="49.02213" lon="1.14088">
        <ele>67.2</ele>
        <time>2019-12-22T07:44:56Z</time>
      </trkpt>
      <trkpt lat="49.02213" lon="1.14088">
        <ele>67.2</ele>
        <time>2019-12-22T07:44:59Z</time>
      </trkpt>
      <trkpt lat="49.02213" lon="1.14089">
        <ele>67.2</ele>
        <time>2019-12-22T07:45:04Z</time>
      </trkpt>
      <trkpt lat="49.02213" lon="1.14089">
        <ele>67.2</ele>
        <time>2019-12-22T07:45:08Z</time>
      </trkpt>
      <trkpt lat="49.02213" lon="1.1409">
        <ele>67.2</ele>
        <time>2019-12-22T07:45:12Z</time>
      </trkpt>
      <trkpt lat="49.02212" lon="1.1409">
        <ele>67.4</ele>
        <time>2019-12-22T07:45:17Z</time>
      </trkpt>
      <trkpt lat="49.02213" lon="1.1409">
        <ele>67.4</ele>
        <time>2019-12-22T07:45:22Z</time>
      </trkpt>
      <trkpt lat="49.02213" lon="1.1409">
        <ele>67.4</ele>
        <time>2019-12-22T07:45:23Z</time>
      </trkpt>
      <trkpt lat="49.02213" lon="1.1409">
        <ele>67.4</ele>
        <time>2019-12-22T07:45:30Z</time>
      </trkpt>
      <trkpt lat="49.02213" lon="1.1409">
        <ele>67.4</ele>
        <time>2019-12-22T07:45:43Z</time>
      </trkpt>
      <trkpt lat="49.02213" lon="1.14091">
        <ele>67.4</ele>
        <time>2019-12-22T07:45:50Z</time>
      </trkpt>
      <trkpt lat="49.02213" lon="1.14091">
        <ele>67.4</ele>
        <time>2019-12-22T07:46:03Z</time>
      </trkpt>
      <trkpt lat="49.02214" lon="1.1409">
        <ele>67.2</ele>
        <time>2019-12-22T07:46:22Z</time>
      </trkpt>
      <trkpt lat="49.02214" lon="1.1409">
        <ele>67.2</ele>
        <time>2019-12-22T07:46:23Z</time>
      </trkpt>
      <trkpt lat="49.02214" lon="1.14091">
        <ele>67.2</ele>
        <time>2019-12-22T07:47:10Z</time>
      </trkpt>
      <trkpt lat="49.02214" lon="1.14091">
        <ele>67.2</ele>
        <time>2019-12-22T07:47:20Z</time>
      </trkpt>
      <trkpt lat="49.02214" lon="1.1409">
        <ele>67.2</ele>
        <time>2019-12-22T07:47:41Z</time>
      </trkpt>
      <trkpt lat="49.02214" lon="1.14089">
        <ele>67.2</ele>
        <time>2019-12-22T07:47:53Z</time>
      </trkpt>
      <trkpt lat="49.02214" lon="1.14089">
        <ele>67.2</ele>
        <time>2019-12-22T07:47:55Z</time>
      </trkpt>
      <trkpt lat="49.02214" lon="1.14089">
        <ele>67.2</ele>
        <time>2019-12-22T07:47:59Z</time>
      </trkpt>
      <trkpt lat="49.02213" lon="1.14089">
        <ele>67.2</ele>
        <time>2019-12-22T07:48:04Z</time>
      </trkpt>
      <trkpt lat="49.02213" lon="1.1409">
        <ele>67.2</ele>
        <time>2019-12-22T07:48:11Z</time>
      </trkpt>
      <trkpt lat="49.02213" lon="1.1409">
        <ele>67.2</ele>
        <time>2019-12-22T07:48:14Z</time>
      </trkpt>
      <trkpt lat="49.02213" lon="1.1409">
        <ele>67.2</ele>
        <time>2019-12-22T07:48:16Z</time>
      </trkpt>
      <trkpt lat="49.02213" lon="1.1409">
        <ele>67.2</ele>
        <time>2019-12-22T07:48:17Z</time>
      </trkpt>
      <trkpt lat="49.02213" lon="1.1409">
        <ele>67.2</ele>
        <time>2019-12-22T07:48:23Z</time>
      </trkpt>
      <trkpt lat="49.02213" lon="1.14089">
        <ele>67.2</ele>
        <time>2019-12-22T07:49:05Z</time>
      </trkpt>
      <trkpt lat="49.02213" lon="1.1409">
        <ele>67.2</ele>
        <time>2019-12-22T07:49:16Z</time>
      </trkpt>
      <trkpt lat="49.02212" lon="1.14089">
        <ele>67.4</ele>
        <time>2019-12-22T07:49:47Z</time>
      </trkpt>
      <trkpt lat="49.02211" lon="1.1409">
        <ele>67.4</ele>
        <time>2019-12-22T07:49:56Z</time>
      </trkpt>
      <trkpt lat="49.02212" lon="1.1409">
        <ele>67.4</ele>
        <time>2019-12-22T07:50:29Z</time>
      </trkpt>
      <trkpt lat="49.02212" lon="1.1409">
        <ele>67.4</ele>
        <time>2019-12-22T07:50:35Z</time>
      </trkpt>
      <trkpt lat="49.02213" lon="1.14095">
        <ele>67.4</ele>
        <time>2019-12-22T07:50:50Z</time>
      </trkpt>
      <trkpt lat="49.02211" lon="1.14098">
        <ele>67.6</ele>
        <time>2019-12-22T07:50:52Z</time>
      </trkpt>
      <trkpt lat="49.02195" lon="1.14167">
        <ele>69.4</ele>
        <time>2019-12-22T07:51:10Z</time>
      </trkpt>
      <trkpt lat="49.02195" lon="1.1418">
        <ele>69.2</ele>
        <time>2019-12-22T07:51:14Z</time>
      </trkpt>
      <trkpt lat="49.02197" lon="1.14194">
        <ele>68.8</ele>
        <time>2019-12-22T07:51:22Z</time>
      </trkpt>
      <trkpt lat="49.02198" lon="1.14202">
        <ele>68.6</ele>
        <time>2019-12-22T07:51:25Z</time>
      </trkpt>
      <trkpt lat="49.02201" lon="1.14198">
        <ele>68.8</ele>
        <time>2019-12-22T07:51:29Z</time>
      </trkpt>
      <trkpt lat="49.02201" lon="1.14195">
        <ele>68.8</ele>
        <time>2019-12-22T07:51:31Z</time>
      </trkpt>
      <trkpt lat="49.022" lon="1.14196">
        <ele>68.8</ele>
        <time>2019-12-22T07:51:33Z</time>
      </trkpt>
      <trkpt lat="49.022" lon="1.14212">
        <ele>68.4</ele>
        <time>2019-12-22T07:51:46Z</time>
      </trkpt>
      <trkpt lat="49.02199" lon="1.14206">
        <ele>68.6</ele>
        <time>2019-12-22T07:52:07Z</time>
      </trkpt>
      <trkpt lat="49.022" lon="1.14215">
        <ele>68.4</ele>
        <time>2019-12-22T07:52:14Z</time>
      </trkpt>
      <trkpt lat="49.02204" lon="1.14302">
        <ele>67.2</ele>
        <time>2019-12-22T07:52:30Z</time>
      </trkpt>
      <trkpt lat="49.02209" lon="1.14384">
        <ele>67.6</ele>
        <time>2019-12-22T07:52:43Z</time>
      </trkpt>
      <trkpt lat="49.02213" lon="1.14471">
        <ele>67.8</ele>
        <time>2019-12-22T07:52:56Z</time>
      </trkpt>
      <trkpt lat="49.02222" lon="1.14558">
        <ele>66.8</ele>
        <time>2019-12-22T07:53:08Z</time>
      </trkpt>
      <trkpt lat="49.02225" lon="1.14644">
        <ele>68</ele>
        <time>2019-12-22T07:53:20Z</time>
      </trkpt>
      <trkpt lat="49.02225" lon="1.14666">
        <ele>68</ele>
        <time>2019-12-22T07:53:23Z</time>
      </trkpt>
      <trkpt lat="49.02225" lon="1.1468">
        <ele>68.2</ele>
        <time>2019-12-22T07:53:25Z</time>
      </trkpt>
      <trkpt lat="49.02225" lon="1.14687">
        <ele>68.4</ele>
        <time>2019-12-22T07:53:26Z</time>
      </trkpt>
      <trkpt lat="49.02225" lon="1.14694">
        <ele>68.8</ele>
        <time>2019-12-22T07:53:27Z</time>
      </trkpt>
      <trkpt lat="49.02225" lon="1.14701">
        <ele>69.2</ele>
        <time>2019-12-22T07:53:28Z</time>
      </trkpt>
      <trkpt lat="49.02224" lon="1.14708">
        <ele>69.6</ele>
        <time>2019-12-22T07:53:29Z</time>
      </trkpt>
      <trkpt lat="49.02224" lon="1.14741">
        <ele>70.2</ele>
        <time>2019-12-22T07:53:34Z</time>
      </trkpt>
      <trkpt lat="49.02223" lon="1.14754">
        <ele>70.2</ele>
        <time>2019-12-22T07:53:36Z</time>
      </trkpt>
      <trkpt lat="49.02226" lon="1.14779">
        <ele>69.4</ele>
        <time>2019-12-22T07:53:40Z</time>
      </trkpt>
      <trkpt lat="49.02226" lon="1.14785">
        <ele>69.2</ele>
        <time>2019-12-22T07:53:41Z</time>
      </trkpt>
      <trkpt lat="49.02226" lon="1.14791">
        <ele>69</ele>
        <time>2019-12-22T07:53:42Z</time>
      </trkpt>
      <trkpt lat="49.02226" lon="1.14796">
        <ele>68.8</ele>
        <time>2019-12-22T07:53:43Z</time>
      </trkpt>
      <trkpt lat="49.02226" lon="1.14802">
        <ele>68.6</ele>
        <time>2019-12-22T07:53:44Z</time>
      </trkpt>
      <trkpt lat="49.02229" lon="1.1482">
        <ele>68.4</ele>
        <time>2019-12-22T07:53:56Z</time>
      </trkpt>
      <trkpt lat="49.02229" lon="1.1482">
        <ele>68.4</ele>
        <time>2019-12-22T07:54:00Z</time>
      </trkpt>
      <trkpt lat="49.02229" lon="1.1482">
        <ele>68.4</ele>
        <time>2019-12-22T07:54:01Z</time>
      </trkpt>
      <trkpt lat="49.02229" lon="1.1482">
        <ele>68.4</ele>
        <time>2019-12-22T07:54:03Z</time>
      </trkpt>
      <trkpt lat="49.02229" lon="1.1482">
        <ele>68.4</ele>
        <time>2019-12-22T07:54:08Z</time>
      </trkpt>
      <trkpt lat="49.0223" lon="1.14822">
        <ele>68.6</ele>
        <time>2019-12-22T07:54:16Z</time>
      </trkpt>
      <trkpt lat="49.02233" lon="1.14874">
        <ele>70.4</ele>
        <time>2019-12-22T07:54:28Z</time>
      </trkpt>
      <trkpt lat="49.02235" lon="1.14878">
        <ele>70.4</ele>
        <time>2019-12-22T07:54:29Z</time>
      </trkpt>
      <trkpt lat="49.02241" lon="1.14881">
        <ele>70.4</ele>
        <time>2019-12-22T07:54:31Z</time>
      </trkpt>
      <trkpt lat="49.02275" lon="1.14864">
        <ele>69</ele>
        <time>2019-12-22T07:54:40Z</time>
      </trkpt>
      <trkpt lat="49.02288" lon="1.14858">
        <ele>68.4</ele>
        <time>2019-12-22T07:54:43Z</time>
      </trkpt>
      <trkpt lat="49.02309" lon="1.14849">
        <ele>67.6</ele>
        <time>2019-12-22T07:54:48Z</time>
      </trkpt>
      <trkpt lat="49.02317" lon="1.14855">
        <ele>67.6</ele>
        <time>2019-12-22T07:54:51Z</time>
      </trkpt>
      <trkpt lat="49.02319" lon="1.14858">
        <ele>67.6</ele>
        <time>2019-12-22T07:54:52Z</time>
      </trkpt>
      <trkpt lat="49.0232" lon="1.14863">
        <ele>67.8</ele>
        <time>2019-12-22T07:54:53Z</time>
      </trkpt>
      <trkpt lat="49.02321" lon="1.14868">
        <ele>68</ele>
        <time>2019-12-22T07:54:54Z</time>
      </trkpt>
      <trkpt lat="49.02326" lon="1.14898">
        <ele>68.8</ele>
        <time>2019-12-22T07:54:59Z</time>
      </trkpt>
      <trkpt lat="49.0234" lon="1.14931">
        <ele>68.8</ele>
        <time>2019-12-22T07:55:06Z</time>
      </trkpt>
      <trkpt lat="49.02343" lon="1.1495">
        <ele>69</ele>
        <time>2019-12-22T07:55:10Z</time>
      </trkpt>
      <trkpt lat="49.02344" lon="1.14959">
        <ele>69.2</ele>
        <time>2019-12-22T07:55:12Z</time>
      </trkpt>
      <trkpt lat="49.02346" lon="1.14963">
        <ele>69.2</ele>
        <time>2019-12-22T07:55:13Z</time>
      </trkpt>
      <trkpt lat="49.02349" lon="1.14966">
        <ele>69</ele>
        <time>2019-12-22T07:55:14Z</time>
      </trkpt>
      <trkpt lat="49.02352" lon="1.14967">
        <ele>69</ele>
        <time>2019-12-22T07:55:15Z</time>
      </trkpt>
      <trkpt lat="49.0236" lon="1.14968">
        <ele>68.8</ele>
        <time>2019-12-22T07:55:17Z</time>
      </trkpt>
      <trkpt lat="49.02381" lon="1.14971">
        <ele>68.6</ele>
        <time>2019-12-22T07:55:22Z</time>
      </trkpt>
      <trkpt lat="49.02385" lon="1.1497">
        <ele>68.6</ele>
        <time>2019-12-22T07:55:23Z</time>
      </trkpt>
      <trkpt lat="49.02389" lon="1.14968">
        <ele>68.6</ele>
        <time>2019-12-22T07:55:24Z</time>
      </trkpt>
      <trkpt lat="49.024" lon="1.14961">
        <ele>68.4</ele>
        <time>2019-12-22T07:55:27Z</time>
      </trkpt>
      <trkpt lat="49.02407" lon="1.14956">
        <ele>68.2</ele>
        <time>2019-12-22T07:55:29Z</time>
      </trkpt>
      <trkpt lat="49.02411" lon="1.14955">
        <ele>68.2</ele>
        <time>2019-12-22T07:55:30Z</time>
      </trkpt>
      <trkpt lat="49.02414" lon="1.14954">
        <ele>68</ele>
        <time>2019-12-22T07:55:31Z</time>
      </trkpt>
      <trkpt lat="49.02416" lon="1.14953">
        <ele>68</ele>
        <time>2019-12-22T07:55:32Z</time>
      </trkpt>
      <trkpt lat="49.02424" lon="1.1495">
        <ele>67.8</ele>
        <time>2019-12-22T07:55:35Z</time>
      </trkpt>
      <trkpt lat="49.02437" lon="1.14945">
        <ele>67.4</ele>
        <time>2019-12-22T07:55:39Z</time>
      </trkpt>
      <trkpt lat="49.02446" lon="1.14942">
        <ele>67.2</ele>
        <time>2019-12-22T07:55:41Z</time>
      </trkpt>
      <trkpt lat="49.0245" lon="1.14939">
        <ele>67.2</ele>
        <time>2019-12-22T07:55:42Z</time>
      </trkpt>
      <trkpt lat="49.02493" lon="1.14913">
        <ele>67.4</ele>
        <time>2019-12-22T07:55:53Z</time>
      </trkpt>
      <trkpt lat="49.02496" lon="1.14911">
        <ele>67.4</ele>
        <time>2019-12-22T07:55:54Z</time>
      </trkpt>
      <trkpt lat="49.02508" lon="1.14902">
        <ele>67.6</ele>
        <time>2019-12-22T07:55:58Z</time>
      </trkpt>
      <trkpt lat="49.02513" lon="1.14899">
        <ele>67.8</ele>
        <time>2019-12-22T07:56:00Z</time>
      </trkpt>
      <trkpt lat="49.02517" lon="1.14897">
        <ele>67.8</ele>
        <time>2019-12-22T07:56:02Z</time>
      </trkpt>
      <trkpt lat="49.0252" lon="1.14895">
        <ele>67.8</ele>
        <time>2019-12-22T07:56:05Z</time>
      </trkpt>
      <trkpt lat="49.0252" lon="1.14895">
        <ele>67.8</ele>
        <time>2019-12-22T07:56:06Z</time>
      </trkpt>
      <trkpt lat="49.02522" lon="1.14893">
        <ele>68</ele>
        <time>2019-12-22T07:56:07Z</time>
      </trkpt>
      <trkpt lat="49.02526" lon="1.14891">
        <ele>68</ele>
        <time>2019-12-22T07:56:09Z</time>
      </trkpt>
      <trkpt lat="49.02557" lon="1.14868">
        <ele>68</ele>
        <time>2019-12-22T07:56:20Z</time>
      </trkpt>
      <trkpt lat="49.02611" lon="1.14856">
        <ele>67</ele>
        <time>2019-12-22T07:56:37Z</time>
      </trkpt>
      <trkpt lat="49.02643" lon="1.14873">
        <ele>67</ele>
        <time>2019-12-22T07:56:46Z</time>
      </trkpt>
      <trkpt lat="49.0265" lon="1.14883">
        <ele>67</ele>
        <time>2019-12-22T07:56:48Z</time>
      </trkpt>
      <trkpt lat="49.02679" lon="1.14957">
        <ele>67</ele>
        <time>2019-12-22T07:57:00Z</time>
      </trkpt>
      <trkpt lat="49.02695" lon="1.14995">
        <ele>67.2</ele>
        <time>2019-12-22T07:57:07Z</time>
      </trkpt>
      <trkpt lat="49.02732" lon="1.15062">
        <ele>66.6</ele>
        <time>2019-12-22T07:57:23Z</time>
      </trkpt>
      <trkpt lat="49.02763" lon="1.15124">
        <ele>65.4</ele>
        <time>2019-12-22T07:57:37Z</time>
      </trkpt>
      <trkpt lat="49.02792" lon="1.15116">
        <ele>65</ele>
        <time>2019-12-22T07:57:47Z</time>
      </trkpt>
      <trkpt lat="49.02795" lon="1.1513">
        <ele>65</ele>
        <time>2019-12-22T07:57:51Z</time>
      </trkpt>
      <trkpt lat="49.0279" lon="1.15139">
        <ele>65</ele>
        <time>2019-12-22T07:57:55Z</time>
      </trkpt>
      <trkpt lat="49.02795" lon="1.15151">
        <ele>65</ele>
        <time>2019-12-22T07:58:02Z</time>
      </trkpt>
      <trkpt lat="49.02801" lon="1.15157">
        <ele>65</ele>
        <time>2019-12-22T07:58:06Z</time>
      </trkpt>
      <trkpt lat="49.02801" lon="1.15169">
        <ele>65</ele>
        <time>2019-12-22T07:58:10Z</time>
      </trkpt>
      <trkpt lat="49.0279" lon="1.15178">
        <ele>65.2</ele>
        <time>2019-12-22T07:58:18Z</time>
      </trkpt>
      <trkpt lat="49.02776" lon="1.15182">
        <ele>65.4</ele>
        <time>2019-12-22T07:58:25Z</time>
      </trkpt>
      <trkpt lat="49.02771" lon="1.15166">
        <ele>65.4</ele>
        <time>2019-12-22T07:59:07Z</time>
      </trkpt>
      <trkpt lat="49.02771" lon="1.15166">
        <ele>65.4</ele>
        <time>2019-12-22T07:59:10Z</time>
      </trkpt>
      <trkpt lat="49.02771" lon="1.15166">
        <ele>65.4</ele>
        <time>2019-12-22T07:59:12Z</time>
      </trkpt>
      <trkpt lat="49.02771" lon="1.15166">
        <ele>65.4</ele>
        <time>2019-12-22T07:59:16Z</time>
      </trkpt>
      <trkpt lat="49.02771" lon="1.15166">
        <ele>65.4</ele>
        <time>2019-12-22T07:59:20Z</time>
      </trkpt>
      <trkpt lat="49.02771" lon="1.15166">
        <ele>65.4</ele>
        <time>2019-12-22T07:59:22Z</time>
      </trkpt>
      <trkpt lat="49.02771" lon="1.15166">
        <ele>65.4</ele>
        <time>2019-12-22T07:59:26Z</time>
      </trkpt>
      <trkpt lat="49.02771" lon="1.15166">
        <ele>65.4</ele>
        <time>2019-12-22T07:59:33Z</time>
      </trkpt>
      <trkpt lat="49.02772" lon="1.15168">
        <ele>65.4</ele>
        <time>2019-12-22T07:59:36Z</time>
      </trkpt>
      <trkpt lat="49.02774" lon="1.15185">
        <ele>65.6</ele>
        <time>2019-12-22T07:59:42Z</time>
      </trkpt>
      <trkpt lat="49.0277" lon="1.15191">
        <ele>65.8</ele>
        <time>2019-12-22T07:59:44Z</time>
      </trkpt>
      <trkpt lat="49.02764" lon="1.15191">
        <ele>66</ele>
        <time>2019-12-22T07:59:46Z</time>
      </trkpt>
      <trkpt lat="49.02752" lon="1.15157">
        <ele>66</ele>
        <time>2019-12-22T07:59:55Z</time>
      </trkpt>
      <trkpt lat="49.02726" lon="1.151">
        <ele>66.8</ele>
        <time>2019-12-22T08:00:11Z</time>
      </trkpt>
      <trkpt lat="49.02706" lon="1.15111">
        <ele>67.6</ele>
        <time>2019-12-22T08:00:20Z</time>
      </trkpt>
      <trkpt lat="49.02653" lon="1.15132">
        <ele>69.2</ele>
        <time>2019-12-22T08:00:42Z</time>
      </trkpt>
      <trkpt lat="49.02627" lon="1.15134">
        <ele>70</ele>
        <time>2019-12-22T08:00:52Z</time>
      </trkpt>
      <trkpt lat="49.02624" lon="1.15137">
        <ele>70.2</ele>
        <time>2019-12-22T08:00:55Z</time>
      </trkpt>
      <trkpt lat="49.02623" lon="1.15137">
        <ele>70.4</ele>
        <time>2019-12-22T08:00:56Z</time>
      </trkpt>
      <trkpt lat="49.02606" lon="1.15152">
        <ele>70.6</ele>
        <time>2019-12-22T08:01:03Z</time>
      </trkpt>
      <trkpt lat="49.02603" lon="1.15167">
        <ele>70.2</ele>
        <time>2019-12-22T08:01:06Z</time>
      </trkpt>
      <trkpt lat="49.02605" lon="1.15212">
        <ele>68.6</ele>
        <time>2019-12-22T08:01:14Z</time>
      </trkpt>
      <trkpt lat="49.02606" lon="1.15216">
        <ele>68.4</ele>
        <time>2019-12-22T08:01:16Z</time>
      </trkpt>
      <trkpt lat="49.02609" lon="1.15216">
        <ele>68.4</ele>
        <time>2019-12-22T08:01:19Z</time>
      </trkpt>
      <trkpt lat="49.02614" lon="1.15213">
        <ele>68.4</ele>
        <time>2019-12-22T08:01:21Z</time>
      </trkpt>
      <trkpt lat="49.02619" lon="1.15214">
        <ele>68.4</ele>
        <time>2019-12-22T08:01:23Z</time>
      </trkpt>
      <trkpt lat="49.02622" lon="1.15224">
        <ele>68</ele>
        <time>2019-12-22T08:01:25Z</time>
      </trkpt>
      <trkpt lat="49.02619" lon="1.15233">
        <ele>67.8</ele>
        <time>2019-12-22T08:01:27Z</time>
      </trkpt>
      <trkpt lat="49.0259" lon="1.15233">
        <ele>68.4</ele>
        <time>2019-12-22T08:01:46Z</time>
      </trkpt>
      <trkpt lat="49.02594" lon="1.15228">
        <ele>68.4</ele>
        <time>2019-12-22T08:01:50Z</time>
      </trkpt>
      <trkpt lat="49.02626" lon="1.15201">
        <ele>68.8</ele>
        <time>2019-12-22T08:02:04Z</time>
      </trkpt>
      <trkpt lat="49.02609" lon="1.15139">
        <ele>70.8</ele>
        <time>2019-12-22T08:02:17Z</time>
      </trkpt>
      <trkpt lat="49.02607" lon="1.15139">
        <ele>71</ele>
        <time>2019-12-22T08:02:18Z</time>
      </trkpt>
      <trkpt lat="49.026" lon="1.15148">
        <ele>70.8</ele>
        <time>2019-12-22T08:02:21Z</time>
      </trkpt>
      <trkpt lat="49.02598" lon="1.15153">
        <ele>70.6</ele>
        <time>2019-12-22T08:02:22Z</time>
      </trkpt>
      <trkpt lat="49.02597" lon="1.15158">
        <ele>70.4</ele>
        <time>2019-12-22T08:02:23Z</time>
      </trkpt>
      <trkpt lat="49.02596" lon="1.15163">
        <ele>70.2</ele>
        <time>2019-12-22T08:02:24Z</time>
      </trkpt>
      <trkpt lat="49.02596" lon="1.15169">
        <ele>70</ele>
        <time>2019-12-22T08:02:25Z</time>
      </trkpt>
      <trkpt lat="49.02597" lon="1.15177">
        <ele>69.6</ele>
        <time>2019-12-22T08:02:26Z</time>
      </trkpt>
      <trkpt lat="49.02602" lon="1.15203">
        <ele>68.8</ele>
        <time>2019-12-22T08:02:30Z</time>
      </trkpt>
      <trkpt lat="49.02604" lon="1.15214">
        <ele>68.4</ele>
        <time>2019-12-22T08:02:33Z</time>
      </trkpt>
      <trkpt lat="49.02607" lon="1.15214">
        <ele>68.4</ele>
        <time>2019-12-22T08:02:35Z</time>
      </trkpt>
      <trkpt lat="49.02616" lon="1.15213">
        <ele>68.4</ele>
        <time>2019-12-22T08:02:38Z</time>
      </trkpt>
      <trkpt lat="49.02616" lon="1.15222">
        <ele>68.2</ele>
        <time>2019-12-22T08:02:40Z</time>
      </trkpt>
      <trkpt lat="49.02615" lon="1.15226">
        <ele>68</ele>
        <time>2019-12-22T08:02:41Z</time>
      </trkpt>
      <trkpt lat="49.02608" lon="1.15232">
        <ele>68</ele>
        <time>2019-12-22T08:02:43Z</time>
      </trkpt>
      <trkpt lat="49.02605" lon="1.15234">
        <ele>68</ele>
        <time>2019-12-22T08:02:44Z</time>
      </trkpt>
      <trkpt lat="49.02593" lon="1.15237">
        <ele>68.2</ele>
        <time>2019-12-22T08:02:47Z</time>
      </trkpt>
      <trkpt lat="49.02571" lon="1.15244">
        <ele>68.8</ele>
        <time>2019-12-22T08:02:52Z</time>
      </trkpt>
      <trkpt lat="49.02529" lon="1.15274">
        <ele>68.8</ele>
        <time>2019-12-22T08:03:03Z</time>
      </trkpt>
      <trkpt lat="49.02525" lon="1.15276">
        <ele>68.8</ele>
        <time>2019-12-22T08:03:04Z</time>
      </trkpt>
      <trkpt lat="49.02516" lon="1.1528">
        <ele>69</ele>
        <time>2019-12-22T08:03:08Z</time>
      </trkpt>
      <trkpt lat="49.02511" lon="1.15282">
        <ele>69</ele>
        <time>2019-12-22T08:03:10Z</time>
      </trkpt>
      <trkpt lat="49.0251" lon="1.15282">
        <ele>69</ele>
        <time>2019-12-22T08:03:12Z</time>
      </trkpt>
      <trkpt lat="49.0251" lon="1.15282">
        <ele>69</ele>
        <time>2019-12-22T08:03:14Z</time>
      </trkpt>
      <trkpt lat="49.02506" lon="1.15283">
        <ele>69.2</ele>
        <time>2019-12-22T08:03:23Z</time>
      </trkpt>
      <trkpt lat="49.02478" lon="1.15294">
        <ele>70</ele>
        <time>2019-12-22T08:03:31Z</time>
      </trkpt>
      <trkpt lat="49.02452" lon="1.15309">
        <ele>70.6</ele>
        <time>2019-12-22T08:03:38Z</time>
      </trkpt>
      <trkpt lat="49.02448" lon="1.15312">
        <ele>70.8</ele>
        <time>2019-12-22T08:03:39Z</time>
      </trkpt>
      <trkpt lat="49.02441" lon="1.15316">
        <ele>71.2</ele>
        <time>2019-12-22T08:03:41Z</time>
      </trkpt>
      <trkpt lat="49.02437" lon="1.15319">
        <ele>71.2</ele>
        <time>2019-12-22T08:03:42Z</time>
      </trkpt>
      <trkpt lat="49.02425" lon="1.15325">
        <ele>71.8</ele>
        <time>2019-12-22T08:03:45Z</time>
      </trkpt>
      <trkpt lat="49.02395" lon="1.15349">
        <ele>73.2</ele>
        <time>2019-12-22T08:03:53Z</time>
      </trkpt>
      <trkpt lat="49.0239" lon="1.15349">
        <ele>73.4</ele>
        <time>2019-12-22T08:03:55Z</time>
      </trkpt>
      <trkpt lat="49.02381" lon="1.15334">
        <ele>73.4</ele>
        <time>2019-12-22T08:04:00Z</time>
      </trkpt>
      <trkpt lat="49.02377" lon="1.15326">
        <ele>73.6</ele>
        <time>2019-12-22T08:04:02Z</time>
      </trkpt>
      <trkpt lat="49.02375" lon="1.15322">
        <ele>73.6</ele>
        <time>2019-12-22T08:04:03Z</time>
      </trkpt>
      <trkpt lat="49.02373" lon="1.15316">
        <ele>73.6</ele>
        <time>2019-12-22T08:04:04Z</time>
      </trkpt>
      <trkpt lat="49.02366" lon="1.15294">
        <ele>73.4</ele>
        <time>2019-12-22T08:04:08Z</time>
      </trkpt>
      <trkpt lat="49.02364" lon="1.15288">
        <ele>73.2</ele>
        <time>2019-12-22T08:04:09Z</time>
      </trkpt>
      <trkpt lat="49.02362" lon="1.15282">
        <ele>73.2</ele>
        <time>2019-12-22T08:04:10Z</time>
      </trkpt>
      <trkpt lat="49.0236" lon="1.15277">
        <ele>73.2</ele>
        <time>2019-12-22T08:04:11Z</time>
      </trkpt>
      <trkpt lat="49.02357" lon="1.15271">
        <ele>73</ele>
        <time>2019-12-22T08:04:12Z</time>
      </trkpt>
      <trkpt lat="49.02353" lon="1.15258">
        <ele>72.8</ele>
        <time>2019-12-22T08:04:14Z</time>
      </trkpt>
      <trkpt lat="49.02348" lon="1.15246">
        <ele>72.6</ele>
        <time>2019-12-22T08:04:16Z</time>
      </trkpt>
      <trkpt lat="49.02343" lon="1.15228">
        <ele>72.2</ele>
        <time>2019-12-22T08:04:19Z</time>
      </trkpt>
      <trkpt lat="49.02341" lon="1.15223">
        <ele>72</ele>
        <time>2019-12-22T08:04:20Z</time>
      </trkpt>
      <trkpt lat="49.0234" lon="1.1522">
        <ele>72</ele>
        <time>2019-12-22T08:04:21Z</time>
      </trkpt>
      <trkpt lat="49.02324" lon="1.15219">
        <ele>72.2</ele>
        <time>2019-12-22T08:04:28Z</time>
      </trkpt>
      <trkpt lat="49.02319" lon="1.15222">
        <ele>72.2</ele>
        <time>2019-12-22T08:04:30Z</time>
      </trkpt>
      <trkpt lat="49.02303" lon="1.15233">
        <ele>72.8</ele>
        <time>2019-12-22T08:04:35Z</time>
      </trkpt>
      <trkpt lat="49.02279" lon="1.1525">
        <ele>73.4</ele>
        <time>2019-12-22T08:04:41Z</time>
      </trkpt>
      <trkpt lat="49.02275" lon="1.15252">
        <ele>73.6</ele>
        <time>2019-12-22T08:04:42Z</time>
      </trkpt>
      <trkpt lat="49.02268" lon="1.15257">
        <ele>74</ele>
        <time>2019-12-22T08:04:44Z</time>
      </trkpt>
      <trkpt lat="49.02246" lon="1.15265">
        <ele>75</ele>
        <time>2019-12-22T08:04:51Z</time>
      </trkpt>
      <trkpt lat="49.022" lon="1.15214">
        <ele>75.8</ele>
        <time>2019-12-22T08:05:08Z</time>
      </trkpt>
      <trkpt lat="49.02199" lon="1.15211">
        <ele>75.8</ele>
        <time>2019-12-22T08:05:09Z</time>
      </trkpt>
      <trkpt lat="49.02205" lon="1.15167">
        <ele>75.6</ele>
        <time>2019-12-22T08:05:18Z</time>
      </trkpt>
      <trkpt lat="49.02214" lon="1.15133">
        <ele>74.2</ele>
        <time>2019-12-22T08:05:26Z</time>
      </trkpt>
      <trkpt lat="49.02209" lon="1.15129">
        <ele>74.4</ele>
        <time>2019-12-22T08:05:30Z</time>
      </trkpt>
      <trkpt lat="49.02195" lon="1.15131">
        <ele>75.6</ele>
        <time>2019-12-22T08:05:36Z</time>
      </trkpt>
      <trkpt lat="49.02174" lon="1.1514">
        <ele>76.4</ele>
        <time>2019-12-22T08:05:43Z</time>
      </trkpt>
      <trkpt lat="49.02155" lon="1.15147">
        <ele>76.8</ele>
        <time>2019-12-22T08:05:49Z</time>
      </trkpt>
      <trkpt lat="49.02138" lon="1.15154">
        <ele>77.2</ele>
        <time>2019-12-22T08:05:55Z</time>
      </trkpt>
      <trkpt lat="49.0213" lon="1.15158">
        <ele>77.4</ele>
        <time>2019-12-22T08:05:58Z</time>
      </trkpt>
      <trkpt lat="49.0211" lon="1.15166">
        <ele>78.8</ele>
        <time>2019-12-22T08:06:04Z</time>
      </trkpt>
      <trkpt lat="49.02107" lon="1.15167">
        <ele>79</ele>
        <time>2019-12-22T08:06:05Z</time>
      </trkpt>
      <trkpt lat="49.02101" lon="1.1517">
        <ele>80</ele>
        <time>2019-12-22T08:06:07Z</time>
      </trkpt>
      <trkpt lat="49.02095" lon="1.15173">
        <ele>80.8</ele>
        <time>2019-12-22T08:06:09Z</time>
      </trkpt>
      <trkpt lat="49.0204" lon="1.15182">
        <ele>87.2</ele>
        <time>2019-12-22T08:06:26Z</time>
      </trkpt>
      <trkpt lat="49.0203" lon="1.15181">
        <ele>88.2</ele>
        <time>2019-12-22T08:06:31Z</time>
      </trkpt>
      <trkpt lat="49.02027" lon="1.15171">
        <ele>88.6</ele>
        <time>2019-12-22T08:06:35Z</time>
      </trkpt>
      <trkpt lat="49.0202" lon="1.1517">
        <ele>88.8</ele>
        <time>2019-12-22T08:06:38Z</time>
      </trkpt>
      <trkpt lat="49.02018" lon="1.15169">
        <ele>89</ele>
        <time>2019-12-22T08:06:39Z</time>
      </trkpt>
      <trkpt lat="49.02" lon="1.15165">
        <ele>89.6</ele>
        <time>2019-12-22T08:06:47Z</time>
      </trkpt>
      <trkpt lat="49.01996" lon="1.15164">
        <ele>89.8</ele>
        <time>2019-12-22T08:06:49Z</time>
      </trkpt>
      <trkpt lat="49.01993" lon="1.15163">
        <ele>90</ele>
        <time>2019-12-22T08:06:50Z</time>
      </trkpt>
      <trkpt lat="49.01988" lon="1.15161">
        <ele>90.2</ele>
        <time>2019-12-22T08:06:52Z</time>
      </trkpt>
      <trkpt lat="49.01986" lon="1.1516">
        <ele>90.2</ele>
        <time>2019-12-22T08:06:53Z</time>
      </trkpt>
      <trkpt lat="49.0198" lon="1.15155">
        <ele>90.4</ele>
        <time>2019-12-22T08:06:56Z</time>
      </trkpt>
      <trkpt lat="49.01977" lon="1.15152">
        <ele>90.6</ele>
        <time>2019-12-22T08:06:58Z</time>
      </trkpt>
      <trkpt lat="49.01975" lon="1.1515">
        <ele>90.8</ele>
        <time>2019-12-22T08:06:59Z</time>
      </trkpt>
      <trkpt lat="49.01973" lon="1.15148">
        <ele>90.8</ele>
        <time>2019-12-22T08:07:00Z</time>
      </trkpt>
      <trkpt lat="49.01968" lon="1.1514">
        <ele>91</ele>
        <time>2019-12-22T08:07:03Z</time>
      </trkpt>
      <trkpt lat="49.01945" lon="1.15098">
        <ele>91.8</ele>
        <time>2019-12-22T08:07:16Z</time>
      </trkpt>
      <trkpt lat="49.01944" lon="1.15095">
        <ele>92</ele>
        <time>2019-12-22T08:07:17Z</time>
      </trkpt>
      <trkpt lat="49.0194" lon="1.15088">
        <ele>92</ele>
        <time>2019-12-22T08:07:19Z</time>
      </trkpt>
      <trkpt lat="49.01935" lon="1.15046">
        <ele>92</ele>
        <time>2019-12-22T08:07:30Z</time>
      </trkpt>
      <trkpt lat="49.01939" lon="1.15042">
        <ele>91.8</ele>
        <time>2019-12-22T08:07:32Z</time>
      </trkpt>
      <trkpt lat="49.01963" lon="1.15012">
        <ele>90.4</ele>
        <time>2019-12-22T08:07:41Z</time>
      </trkpt>
      <trkpt lat="49.01959" lon="1.15005">
        <ele>90.6</ele>
        <time>2019-12-22T08:07:44Z</time>
      </trkpt>
      <trkpt lat="49.01939" lon="1.15022">
        <ele>91.6</ele>
        <time>2019-12-22T08:07:52Z</time>
      </trkpt>
      <trkpt lat="49.01937" lon="1.15023">
        <ele>91.6</ele>
        <time>2019-12-22T08:07:53Z</time>
      </trkpt>
      <trkpt lat="49.01933" lon="1.15027">
        <ele>91.6</ele>
        <time>2019-12-22T08:07:55Z</time>
      </trkpt>
      <trkpt lat="49.01929" lon="1.15034">
        <ele>91.8</ele>
        <time>2019-12-22T08:07:58Z</time>
      </trkpt>
      <trkpt lat="49.01925" lon="1.15036">
        <ele>92</ele>
        <time>2019-12-22T08:08:01Z</time>
      </trkpt>
      <trkpt lat="49.01923" lon="1.15032">
        <ele>91.8</ele>
        <time>2019-12-22T08:08:03Z</time>
      </trkpt>
      <trkpt lat="49.01922" lon="1.15024">
        <ele>91.8</ele>
        <time>2019-12-22T08:08:07Z</time>
      </trkpt>
      <trkpt lat="49.01917" lon="1.15005">
        <ele>91.6</ele>
        <time>2019-12-22T08:08:15Z</time>
      </trkpt>
      <trkpt lat="49.0191" lon="1.15008">
        <ele>91.8</ele>
        <time>2019-12-22T08:08:24Z</time>
      </trkpt>
      <trkpt lat="49.0191" lon="1.15008">
        <ele>91.8</ele>
        <time>2019-12-22T08:08:27Z</time>
      </trkpt>
      <trkpt lat="49.0191" lon="1.15008">
        <ele>91.8</ele>
        <time>2019-12-22T08:08:32Z</time>
      </trkpt>
      <trkpt lat="49.0191" lon="1.15008">
        <ele>91.8</ele>
        <time>2019-12-22T08:08:36Z</time>
      </trkpt>
      <trkpt lat="49.01911" lon="1.15008">
        <ele>91.8</ele>
        <time>2019-12-22T08:08:43Z</time>
      </trkpt>
      <trkpt lat="49.0191" lon="1.15009">
        <ele>91.8</ele>
        <time>2019-12-22T08:08:48Z</time>
      </trkpt>
      <trkpt lat="49.01909" lon="1.15009">
        <ele>91.8</ele>
        <time>2019-12-22T08:08:49Z</time>
      </trkpt>
      <trkpt lat="49.01897" lon="1.15008">
        <ele>91.8</ele>
        <time>2019-12-22T08:08:54Z</time>
      </trkpt>
      <trkpt lat="49.01886" lon="1.15007">
        <ele>92</ele>
        <time>2019-12-22T08:08:57Z</time>
      </trkpt>
      <trkpt lat="49.01877" lon="1.1501">
        <ele>92.2</ele>
        <time>2019-12-22T08:09:00Z</time>
      </trkpt>
      <trkpt lat="49.01872" lon="1.15015">
        <ele>92.2</ele>
        <time>2019-12-22T08:09:02Z</time>
      </trkpt>
      <trkpt lat="49.0187" lon="1.15031">
        <ele>92.6</ele>
        <time>2019-12-22T08:09:05Z</time>
      </trkpt>
      <trkpt lat="49.01874" lon="1.15053">
        <ele>92.8</ele>
        <time>2019-12-22T08:09:09Z</time>
      </trkpt>
      <trkpt lat="49.01876" lon="1.15066">
        <ele>92.8</ele>
        <time>2019-12-22T08:09:13Z</time>
      </trkpt>
      <trkpt lat="49.0188" lon="1.15081">
        <ele>92.8</ele>
        <time>2019-12-22T08:09:18Z</time>
      </trkpt>
      <trkpt lat="49.01882" lon="1.15097">
        <ele>93</ele>
        <time>2019-12-22T08:09:23Z</time>
      </trkpt>
      <trkpt lat="49.01883" lon="1.15133">
        <ele>93.8</ele>
        <time>2019-12-22T08:09:32Z</time>
      </trkpt>
      <trkpt lat="49.01883" lon="1.15148">
        <ele>94</ele>
        <time>2019-12-22T08:09:35Z</time>
      </trkpt>
      <trkpt lat="49.01883" lon="1.15154">
        <ele>93.8</ele>
        <time>2019-12-22T08:09:36Z</time>
      </trkpt>
      <trkpt lat="49.01884" lon="1.1516">
        <ele>93.8</ele>
        <time>2019-12-22T08:09:37Z</time>
      </trkpt>
      <trkpt lat="49.01885" lon="1.15171">
        <ele>93.4</ele>
        <time>2019-12-22T08:09:39Z</time>
      </trkpt>
      <trkpt lat="49.01886" lon="1.15176">
        <ele>93.6</ele>
        <time>2019-12-22T08:09:40Z</time>
      </trkpt>
      <trkpt lat="49.01889" lon="1.15183">
        <ele>93.6</ele>
        <time>2019-12-22T08:09:42Z</time>
      </trkpt>
      <trkpt lat="49.01892" lon="1.15185">
        <ele>93.2</ele>
        <time>2019-12-22T08:09:44Z</time>
      </trkpt>
      <trkpt lat="49.01895" lon="1.15181">
        <ele>92.8</ele>
        <time>2019-12-22T08:09:46Z</time>
      </trkpt>
      <trkpt lat="49.01894" lon="1.15178">
        <ele>93</ele>
        <time>2019-12-22T08:09:48Z</time>
      </trkpt>
      <trkpt lat="49.01896" lon="1.15175">
        <ele>93</ele>
        <time>2019-12-22T08:09:55Z</time>
      </trkpt>
      <trkpt lat="49.01902" lon="1.15176">
        <ele>92.6</ele>
        <time>2019-12-22T08:10:01Z</time>
      </trkpt>
      <trkpt lat="49.01901" lon="1.15176">
        <ele>92.6</ele>
        <time>2019-12-22T08:10:02Z</time>
      </trkpt>
      <trkpt lat="49.01899" lon="1.15175">
        <ele>92.8</ele>
        <time>2019-12-22T08:10:04Z</time>
      </trkpt>
      <trkpt lat="49.01892" lon="1.15174">
        <ele>93</ele>
        <time>2019-12-22T08:10:08Z</time>
      </trkpt>
      <trkpt lat="49.01887" lon="1.15173">
        <ele>93.4</ele>
        <time>2019-12-22T08:10:12Z</time>
      </trkpt>
      <trkpt lat="49.01887" lon="1.15188">
        <ele>93.8</ele>
        <time>2019-12-22T08:10:17Z</time>
      </trkpt>
      <trkpt lat="49.01892" lon="1.15226">
        <ele>94.8</ele>
        <time>2019-12-22T08:10:27Z</time>
      </trkpt>
      <trkpt lat="49.01893" lon="1.15235">
        <ele>94.8</ele>
        <time>2019-12-22T08:10:30Z</time>
      </trkpt>
      <trkpt lat="49.01887" lon="1.15239">
        <ele>95.4</ele>
        <time>2019-12-22T08:10:33Z</time>
      </trkpt>
      <trkpt lat="49.01879" lon="1.15241">
        <ele>96</ele>
        <time>2019-12-22T08:10:36Z</time>
      </trkpt>
      <trkpt lat="49.01876" lon="1.15242">
        <ele>96.4</ele>
        <time>2019-12-22T08:10:37Z</time>
      </trkpt>
      <trkpt lat="49.01874" lon="1.15242">
        <ele>96.6</ele>
        <time>2019-12-22T08:10:38Z</time>
      </trkpt>
      <trkpt lat="49.01871" lon="1.15243">
        <ele>96.8</ele>
        <time>2019-12-22T08:10:39Z</time>
      </trkpt>
      <trkpt lat="49.01869" lon="1.15243">
        <ele>97</ele>
        <time>2019-12-22T08:10:40Z</time>
      </trkpt>
      <trkpt lat="49.01847" lon="1.15248">
        <ele>98.6</ele>
        <time>2019-12-22T08:10:48Z</time>
      </trkpt>
      <trkpt lat="49.01845" lon="1.15247">
        <ele>98.6</ele>
        <time>2019-12-22T08:10:49Z</time>
      </trkpt>
      <trkpt lat="49.01843" lon="1.15244">
        <ele>98.8</ele>
        <time>2019-12-22T08:10:50Z</time>
      </trkpt>
      <trkpt lat="49.01841" lon="1.15241">
        <ele>98.8</ele>
        <time>2019-12-22T08:10:51Z</time>
      </trkpt>
      <trkpt lat="49.01837" lon="1.15236">
        <ele>99</ele>
        <time>2019-12-22T08:10:53Z</time>
      </trkpt>
      <trkpt lat="49.01824" lon="1.15237">
        <ele>99.6</ele>
        <time>2019-12-22T08:10:58Z</time>
      </trkpt>
      <trkpt lat="49.01803" lon="1.15231">
        <ele>100.6</ele>
        <time>2019-12-22T08:11:07Z</time>
      </trkpt>
      <trkpt lat="49.01782" lon="1.15207">
        <ele>102.2</ele>
        <time>2019-12-22T08:11:18Z</time>
      </trkpt>
      <trkpt lat="49.01776" lon="1.15193">
        <ele>102.8</ele>
        <time>2019-12-22T08:11:22Z</time>
      </trkpt>
      <trkpt lat="49.01773" lon="1.15186">
        <ele>103.2</ele>
        <time>2019-12-22T08:11:24Z</time>
      </trkpt>
      <trkpt lat="49.0176" lon="1.15164">
        <ele>105.2</ele>
        <time>2019-12-22T08:11:31Z</time>
      </trkpt>
      <trkpt lat="49.01747" lon="1.15142">
        <ele>107.2</ele>
        <time>2019-12-22T08:11:38Z</time>
      </trkpt>
      <trkpt lat="49.01737" lon="1.15124">
        <ele>109.4</ele>
        <time>2019-12-22T08:11:44Z</time>
      </trkpt>
      <trkpt lat="49.01733" lon="1.15119">
        <ele>110</ele>
        <time>2019-12-22T08:11:46Z</time>
      </trkpt>
      <trkpt lat="49.01727" lon="1.15115">
        <ele>111</ele>
        <time>2019-12-22T08:11:48Z</time>
      </trkpt>
      <trkpt lat="49.0172" lon="1.15105">
        <ele>112.4</ele>
        <time>2019-12-22T08:11:51Z</time>
      </trkpt>
      <trkpt lat="49.0171" lon="1.15095">
        <ele>114</ele>
        <time>2019-12-22T08:11:55Z</time>
      </trkpt>
      <trkpt lat="49.01703" lon="1.15089">
        <ele>115.2</ele>
        <time>2019-12-22T08:11:58Z</time>
      </trkpt>
      <trkpt lat="49.01693" lon="1.15086">
        <ele>116.4</ele>
        <time>2019-12-22T08:12:01Z</time>
      </trkpt>
      <trkpt lat="49.01681" lon="1.15077">
        <ele>117.8</ele>
        <time>2019-12-22T08:12:06Z</time>
      </trkpt>
      <trkpt lat="49.01667" lon="1.15067">
        <ele>119.4</ele>
        <time>2019-12-22T08:12:12Z</time>
      </trkpt>
      <trkpt lat="49.01665" lon="1.15065">
        <ele>119.8</ele>
        <time>2019-12-22T08:12:13Z</time>
      </trkpt>
      <trkpt lat="49.01662" lon="1.15063">
        <ele>120</ele>
        <time>2019-12-22T08:12:14Z</time>
      </trkpt>
      <trkpt lat="49.01656" lon="1.15058">
        <ele>120.6</ele>
        <time>2019-12-22T08:12:17Z</time>
      </trkpt>
      <trkpt lat="49.01654" lon="1.15056">
        <ele>120.8</ele>
        <time>2019-12-22T08:12:18Z</time>
      </trkpt>
      <trkpt lat="49.01652" lon="1.15054">
        <ele>121</ele>
        <time>2019-12-22T08:12:19Z</time>
      </trkpt>
      <trkpt lat="49.01651" lon="1.15052">
        <ele>121</ele>
        <time>2019-12-22T08:12:20Z</time>
      </trkpt>
      <trkpt lat="49.01645" lon="1.15045">
        <ele>121.6</ele>
        <time>2019-12-22T08:12:23Z</time>
      </trkpt>
      <trkpt lat="49.01635" lon="1.15041">
        <ele>122.4</ele>
        <time>2019-12-22T08:12:28Z</time>
      </trkpt>
      <trkpt lat="49.01631" lon="1.15043">
        <ele>122.6</ele>
        <time>2019-12-22T08:12:30Z</time>
      </trkpt>
      <trkpt lat="49.01627" lon="1.15046">
        <ele>122.8</ele>
        <time>2019-12-22T08:12:32Z</time>
      </trkpt>
      <trkpt lat="49.0162" lon="1.15052">
        <ele>123.2</ele>
        <time>2019-12-22T08:12:36Z</time>
      </trkpt>
      <trkpt lat="49.01609" lon="1.1506">
        <ele>124</ele>
        <time>2019-12-22T08:12:41Z</time>
      </trkpt>
      <trkpt lat="49.01604" lon="1.15063">
        <ele>123.8</ele>
        <time>2019-12-22T08:12:43Z</time>
      </trkpt>
      <trkpt lat="49.01602" lon="1.15065">
        <ele>123.8</ele>
        <time>2019-12-22T08:12:44Z</time>
      </trkpt>
      <trkpt lat="49.01599" lon="1.15066">
        <ele>123.8</ele>
        <time>2019-12-22T08:12:45Z</time>
      </trkpt>
      <trkpt lat="49.01597" lon="1.15068">
        <ele>123.6</ele>
        <time>2019-12-22T08:12:46Z</time>
      </trkpt>
      <trkpt lat="49.01581" lon="1.15075">
        <ele>123.4</ele>
        <time>2019-12-22T08:12:52Z</time>
      </trkpt>
      <trkpt lat="49.01574" lon="1.15078">
        <ele>123.2</ele>
        <time>2019-12-22T08:12:55Z</time>
      </trkpt>
      <trkpt lat="49.01568" lon="1.15081">
        <ele>123</ele>
        <time>2019-12-22T08:12:58Z</time>
      </trkpt>
      <trkpt lat="49.01558" lon="1.15084">
        <ele>123</ele>
        <time>2019-12-22T08:13:02Z</time>
      </trkpt>
      <trkpt lat="49.01552" lon="1.15086">
        <ele>122.8</ele>
        <time>2019-12-22T08:13:04Z</time>
      </trkpt>
      <trkpt lat="49.0155" lon="1.15087">
        <ele>122.8</ele>
        <time>2019-12-22T08:13:05Z</time>
      </trkpt>
      <trkpt lat="49.01547" lon="1.15088">
        <ele>123</ele>
        <time>2019-12-22T08:13:06Z</time>
      </trkpt>
      <trkpt lat="49.01534" lon="1.15092">
        <ele>123.4</ele>
        <time>2019-12-22T08:13:12Z</time>
      </trkpt>
      <trkpt lat="49.01527" lon="1.15092">
        <ele>123.6</ele>
        <time>2019-12-22T08:13:15Z</time>
      </trkpt>
      <trkpt lat="49.01507" lon="1.15088">
        <ele>123.4</ele>
        <time>2019-12-22T08:13:22Z</time>
      </trkpt>
      <trkpt lat="49.01493" lon="1.15084">
        <ele>123.4</ele>
        <time>2019-12-22T08:13:26Z</time>
      </trkpt>
      <trkpt lat="49.01458" lon="1.15097">
        <ele>123.2</ele>
        <time>2019-12-22T08:13:35Z</time>
      </trkpt>
      <trkpt lat="49.01451" lon="1.15104">
        <ele>123.4</ele>
        <time>2019-12-22T08:13:37Z</time>
      </trkpt>
      <trkpt lat="49.01447" lon="1.15115">
        <ele>123.6</ele>
        <time>2019-12-22T08:13:39Z</time>
      </trkpt>
      <trkpt lat="49.01454" lon="1.15172">
        <ele>124</ele>
        <time>2019-12-22T08:13:50Z</time>
      </trkpt>
      <trkpt lat="49.01474" lon="1.15174">
        <ele>123.2</ele>
        <time>2019-12-22T08:13:55Z</time>
      </trkpt>
      <trkpt lat="49.01482" lon="1.15181">
        <ele>123</ele>
        <time>2019-12-22T08:13:57Z</time>
      </trkpt>
      <trkpt lat="49.01486" lon="1.15193">
        <ele>123</ele>
        <time>2019-12-22T08:13:59Z</time>
      </trkpt>
      <trkpt lat="49.01489" lon="1.15205">
        <ele>123</ele>
        <time>2019-12-22T08:14:01Z</time>
      </trkpt>
      <trkpt lat="49.01491" lon="1.15212">
        <ele>123</ele>
        <time>2019-12-22T08:14:02Z</time>
      </trkpt>
      <trkpt lat="49.01492" lon="1.1522">
        <ele>123.2</ele>
        <time>2019-12-22T08:14:03Z</time>
      </trkpt>
      <trkpt lat="49.01492" lon="1.15227">
        <ele>123.2</ele>
        <time>2019-12-22T08:14:04Z</time>
      </trkpt>
      <trkpt lat="49.01493" lon="1.15236">
        <ele>123.2</ele>
        <time>2019-12-22T08:14:05Z</time>
      </trkpt>
      <trkpt lat="49.01493" lon="1.15243">
        <ele>123.2</ele>
        <time>2019-12-22T08:14:06Z</time>
      </trkpt>
      <trkpt lat="49.01493" lon="1.1525">
        <ele>123.2</ele>
        <time>2019-12-22T08:14:07Z</time>
      </trkpt>
      <trkpt lat="49.01491" lon="1.15266">
        <ele>123.2</ele>
        <time>2019-12-22T08:14:11Z</time>
      </trkpt>
      <trkpt lat="49.01489" lon="1.15269">
        <ele>123.4</ele>
        <time>2019-12-22T08:14:12Z</time>
      </trkpt>
      <trkpt lat="49.01479" lon="1.1527">
        <ele>123.8</ele>
        <time>2019-12-22T08:14:15Z</time>
      </trkpt>
      <trkpt lat="49.01466" lon="1.15264">
        <ele>124.2</ele>
        <time>2019-12-22T08:14:19Z</time>
      </trkpt>
      <trkpt lat="49.01461" lon="1.15264">
        <ele>124.6</ele>
        <time>2019-12-22T08:14:20Z</time>
      </trkpt>
      <trkpt lat="49.01446" lon="1.15261">
        <ele>125.2</ele>
        <time>2019-12-22T08:14:24Z</time>
      </trkpt>
      <trkpt lat="49.01438" lon="1.1526">
        <ele>125.4</ele>
        <time>2019-12-22T08:14:26Z</time>
      </trkpt>
      <trkpt lat="49.01404" lon="1.15249">
        <ele>125.8</ele>
        <time>2019-12-22T08:14:36Z</time>
      </trkpt>
      <trkpt lat="49.01398" lon="1.15241">
        <ele>125.6</ele>
        <time>2019-12-22T08:14:38Z</time>
      </trkpt>
      <trkpt lat="49.01398" lon="1.15236">
        <ele>125.6</ele>
        <time>2019-12-22T08:14:39Z</time>
      </trkpt>
      <trkpt lat="49.01399" lon="1.15225">
        <ele>125.4</ele>
        <time>2019-12-22T08:14:41Z</time>
      </trkpt>
      <trkpt lat="49.01403" lon="1.15139">
        <ele>123.8</ele>
        <time>2019-12-22T08:14:54Z</time>
      </trkpt>
      <trkpt lat="49.01403" lon="1.15131">
        <ele>123.4</ele>
        <time>2019-12-22T08:14:55Z</time>
      </trkpt>
      <trkpt lat="49.01391" lon="1.15052">
        <ele>120.2</ele>
        <time>2019-12-22T08:15:04Z</time>
      </trkpt>
      <trkpt lat="49.01386" lon="1.15043">
        <ele>119.2</ele>
        <time>2019-12-22T08:15:06Z</time>
      </trkpt>
      <trkpt lat="49.01375" lon="1.15041">
        <ele>118.6</ele>
        <time>2019-12-22T08:15:09Z</time>
      </trkpt>
      <trkpt lat="49.01353" lon="1.15047">
        <ele>119.2</ele>
        <time>2019-12-22T08:15:13Z</time>
      </trkpt>
      <trkpt lat="49.01328" lon="1.15052">
        <ele>119.6</ele>
        <time>2019-12-22T08:15:17Z</time>
      </trkpt>
      <trkpt lat="49.01322" lon="1.15052">
        <ele>119.6</ele>
        <time>2019-12-22T08:15:18Z</time>
      </trkpt>
      <trkpt lat="49.01316" lon="1.15052">
        <ele>119.4</ele>
        <time>2019-12-22T08:15:19Z</time>
      </trkpt>
      <trkpt lat="49.01262" lon="1.15073">
        <ele>120.2</ele>
        <time>2019-12-22T08:15:28Z</time>
      </trkpt>
      <trkpt lat="49.01234" lon="1.15087">
        <ele>122</ele>
        <time>2019-12-22T08:15:34Z</time>
      </trkpt>
      <trkpt lat="49.01224" lon="1.15088">
        <ele>122.4</ele>
        <time>2019-12-22T08:15:36Z</time>
      </trkpt>
      <trkpt lat="49.01215" lon="1.15096">
        <ele>123</ele>
        <time>2019-12-22T08:15:38Z</time>
      </trkpt>
      <trkpt lat="49.01202" lon="1.15109">
        <ele>123.6</ele>
        <time>2019-12-22T08:15:42Z</time>
      </trkpt>
      <trkpt lat="49.01188" lon="1.15124">
        <ele>124.4</ele>
        <time>2019-12-22T08:15:48Z</time>
      </trkpt>
      <trkpt lat="49.01184" lon="1.15128">
        <ele>124.8</ele>
        <time>2019-12-22T08:15:49Z</time>
      </trkpt>
      <trkpt lat="49.01171" lon="1.15141">
        <ele>125.2</ele>
        <time>2019-12-22T08:15:52Z</time>
      </trkpt>
      <trkpt lat="49.01167" lon="1.15145">
        <ele>125.4</ele>
        <time>2019-12-22T08:15:53Z</time>
      </trkpt>
      <trkpt lat="49.0114" lon="1.15173">
        <ele>126.6</ele>
        <time>2019-12-22T08:16:02Z</time>
      </trkpt>
      <trkpt lat="49.01118" lon="1.15177">
        <ele>127</ele>
        <time>2019-12-22T08:16:09Z</time>
      </trkpt>
      <trkpt lat="49.01107" lon="1.15171">
        <ele>127</ele>
        <time>2019-12-22T08:16:12Z</time>
      </trkpt>
      <trkpt lat="49.011" lon="1.15163">
        <ele>127.2</ele>
        <time>2019-12-22T08:16:14Z</time>
      </trkpt>
      <trkpt lat="49.01094" lon="1.15154">
        <ele>127.2</ele>
        <time>2019-12-22T08:16:16Z</time>
      </trkpt>
      <trkpt lat="49.01068" lon="1.15099">
        <ele>128</ele>
        <time>2019-12-22T08:16:26Z</time>
      </trkpt>
      <trkpt lat="49.01062" lon="1.15088">
        <ele>128.2</ele>
        <time>2019-12-22T08:16:28Z</time>
      </trkpt>
      <trkpt lat="49.01046" lon="1.15063">
        <ele>129</ele>
        <time>2019-12-22T08:16:33Z</time>
      </trkpt>
      <trkpt lat="49.0102" lon="1.15014">
        <ele>129.6</ele>
        <time>2019-12-22T08:16:44Z</time>
      </trkpt>
      <trkpt lat="49.01037" lon="1.1499">
        <ele>128.6</ele>
        <time>2019-12-22T08:16:50Z</time>
      </trkpt>
      <trkpt lat="49.01044" lon="1.14982">
        <ele>128.2</ele>
        <time>2019-12-22T08:16:52Z</time>
      </trkpt>
      <trkpt lat="49.01055" lon="1.14972">
        <ele>127.4</ele>
        <time>2019-12-22T08:16:55Z</time>
      </trkpt>
      <trkpt lat="49.01059" lon="1.14968">
        <ele>127.2</ele>
        <time>2019-12-22T08:16:56Z</time>
      </trkpt>
      <trkpt lat="49.01108" lon="1.14933">
        <ele>124.4</ele>
        <time>2019-12-22T08:17:11Z</time>
      </trkpt>
      <trkpt lat="49.01124" lon="1.14921">
        <ele>124</ele>
        <time>2019-12-22T08:17:16Z</time>
      </trkpt>
      <trkpt lat="49.01149" lon="1.14893">
        <ele>123.6</ele>
        <time>2019-12-22T08:17:26Z</time>
      </trkpt>
      <trkpt lat="49.01149" lon="1.14889">
        <ele>123.6</ele>
        <time>2019-12-22T08:17:27Z</time>
      </trkpt>
      <trkpt lat="49.01149" lon="1.14887">
        <ele>123.6</ele>
        <time>2019-12-22T08:17:28Z</time>
      </trkpt>
      <trkpt lat="49.01138" lon="1.14852">
        <ele>124.6</ele>
        <time>2019-12-22T08:17:36Z</time>
      </trkpt>
      <trkpt lat="49.01125" lon="1.14832">
        <ele>125.4</ele>
        <time>2019-12-22T08:17:41Z</time>
      </trkpt>
      <trkpt lat="49.01117" lon="1.14811">
        <ele>125.8</ele>
        <time>2019-12-22T08:17:45Z</time>
      </trkpt>
      <trkpt lat="49.01115" lon="1.14805">
        <ele>125.8</ele>
        <time>2019-12-22T08:17:46Z</time>
      </trkpt>
      <trkpt lat="49.01113" lon="1.14787">
        <ele>125.6</ele>
        <time>2019-12-22T08:17:49Z</time>
      </trkpt>
      <trkpt lat="49.01128" lon="1.14717">
        <ele>124.8</ele>
        <time>2019-12-22T08:18:00Z</time>
      </trkpt>
      <trkpt lat="49.01129" lon="1.14702">
        <ele>124.6</ele>
        <time>2019-12-22T08:18:02Z</time>
      </trkpt>
      <trkpt lat="49.01131" lon="1.14688">
        <ele>124.6</ele>
        <time>2019-12-22T08:18:04Z</time>
      </trkpt>
      <trkpt lat="49.01133" lon="1.14668">
        <ele>124.2</ele>
        <time>2019-12-22T08:18:07Z</time>
      </trkpt>
      <trkpt lat="49.01136" lon="1.14643">
        <ele>124.4</ele>
        <time>2019-12-22T08:18:11Z</time>
      </trkpt>
      <trkpt lat="49.01135" lon="1.14632">
        <ele>125</ele>
        <time>2019-12-22T08:18:13Z</time>
      </trkpt>
      <trkpt lat="49.01144" lon="1.14578">
        <ele>128.4</ele>
        <time>2019-12-22T08:18:25Z</time>
      </trkpt>
      <trkpt lat="49.01158" lon="1.14571">
        <ele>129</ele>
        <time>2019-12-22T08:18:30Z</time>
      </trkpt>
      <trkpt lat="49.01161" lon="1.1457">
        <ele>129</ele>
        <time>2019-12-22T08:18:31Z</time>
      </trkpt>
      <trkpt lat="49.01216" lon="1.14558">
        <ele>129.6</ele>
        <time>2019-12-22T08:18:45Z</time>
      </trkpt>
      <trkpt lat="49.01232" lon="1.14555">
        <ele>129.4</ele>
        <time>2019-12-22T08:18:49Z</time>
      </trkpt>
      <trkpt lat="49.01239" lon="1.14552">
        <ele>129.4</ele>
        <time>2019-12-22T08:18:51Z</time>
      </trkpt>
      <trkpt lat="49.01265" lon="1.14548">
        <ele>129</ele>
        <time>2019-12-22T08:18:57Z</time>
      </trkpt>
      <trkpt lat="49.01275" lon="1.14542">
        <ele>128.2</ele>
        <time>2019-12-22T08:18:59Z</time>
      </trkpt>
      <trkpt lat="49.01286" lon="1.14539">
        <ele>127.8</ele>
        <time>2019-12-22T08:19:01Z</time>
      </trkpt>
      <trkpt lat="49.0134" lon="1.14521">
        <ele>126</ele>
        <time>2019-12-22T08:19:14Z</time>
      </trkpt>
      <trkpt lat="49.01394" lon="1.14522">
        <ele>117.4</ele>
        <time>2019-12-22T08:19:37Z</time>
      </trkpt>
      <trkpt lat="49.01418" lon="1.14512">
        <ele>112</ele>
        <time>2019-12-22T08:19:48Z</time>
      </trkpt>
      <trkpt lat="49.01448" lon="1.14477">
        <ele>106</ele>
        <time>2019-12-22T08:20:00Z</time>
      </trkpt>
      <trkpt lat="49.01409" lon="1.14425">
        <ele>109</ele>
        <time>2019-12-22T08:20:18Z</time>
      </trkpt>
      <trkpt lat="49.01386" lon="1.14399">
        <ele>111</ele>
        <time>2019-12-22T08:20:26Z</time>
      </trkpt>
      <trkpt lat="49.01347" lon="1.14336">
        <ele>111</ele>
        <time>2019-12-22T08:20:42Z</time>
      </trkpt>
      <trkpt lat="49.01315" lon="1.14299">
        <ele>111.6</ele>
        <time>2019-12-22T08:20:54Z</time>
      </trkpt>
      <trkpt lat="49.01302" lon="1.14281">
        <ele>111.2</ele>
        <time>2019-12-22T08:21:00Z</time>
      </trkpt>
      <trkpt lat="49.01297" lon="1.14277">
        <ele>111.4</ele>
        <time>2019-12-22T08:21:02Z</time>
      </trkpt>
      <trkpt lat="49.01292" lon="1.14275">
        <ele>111.8</ele>
        <time>2019-12-22T08:21:04Z</time>
      </trkpt>
      <trkpt lat="49.01281" lon="1.14265">
        <ele>112</ele>
        <time>2019-12-22T08:21:08Z</time>
      </trkpt>
      <trkpt lat="49.01272" lon="1.14256">
        <ele>111.8</ele>
        <time>2019-12-22T08:21:12Z</time>
      </trkpt>
      <trkpt lat="49.01265" lon="1.14251">
        <ele>111.6</ele>
        <time>2019-12-22T08:21:15Z</time>
      </trkpt>
      <trkpt lat="49.01263" lon="1.1425">
        <ele>111.6</ele>
        <time>2019-12-22T08:21:16Z</time>
      </trkpt>
      <trkpt lat="49.0126" lon="1.14249">
        <ele>111.6</ele>
        <time>2019-12-22T08:21:17Z</time>
      </trkpt>
      <trkpt lat="49.01246" lon="1.14251">
        <ele>112.6</ele>
        <time>2019-12-22T08:21:23Z</time>
      </trkpt>
      <trkpt lat="49.01216" lon="1.14252">
        <ele>114</ele>
        <time>2019-12-22T08:21:35Z</time>
      </trkpt>
      <trkpt lat="49.01211" lon="1.14252">
        <ele>114.4</ele>
        <time>2019-12-22T08:21:37Z</time>
      </trkpt>
      <trkpt lat="49.01205" lon="1.14249">
        <ele>114.4</ele>
        <time>2019-12-22T08:21:40Z</time>
      </trkpt>
      <trkpt lat="49.01201" lon="1.14248">
        <ele>114.6</ele>
        <time>2019-12-22T08:21:42Z</time>
      </trkpt>
      <trkpt lat="49.01191" lon="1.14243">
        <ele>114.8</ele>
        <time>2019-12-22T08:21:46Z</time>
      </trkpt>
      <trkpt lat="49.01178" lon="1.14239">
        <ele>114.2</ele>
        <time>2019-12-22T08:21:50Z</time>
      </trkpt>
      <trkpt lat="49.01171" lon="1.14235">
        <ele>113.8</ele>
        <time>2019-12-22T08:21:53Z</time>
      </trkpt>
      <trkpt lat="49.01169" lon="1.14234">
        <ele>113.6</ele>
        <time>2019-12-22T08:21:54Z</time>
      </trkpt>
      <trkpt lat="49.01125" lon="1.14233">
        <ele>114.4</ele>
        <time>2019-12-22T08:22:10Z</time>
      </trkpt>
      <trkpt lat="49.01113" lon="1.14235">
        <ele>115</ele>
        <time>2019-12-22T08:22:15Z</time>
      </trkpt>
      <trkpt lat="49.0109" lon="1.14248">
        <ele>117.2</ele>
        <time>2019-12-22T08:22:24Z</time>
      </trkpt>
      <trkpt lat="49.01084" lon="1.14249">
        <ele>117.4</ele>
        <time>2019-12-22T08:22:27Z</time>
      </trkpt>
      <trkpt lat="49.0108" lon="1.14251">
        <ele>117.6</ele>
        <time>2019-12-22T08:22:29Z</time>
      </trkpt>
      <trkpt lat="49.01078" lon="1.14251">
        <ele>117.8</ele>
        <time>2019-12-22T08:22:30Z</time>
      </trkpt>
      <trkpt lat="49.01075" lon="1.14252">
        <ele>117.8</ele>
        <time>2019-12-22T08:22:31Z</time>
      </trkpt>
      <trkpt lat="49.01073" lon="1.14253">
        <ele>118</ele>
        <time>2019-12-22T08:22:32Z</time>
      </trkpt>
      <trkpt lat="49.01067" lon="1.14256">
        <ele>118.6</ele>
        <time>2019-12-22T08:22:35Z</time>
      </trkpt>
      <trkpt lat="49.01055" lon="1.14267">
        <ele>119.4</ele>
        <time>2019-12-22T08:22:41Z</time>
      </trkpt>
      <trkpt lat="49.01053" lon="1.1427">
        <ele>119.4</ele>
        <time>2019-12-22T08:22:42Z</time>
      </trkpt>
      <trkpt lat="49.01049" lon="1.14276">
        <ele>119.4</ele>
        <time>2019-12-22T08:22:44Z</time>
      </trkpt>
      <trkpt lat="49.01042" lon="1.14289">
        <ele>119.4</ele>
        <time>2019-12-22T08:22:48Z</time>
      </trkpt>
      <trkpt lat="49.01039" lon="1.14293">
        <ele>119.4</ele>
        <time>2019-12-22T08:22:50Z</time>
      </trkpt>
      <trkpt lat="49.01036" lon="1.14298">
        <ele>119.2</ele>
        <time>2019-12-22T08:22:52Z</time>
      </trkpt>
      <trkpt lat="49.01011" lon="1.14348">
        <ele>122.6</ele>
        <time>2019-12-22T08:23:09Z</time>
      </trkpt>
      <trkpt lat="49.00994" lon="1.14383">
        <ele>125</ele>
        <time>2019-12-22T08:23:24Z</time>
      </trkpt>
      <trkpt lat="49.00978" lon="1.14411">
        <ele>126</ele>
        <time>2019-12-22T08:23:33Z</time>
      </trkpt>
      <trkpt lat="49.00962" lon="1.14441">
        <ele>128.2</ele>
        <time>2019-12-22T08:23:44Z</time>
      </trkpt>
      <trkpt lat="49.00957" lon="1.14446">
        <ele>128.8</ele>
        <time>2019-12-22T08:23:47Z</time>
      </trkpt>
      <trkpt lat="49.00955" lon="1.1445">
        <ele>129.2</ele>
        <time>2019-12-22T08:23:49Z</time>
      </trkpt>
      <trkpt lat="49.00947" lon="1.14458">
        <ele>130</ele>
        <time>2019-12-22T08:23:54Z</time>
      </trkpt>
      <trkpt lat="49.00946" lon="1.14467">
        <ele>131</ele>
        <time>2019-12-22T08:23:57Z</time>
      </trkpt>
      <trkpt lat="49.00943" lon="1.14483">
        <ele>131.8</ele>
        <time>2019-12-22T08:24:08Z</time>
      </trkpt>
      <trkpt lat="49.00941" lon="1.14483">
        <ele>131.8</ele>
        <time>2019-12-22T08:24:09Z</time>
      </trkpt>
      <trkpt lat="49.00936" lon="1.14484">
        <ele>131.8</ele>
        <time>2019-12-22T08:24:12Z</time>
      </trkpt>
      <trkpt lat="49.00925" lon="1.14486">
        <ele>131.6</ele>
        <time>2019-12-22T08:24:19Z</time>
      </trkpt>
      <trkpt lat="49.00922" lon="1.14487">
        <ele>131.6</ele>
        <time>2019-12-22T08:24:20Z</time>
      </trkpt>
      <trkpt lat="49.00917" lon="1.14489">
        <ele>131.6</ele>
        <time>2019-12-22T08:24:22Z</time>
      </trkpt>
      <trkpt lat="49.00908" lon="1.14493">
        <ele>131.4</ele>
        <time>2019-12-22T08:24:26Z</time>
      </trkpt>
      <trkpt lat="49.00906" lon="1.14494">
        <ele>131.4</ele>
        <time>2019-12-22T08:24:27Z</time>
      </trkpt>
      <trkpt lat="49.00858" lon="1.14494">
        <ele>131.6</ele>
        <time>2019-12-22T08:24:42Z</time>
      </trkpt>
      <trkpt lat="49.00853" lon="1.14489">
        <ele>131.6</ele>
        <time>2019-12-22T08:24:44Z</time>
      </trkpt>
      <trkpt lat="49.00849" lon="1.14487">
        <ele>131.6</ele>
        <time>2019-12-22T08:24:45Z</time>
      </trkpt>
      <trkpt lat="49.00843" lon="1.14483">
        <ele>131.6</ele>
        <time>2019-12-22T08:24:47Z</time>
      </trkpt>
      <trkpt lat="49.00834" lon="1.14476">
        <ele>131.6</ele>
        <time>2019-12-22T08:24:50Z</time>
      </trkpt>
      <trkpt lat="49.00828" lon="1.1447">
        <ele>131.2</ele>
        <time>2019-12-22T08:24:52Z</time>
      </trkpt>
      <trkpt lat="49.00776" lon="1.14455">
        <ele>130</ele>
        <time>2019-12-22T08:25:08Z</time>
      </trkpt>
      <trkpt lat="49.0075" lon="1.14468">
        <ele>130</ele>
        <time>2019-12-22T08:25:16Z</time>
      </trkpt>
      <trkpt lat="49.00737" lon="1.14463">
        <ele>129.6</ele>
        <time>2019-12-22T08:25:19Z</time>
      </trkpt>
      <trkpt lat="49.00728" lon="1.14458">
        <ele>129.2</ele>
        <time>2019-12-22T08:25:21Z</time>
      </trkpt>
      <trkpt lat="49.00718" lon="1.14462">
        <ele>129</ele>
        <time>2019-12-22T08:25:23Z</time>
      </trkpt>
      <trkpt lat="49.00688" lon="1.14492">
        <ele>129.4</ele>
        <time>2019-12-22T08:25:32Z</time>
      </trkpt>
      <trkpt lat="49.00727" lon="1.14468">
        <ele>129.4</ele>
        <time>2019-12-22T08:25:46Z</time>
      </trkpt>
      <trkpt lat="49.00742" lon="1.14495">
        <ele>130.8</ele>
        <time>2019-12-22T08:25:54Z</time>
      </trkpt>
      <trkpt lat="49.00706" lon="1.14489">
        <ele>129.8</ele>
        <time>2019-12-22T08:26:05Z</time>
      </trkpt>
      <trkpt lat="49.00699" lon="1.14498">
        <ele>129.8</ele>
        <time>2019-12-22T08:26:07Z</time>
      </trkpt>
      <trkpt lat="49.00692" lon="1.14521">
        <ele>130.6</ele>
        <time>2019-12-22T08:26:13Z</time>
      </trkpt>
      <trkpt lat="49.00696" lon="1.14525">
        <ele>130.8</ele>
        <time>2019-12-22T08:26:15Z</time>
      </trkpt>
      <trkpt lat="49.00708" lon="1.1454">
        <ele>131.6</ele>
        <time>2019-12-22T08:26:21Z</time>
      </trkpt>
      <trkpt lat="49.00718" lon="1.14567">
        <ele>132.8</ele>
        <time>2019-12-22T08:26:30Z</time>
      </trkpt>
      <trkpt lat="49.00713" lon="1.14582">
        <ele>132.8</ele>
        <time>2019-12-22T08:26:35Z</time>
      </trkpt>
      <trkpt lat="49.00708" lon="1.14588">
        <ele>132.6</ele>
        <time>2019-12-22T08:26:39Z</time>
      </trkpt>
      <trkpt lat="49.00702" lon="1.14593">
        <ele>132.4</ele>
        <time>2019-12-22T08:26:42Z</time>
      </trkpt>
      <trkpt lat="49.00695" lon="1.14598">
        <ele>132.2</ele>
        <time>2019-12-22T08:26:46Z</time>
      </trkpt>
      <trkpt lat="49.00684" lon="1.14609">
        <ele>131.6</ele>
        <time>2019-12-22T08:26:51Z</time>
      </trkpt>
      <trkpt lat="49.00676" lon="1.14612">
        <ele>131.2</ele>
        <time>2019-12-22T08:26:54Z</time>
      </trkpt>
      <trkpt lat="49.00662" lon="1.14595">
        <ele>130.6</ele>
        <time>2019-12-22T08:27:00Z</time>
      </trkpt>
      <trkpt lat="49.00653" lon="1.14575">
        <ele>130.2</ele>
        <time>2019-12-22T08:27:05Z</time>
      </trkpt>
      <trkpt lat="49.00649" lon="1.14566">
        <ele>130</ele>
        <time>2019-12-22T08:27:07Z</time>
      </trkpt>
      <trkpt lat="49.00644" lon="1.14566">
        <ele>129.8</ele>
        <time>2019-12-22T08:27:09Z</time>
      </trkpt>
      <trkpt lat="49.0063" lon="1.1458">
        <ele>129</ele>
        <time>2019-12-22T08:27:15Z</time>
      </trkpt>
      <trkpt lat="49.00602" lon="1.14602">
        <ele>129.8</ele>
        <time>2019-12-22T08:27:24Z</time>
      </trkpt>
      <trkpt lat="49.00559" lon="1.14639">
        <ele>131.6</ele>
        <time>2019-12-22T08:27:36Z</time>
      </trkpt>
      <trkpt lat="49.00517" lon="1.14674">
        <ele>132.6</ele>
        <time>2019-12-22T08:27:51Z</time>
      </trkpt>
      <trkpt lat="49.00511" lon="1.14679">
        <ele>132.6</ele>
        <time>2019-12-22T08:27:54Z</time>
      </trkpt>
      <trkpt lat="49.00499" lon="1.14692">
        <ele>132.6</ele>
        <time>2019-12-22T08:28:01Z</time>
      </trkpt>
      <trkpt lat="49.00488" lon="1.14707">
        <ele>132.6</ele>
        <time>2019-12-22T08:28:07Z</time>
      </trkpt>
      <trkpt lat="49.00483" lon="1.14715">
        <ele>132.6</ele>
        <time>2019-12-22T08:28:10Z</time>
      </trkpt>
      <trkpt lat="49.00441" lon="1.14772">
        <ele>132.6</ele>
        <time>2019-12-22T08:28:31Z</time>
      </trkpt>
      <trkpt lat="49.00401" lon="1.14822">
        <ele>133.6</ele>
        <time>2019-12-22T08:28:50Z</time>
      </trkpt>
      <trkpt lat="49.00392" lon="1.14818">
        <ele>133.6</ele>
        <time>2019-12-22T08:28:56Z</time>
      </trkpt>
      <trkpt lat="49.00377" lon="1.14839">
        <ele>134.2</ele>
        <time>2019-12-22T08:29:04Z</time>
      </trkpt>
      <trkpt lat="49.00376" lon="1.14844">
        <ele>134.2</ele>
        <time>2019-12-22T08:29:06Z</time>
      </trkpt>
      <trkpt lat="49.00378" lon="1.14848">
        <ele>134.2</ele>
        <time>2019-12-22T08:29:08Z</time>
      </trkpt>
      <trkpt lat="49.0039" lon="1.14846">
        <ele>134</ele>
        <time>2019-12-22T08:29:13Z</time>
      </trkpt>
      <trkpt lat="49.00407" lon="1.14844">
        <ele>133.8</ele>
        <time>2019-12-22T08:29:19Z</time>
      </trkpt>
      <trkpt lat="49.00428" lon="1.14849">
        <ele>133.6</ele>
        <time>2019-12-22T08:29:26Z</time>
      </trkpt>
      <trkpt lat="49.00443" lon="1.14855">
        <ele>133.6</ele>
        <time>2019-12-22T08:29:30Z</time>
      </trkpt>
      <trkpt lat="49.00455" lon="1.14861">
        <ele>133.8</ele>
        <time>2019-12-22T08:29:33Z</time>
      </trkpt>
      <trkpt lat="49.00488" lon="1.14877">
        <ele>134.4</ele>
        <time>2019-12-22T08:29:41Z</time>
      </trkpt>
      <trkpt lat="49.00543" lon="1.14895">
        <ele>135.4</ele>
        <time>2019-12-22T08:29:53Z</time>
      </trkpt>
      <trkpt lat="49.00555" lon="1.14899">
        <ele>135.6</ele>
        <time>2019-12-22T08:29:56Z</time>
      </trkpt>
      <trkpt lat="49.00563" lon="1.14908">
        <ele>135.8</ele>
        <time>2019-12-22T08:29:58Z</time>
      </trkpt>
      <trkpt lat="49.00568" lon="1.14921">
        <ele>135.8</ele>
        <time>2019-12-22T08:30:00Z</time>
      </trkpt>
      <trkpt lat="49.00573" lon="1.14999">
        <ele>136</ele>
        <time>2019-12-22T08:30:11Z</time>
      </trkpt>
      <trkpt lat="49.00573" lon="1.15012">
        <ele>136.4</ele>
        <time>2019-12-22T08:30:13Z</time>
      </trkpt>
      <trkpt lat="49.00569" lon="1.1504">
        <ele>136.8</ele>
        <time>2019-12-22T08:30:18Z</time>
      </trkpt>
      <trkpt lat="49.0056" lon="1.1507">
        <ele>137</ele>
        <time>2019-12-22T08:30:25Z</time>
      </trkpt>
      <trkpt lat="49.00572" lon="1.15076">
        <ele>137.4</ele>
        <time>2019-12-22T08:30:29Z</time>
      </trkpt>
      <trkpt lat="49.00588" lon="1.15068">
        <ele>137.6</ele>
        <time>2019-12-22T08:30:34Z</time>
      </trkpt>
      <trkpt lat="49.00614" lon="1.15052">
        <ele>137.8</ele>
        <time>2019-12-22T08:30:41Z</time>
      </trkpt>
      <trkpt lat="49.00629" lon="1.15047">
        <ele>137.4</ele>
        <time>2019-12-22T08:30:45Z</time>
      </trkpt>
      <trkpt lat="49.00683" lon="1.15079">
        <ele>137.4</ele>
        <time>2019-12-22T08:30:59Z</time>
      </trkpt>
      <trkpt lat="49.00691" lon="1.15084">
        <ele>137.2</ele>
        <time>2019-12-22T08:31:01Z</time>
      </trkpt>
      <trkpt lat="49.00711" lon="1.15104">
        <ele>137</ele>
        <time>2019-12-22T08:31:08Z</time>
      </trkpt>
      <trkpt lat="49.00711" lon="1.15111">
        <ele>137.2</ele>
        <time>2019-12-22T08:31:10Z</time>
      </trkpt>
      <trkpt lat="49.00698" lon="1.15135">
        <ele>137.8</ele>
        <time>2019-12-22T08:31:16Z</time>
      </trkpt>
      <trkpt lat="49.00684" lon="1.15134">
        <ele>138</ele>
        <time>2019-12-22T08:31:20Z</time>
      </trkpt>
      <trkpt lat="49.00653" lon="1.15144">
        <ele>139</ele>
        <time>2019-12-22T08:31:32Z</time>
      </trkpt>
      <trkpt lat="49.00648" lon="1.15143">
        <ele>139</ele>
        <time>2019-12-22T08:31:34Z</time>
      </trkpt>
      <trkpt lat="49.00638" lon="1.15138">
        <ele>139.2</ele>
        <time>2019-12-22T08:31:37Z</time>
      </trkpt>
      <trkpt lat="49.00617" lon="1.1514">
        <ele>139.6</ele>
        <time>2019-12-22T08:31:46Z</time>
      </trkpt>
      <trkpt lat="49.00596" lon="1.15137">
        <ele>139.6</ele>
        <time>2019-12-22T08:31:52Z</time>
      </trkpt>
      <trkpt lat="49.00572" lon="1.15137">
        <ele>139</ele>
        <time>2019-12-22T08:31:58Z</time>
      </trkpt>
      <trkpt lat="49.00553" lon="1.15131">
        <ele>138.4</ele>
        <time>2019-12-22T08:32:04Z</time>
      </trkpt>
      <trkpt lat="49.00528" lon="1.1514">
        <ele>138</ele>
        <time>2019-12-22T08:32:12Z</time>
      </trkpt>
      <trkpt lat="49.00523" lon="1.15156">
        <ele>138.6</ele>
        <time>2019-12-22T08:32:18Z</time>
      </trkpt>
      <trkpt lat="49.00518" lon="1.15161">
        <ele>138.8</ele>
        <time>2019-12-22T08:32:20Z</time>
      </trkpt>
      <trkpt lat="49.00515" lon="1.15162">
        <ele>139</ele>
        <time>2019-12-22T08:32:21Z</time>
      </trkpt>
      <trkpt lat="49.00499" lon="1.15151">
        <ele>138.6</ele>
        <time>2019-12-22T08:32:27Z</time>
      </trkpt>
      <trkpt lat="49.00467" lon="1.1516">
        <ele>139.4</ele>
        <time>2019-12-22T08:32:37Z</time>
      </trkpt>
      <trkpt lat="49.00414" lon="1.15185">
        <ele>140.2</ele>
        <time>2019-12-22T08:32:52Z</time>
      </trkpt>
      <trkpt lat="49.0037" lon="1.15229">
        <ele>140.2</ele>
        <time>2019-12-22T08:33:09Z</time>
      </trkpt>
      <trkpt lat="49.00361" lon="1.15241">
        <ele>140</ele>
        <time>2019-12-22T08:33:13Z</time>
      </trkpt>
      <trkpt lat="49.00349" lon="1.15247">
        <ele>139.8</ele>
        <time>2019-12-22T08:33:20Z</time>
      </trkpt>
      <trkpt lat="49.00344" lon="1.15246">
        <ele>139.8</ele>
        <time>2019-12-22T08:33:23Z</time>
      </trkpt>
      <trkpt lat="49.00317" lon="1.15219">
        <ele>140</ele>
        <time>2019-12-22T08:33:35Z</time>
      </trkpt>
      <trkpt lat="49.00266" lon="1.15245">
        <ele>140.4</ele>
        <time>2019-12-22T08:33:48Z</time>
      </trkpt>
      <trkpt lat="49.00223" lon="1.15263">
        <ele>141.8</ele>
        <time>2019-12-22T08:33:58Z</time>
      </trkpt>
      <trkpt lat="49.00207" lon="1.15272">
        <ele>142.6</ele>
        <time>2019-12-22T08:34:02Z</time>
      </trkpt>
      <trkpt lat="49.00188" lon="1.15283">
        <ele>143.4</ele>
        <time>2019-12-22T08:34:07Z</time>
      </trkpt>
      <trkpt lat="49.00179" lon="1.15287">
        <ele>143.8</ele>
        <time>2019-12-22T08:34:09Z</time>
      </trkpt>
      <trkpt lat="49.00129" lon="1.15319">
        <ele>144</ele>
        <time>2019-12-22T08:34:24Z</time>
      </trkpt>
      <trkpt lat="49.0013" lon="1.15349">
        <ele>144.2</ele>
        <time>2019-12-22T08:34:30Z</time>
      </trkpt>
      <trkpt lat="49.00146" lon="1.15428">
        <ele>144.2</ele>
        <time>2019-12-22T08:34:42Z</time>
      </trkpt>
      <trkpt lat="49.00155" lon="1.1546">
        <ele>143.8</ele>
        <time>2019-12-22T08:34:47Z</time>
      </trkpt>
      <trkpt lat="49.00159" lon="1.15476">
        <ele>143.8</ele>
        <time>2019-12-22T08:34:50Z</time>
      </trkpt>
      <trkpt lat="49.0017" lon="1.15529">
        <ele>142.2</ele>
        <time>2019-12-22T08:34:59Z</time>
      </trkpt>
      <trkpt lat="49.00167" lon="1.15539">
        <ele>142.2</ele>
        <time>2019-12-22T08:35:02Z</time>
      </trkpt>
      <trkpt lat="49.00138" lon="1.1557">
        <ele>143</ele>
        <time>2019-12-22T08:35:18Z</time>
      </trkpt>
      <trkpt lat="49.00136" lon="1.15572">
        <ele>143</ele>
        <time>2019-12-22T08:35:19Z</time>
      </trkpt>
      <trkpt lat="49.00118" lon="1.15584">
        <ele>143.4</ele>
        <time>2019-12-22T08:35:26Z</time>
      </trkpt>
      <trkpt lat="49.00075" lon="1.15609">
        <ele>143.4</ele>
        <time>2019-12-22T08:35:38Z</time>
      </trkpt>
      <trkpt lat="49.00058" lon="1.15622">
        <ele>144</ele>
        <time>2019-12-22T08:35:45Z</time>
      </trkpt>
      <trkpt lat="49.00039" lon="1.15632">
        <ele>144.6</ele>
        <time>2019-12-22T08:35:50Z</time>
      </trkpt>
      <trkpt lat="48.99987" lon="1.15662">
        <ele>143.8</ele>
        <time>2019-12-22T08:36:05Z</time>
      </trkpt>
      <trkpt lat="48.99985" lon="1.15671">
        <ele>143.8</ele>
        <time>2019-12-22T08:36:08Z</time>
      </trkpt>
      <trkpt lat="48.99986" lon="1.15682">
        <ele>143.6</ele>
        <time>2019-12-22T08:36:11Z</time>
      </trkpt>
      <trkpt lat="48.99986" lon="1.15685">
        <ele>143.6</ele>
        <time>2019-12-22T08:36:12Z</time>
      </trkpt>
      <trkpt lat="48.99985" lon="1.15693">
        <ele>143.6</ele>
        <time>2019-12-22T08:36:14Z</time>
      </trkpt>
      <trkpt lat="48.99986" lon="1.15698">
        <ele>143.6</ele>
        <time>2019-12-22T08:36:15Z</time>
      </trkpt>
      <trkpt lat="48.99996" lon="1.15743">
        <ele>143.4</ele>
        <time>2019-12-22T08:36:25Z</time>
      </trkpt>
      <trkpt lat="49.0001" lon="1.15827">
        <ele>143.4</ele>
        <time>2019-12-22T08:36:45Z</time>
      </trkpt>
      <trkpt lat="49.00013" lon="1.1584">
        <ele>143.2</ele>
        <time>2019-12-22T08:36:48Z</time>
      </trkpt>
      <trkpt lat="49.00007" lon="1.15909">
        <ele>142.6</ele>
        <time>2019-12-22T08:37:06Z</time>
      </trkpt>
      <trkpt lat="48.99987" lon="1.1592">
        <ele>142.2</ele>
        <time>2019-12-22T08:37:13Z</time>
      </trkpt>
      <trkpt lat="48.99975" lon="1.15973">
        <ele>141.4</ele>
        <time>2019-12-22T08:37:31Z</time>
      </trkpt>
      <trkpt lat="48.99993" lon="1.15968">
        <ele>141.8</ele>
        <time>2019-12-22T08:37:38Z</time>
      </trkpt>
      <trkpt lat="49.00022" lon="1.15953">
        <ele>142.2</ele>
        <time>2019-12-22T08:37:47Z</time>
      </trkpt>
      <trkpt lat="49.0006" lon="1.15936">
        <ele>142</ele>
        <time>2019-12-22T08:37:58Z</time>
      </trkpt>
      <trkpt lat="49.00099" lon="1.15917">
        <ele>141.8</ele>
        <time>2019-12-22T08:38:07Z</time>
      </trkpt>
      <trkpt lat="49.00113" lon="1.1591">
        <ele>141.8</ele>
        <time>2019-12-22T08:38:10Z</time>
      </trkpt>
      <trkpt lat="49.00167" lon="1.15883">
        <ele>141.4</ele>
        <time>2019-12-22T08:38:22Z</time>
      </trkpt>
      <trkpt lat="49.00184" lon="1.15873">
        <ele>141.4</ele>
        <time>2019-12-22T08:38:26Z</time>
      </trkpt>
      <trkpt lat="49.00197" lon="1.15866">
        <ele>141.2</ele>
        <time>2019-12-22T08:38:29Z</time>
      </trkpt>
      <trkpt lat="49.00211" lon="1.15862">
        <ele>140.6</ele>
        <time>2019-12-22T08:38:32Z</time>
      </trkpt>
      <trkpt lat="49.00236" lon="1.15848">
        <ele>140</ele>
        <time>2019-12-22T08:38:38Z</time>
      </trkpt>
      <trkpt lat="49.00267" lon="1.15851">
        <ele>139.2</ele>
        <time>2019-12-22T08:38:49Z</time>
      </trkpt>
      <trkpt lat="49.00274" lon="1.15859">
        <ele>138.8</ele>
        <time>2019-12-22T08:38:52Z</time>
      </trkpt>
      <trkpt lat="49.00286" lon="1.15865">
        <ele>138.8</ele>
        <time>2019-12-22T08:38:56Z</time>
      </trkpt>
      <trkpt lat="49.00282" lon="1.15937">
        <ele>138.2</ele>
        <time>2019-12-22T08:39:09Z</time>
      </trkpt>
      <trkpt lat="49.00281" lon="1.15949">
        <ele>138.2</ele>
        <time>2019-12-22T08:39:11Z</time>
      </trkpt>
      <trkpt lat="49.00278" lon="1.15969">
        <ele>138</ele>
        <time>2019-12-22T08:39:14Z</time>
      </trkpt>
      <trkpt lat="49.00275" lon="1.15981">
        <ele>138</ele>
        <time>2019-12-22T08:39:16Z</time>
      </trkpt>
      <trkpt lat="49.00269" lon="1.15991">
        <ele>138.2</ele>
        <time>2019-12-22T08:39:18Z</time>
      </trkpt>
      <trkpt lat="49.00261" lon="1.15998">
        <ele>138.4</ele>
        <time>2019-12-22T08:39:20Z</time>
      </trkpt>
      <trkpt lat="49.00252" lon="1.16001">
        <ele>138.6</ele>
        <time>2019-12-22T08:39:22Z</time>
      </trkpt>
      <trkpt lat="49.00242" lon="1.16003">
        <ele>138.8</ele>
        <time>2019-12-22T08:39:24Z</time>
      </trkpt>
      <trkpt lat="49.00234" lon="1.16011">
        <ele>139</ele>
        <time>2019-12-22T08:39:26Z</time>
      </trkpt>
      <trkpt lat="49.0023" lon="1.16023">
        <ele>139</ele>
        <time>2019-12-22T08:39:28Z</time>
      </trkpt>
      <trkpt lat="49.00224" lon="1.16059">
        <ele>138.6</ele>
        <time>2019-12-22T08:39:33Z</time>
      </trkpt>
      <trkpt lat="49.0022" lon="1.16081">
        <ele>138.4</ele>
        <time>2019-12-22T08:39:36Z</time>
      </trkpt>
      <trkpt lat="49.00218" lon="1.16089">
        <ele>138.4</ele>
        <time>2019-12-22T08:39:37Z</time>
      </trkpt>
      <trkpt lat="49.00215" lon="1.16104">
        <ele>138.2</ele>
        <time>2019-12-22T08:39:39Z</time>
      </trkpt>
      <trkpt lat="49.00212" lon="1.16127">
        <ele>138</ele>
        <time>2019-12-22T08:39:42Z</time>
      </trkpt>
      <trkpt lat="49.0021" lon="1.16135">
        <ele>137.8</ele>
        <time>2019-12-22T08:39:43Z</time>
      </trkpt>
      <trkpt lat="49.00209" lon="1.16142">
        <ele>137.8</ele>
        <time>2019-12-22T08:39:44Z</time>
      </trkpt>
      <trkpt lat="49.00208" lon="1.1615">
        <ele>137.8</ele>
        <time>2019-12-22T08:39:45Z</time>
      </trkpt>
      <trkpt lat="49.00206" lon="1.16163">
        <ele>137.8</ele>
        <time>2019-12-22T08:39:47Z</time>
      </trkpt>
      <trkpt lat="49.00206" lon="1.16169">
        <ele>137.6</ele>
        <time>2019-12-22T08:39:48Z</time>
      </trkpt>
      <trkpt lat="49.00209" lon="1.16181">
        <ele>137.6</ele>
        <time>2019-12-22T08:39:50Z</time>
      </trkpt>
      <trkpt lat="49.00216" lon="1.16187">
        <ele>137.4</ele>
        <time>2019-12-22T08:39:52Z</time>
      </trkpt>
      <trkpt lat="49.00252" lon="1.16195">
        <ele>137.2</ele>
        <time>2019-12-22T08:40:00Z</time>
      </trkpt>
      <trkpt lat="49.00274" lon="1.16203">
        <ele>137</ele>
        <time>2019-12-22T08:40:05Z</time>
      </trkpt>
      <trkpt lat="49.0033" lon="1.16214">
        <ele>137.6</ele>
        <time>2019-12-22T08:40:15Z</time>
      </trkpt>
      <trkpt lat="49.00336" lon="1.16215">
        <ele>137.8</ele>
        <time>2019-12-22T08:40:16Z</time>
      </trkpt>
      <trkpt lat="49.00345" lon="1.16219">
        <ele>137.8</ele>
        <time>2019-12-22T08:40:18Z</time>
      </trkpt>
      <trkpt lat="49.00351" lon="1.1623">
        <ele>137.8</ele>
        <time>2019-12-22T08:40:20Z</time>
      </trkpt>
      <trkpt lat="49.00356" lon="1.16249">
        <ele>137.4</ele>
        <time>2019-12-22T08:40:23Z</time>
      </trkpt>
      <trkpt lat="49.0036" lon="1.16264">
        <ele>137.2</ele>
        <time>2019-12-22T08:40:25Z</time>
      </trkpt>
      <trkpt lat="49.0037" lon="1.16309">
        <ele>136.2</ele>
        <time>2019-12-22T08:40:31Z</time>
      </trkpt>
      <trkpt lat="49.00377" lon="1.16333">
        <ele>136.4</ele>
        <time>2019-12-22T08:40:34Z</time>
      </trkpt>
      <trkpt lat="49.00381" lon="1.16356">
        <ele>136.6</ele>
        <time>2019-12-22T08:40:37Z</time>
      </trkpt>
      <trkpt lat="49.00387" lon="1.16367">
        <ele>136.6</ele>
        <time>2019-12-22T08:40:39Z</time>
      </trkpt>
      <trkpt lat="49.00395" lon="1.16369">
        <ele>136.8</ele>
        <time>2019-12-22T08:40:41Z</time>
      </trkpt>
      <trkpt lat="49.00415" lon="1.16361">
        <ele>137.2</ele>
        <time>2019-12-22T08:40:45Z</time>
      </trkpt>
      <trkpt lat="49.00468" lon="1.16344">
        <ele>137</ele>
        <time>2019-12-22T08:40:59Z</time>
      </trkpt>
      <trkpt lat="49.0048" lon="1.16339">
        <ele>137.2</ele>
        <time>2019-12-22T08:41:02Z</time>
      </trkpt>
      <trkpt lat="49.00483" lon="1.1634">
        <ele>137.2</ele>
        <time>2019-12-22T08:41:03Z</time>
      </trkpt>
      <trkpt lat="49.00482" lon="1.1635">
        <ele>137</ele>
        <time>2019-12-22T08:41:06Z</time>
      </trkpt>
      <trkpt lat="49.0047" lon="1.16372">
        <ele>137.4</ele>
        <time>2019-12-22T08:41:13Z</time>
      </trkpt>
      <trkpt lat="49.00467" lon="1.16402">
        <ele>137.8</ele>
        <time>2019-12-22T08:41:19Z</time>
      </trkpt>
      <trkpt lat="49.00472" lon="1.16429">
        <ele>137.6</ele>
        <time>2019-12-22T08:41:24Z</time>
      </trkpt>
      <trkpt lat="49.00482" lon="1.16473">
        <ele>136.6</ele>
        <time>2019-12-22T08:41:32Z</time>
      </trkpt>
      <trkpt lat="49.00486" lon="1.16494">
        <ele>136.8</ele>
        <time>2019-12-22T08:41:36Z</time>
      </trkpt>
      <trkpt lat="49.00489" lon="1.16509">
        <ele>137</ele>
        <time>2019-12-22T08:41:40Z</time>
      </trkpt>
      <trkpt lat="49.00516" lon="1.16561">
        <ele>137.8</ele>
        <time>2019-12-22T08:41:52Z</time>
      </trkpt>
      <trkpt lat="49.00523" lon="1.16582">
        <ele>137.6</ele>
        <time>2019-12-22T08:41:57Z</time>
      </trkpt>
      <trkpt lat="49.00526" lon="1.16592">
        <ele>137.6</ele>
        <time>2019-12-22T08:42:01Z</time>
      </trkpt>
      <trkpt lat="49.00472" lon="1.16617">
        <ele>137.2</ele>
        <time>2019-12-22T08:42:20Z</time>
      </trkpt>
      <trkpt lat="49.0046" lon="1.16619">
        <ele>137.6</ele>
        <time>2019-12-22T08:42:23Z</time>
      </trkpt>
      <trkpt lat="49.00403" lon="1.1663">
        <ele>139</ele>
        <time>2019-12-22T08:42:36Z</time>
      </trkpt>
      <trkpt lat="49.00372" lon="1.16641">
        <ele>139.8</ele>
        <time>2019-12-22T08:42:43Z</time>
      </trkpt>
      <trkpt lat="49.00346" lon="1.16651">
        <ele>140.2</ele>
        <time>2019-12-22T08:42:49Z</time>
      </trkpt>
      <trkpt lat="49.00334" lon="1.16659">
        <ele>140.6</ele>
        <time>2019-12-22T08:42:52Z</time>
      </trkpt>
      <trkpt lat="49.00283" lon="1.16686">
        <ele>142</ele>
        <time>2019-12-22T08:43:05Z</time>
      </trkpt>
      <trkpt lat="49.00231" lon="1.1671">
        <ele>142.2</ele>
        <time>2019-12-22T08:43:18Z</time>
      </trkpt>
      <trkpt lat="49.00177" lon="1.16734">
        <ele>141.8</ele>
        <time>2019-12-22T08:43:30Z</time>
      </trkpt>
      <trkpt lat="49.00141" lon="1.16749">
        <ele>141.2</ele>
        <time>2019-12-22T08:43:39Z</time>
      </trkpt>
      <trkpt lat="49.00135" lon="1.16755">
        <ele>141.2</ele>
        <time>2019-12-22T08:43:41Z</time>
      </trkpt>
      <trkpt lat="49.00127" lon="1.1676">
        <ele>140.8</ele>
        <time>2019-12-22T08:43:43Z</time>
      </trkpt>
      <trkpt lat="49.00093" lon="1.16776">
        <ele>139</ele>
        <time>2019-12-22T08:43:51Z</time>
      </trkpt>
      <trkpt lat="49.0006" lon="1.16792">
        <ele>137.6</ele>
        <time>2019-12-22T08:44:02Z</time>
      </trkpt>
      <trkpt lat="49.00055" lon="1.16799">
        <ele>137.4</ele>
        <time>2019-12-22T08:44:05Z</time>
      </trkpt>
      <trkpt lat="49.00055" lon="1.16802">
        <ele>137.4</ele>
        <time>2019-12-22T08:44:06Z</time>
      </trkpt>
      <trkpt lat="49.00058" lon="1.16817">
        <ele>137.2</ele>
        <time>2019-12-22T08:44:10Z</time>
      </trkpt>
      <trkpt lat="49.00065" lon="1.16834">
        <ele>136.8</ele>
        <time>2019-12-22T08:44:14Z</time>
      </trkpt>
      <trkpt lat="49.0008" lon="1.16856">
        <ele>136.4</ele>
        <time>2019-12-22T08:44:21Z</time>
      </trkpt>
      <trkpt lat="49.00089" lon="1.16875">
        <ele>136</ele>
        <time>2019-12-22T08:44:28Z</time>
      </trkpt>
      <trkpt lat="49.00105" lon="1.16903">
        <ele>136</ele>
        <time>2019-12-22T08:44:37Z</time>
      </trkpt>
      <trkpt lat="49.00145" lon="1.16964">
        <ele>136.8</ele>
        <time>2019-12-22T08:44:50Z</time>
      </trkpt>
      <trkpt lat="49.00172" lon="1.17021">
        <ele>137</ele>
        <time>2019-12-22T08:45:00Z</time>
      </trkpt>
      <trkpt lat="49.00188" lon="1.17056">
        <ele>137</ele>
        <time>2019-12-22T08:45:06Z</time>
      </trkpt>
      <trkpt lat="49.002" lon="1.17078">
        <ele>137</ele>
        <time>2019-12-22T08:45:10Z</time>
      </trkpt>
      <trkpt lat="49.00212" lon="1.17107">
        <ele>137</ele>
        <time>2019-12-22T08:45:15Z</time>
      </trkpt>
      <trkpt lat="49.00216" lon="1.17119">
        <ele>137</ele>
        <time>2019-12-22T08:45:17Z</time>
      </trkpt>
      <trkpt lat="49.00228" lon="1.17147">
        <ele>137</ele>
        <time>2019-12-22T08:45:23Z</time>
      </trkpt>
      <trkpt lat="49.00194" lon="1.17163">
        <ele>136.6</ele>
        <time>2019-12-22T08:45:36Z</time>
      </trkpt>
      <trkpt lat="49.00188" lon="1.17195">
        <ele>135.8</ele>
        <time>2019-12-22T08:45:47Z</time>
      </trkpt>
      <trkpt lat="49.00202" lon="1.1721">
        <ele>135.6</ele>
        <time>2019-12-22T08:45:53Z</time>
      </trkpt>
      <trkpt lat="49.00239" lon="1.17199">
        <ele>136.8</ele>
        <time>2019-12-22T08:46:05Z</time>
      </trkpt>
      <trkpt lat="49.00251" lon="1.17201">
        <ele>137</ele>
        <time>2019-12-22T08:46:11Z</time>
      </trkpt>
      <trkpt lat="49.00253" lon="1.17203">
        <ele>137</ele>
        <time>2019-12-22T08:46:12Z</time>
      </trkpt>
      <trkpt lat="49.00288" lon="1.1727">
        <ele>137</ele>
        <time>2019-12-22T08:46:29Z</time>
      </trkpt>
      <trkpt lat="49.00307" lon="1.1728">
        <ele>137</ele>
        <time>2019-12-22T08:46:36Z</time>
      </trkpt>
      <trkpt lat="49.00307" lon="1.17272">
        <ele>137</ele>
        <time>2019-12-22T08:46:39Z</time>
      </trkpt>
      <trkpt lat="49.00303" lon="1.17271">
        <ele>137</ele>
        <time>2019-12-22T08:46:42Z</time>
      </trkpt>
      <trkpt lat="49.00297" lon="1.17293">
        <ele>137</ele>
        <time>2019-12-22T08:46:47Z</time>
      </trkpt>
      <trkpt lat="49.00283" lon="1.17311">
        <ele>137</ele>
        <time>2019-12-22T08:46:51Z</time>
      </trkpt>
      <trkpt lat="49.00266" lon="1.1734">
        <ele>136.4</ele>
        <time>2019-12-22T08:46:56Z</time>
      </trkpt>
      <trkpt lat="49.00256" lon="1.17358">
        <ele>135.8</ele>
        <time>2019-12-22T08:46:59Z</time>
      </trkpt>
      <trkpt lat="49.00249" lon="1.17371">
        <ele>135.4</ele>
        <time>2019-12-22T08:47:01Z</time>
      </trkpt>
      <trkpt lat="49.00232" lon="1.17402">
        <ele>136</ele>
        <time>2019-12-22T08:47:06Z</time>
      </trkpt>
      <trkpt lat="49.00211" lon="1.17442">
        <ele>136.6</ele>
        <time>2019-12-22T08:47:12Z</time>
      </trkpt>
      <trkpt lat="49.00206" lon="1.17456">
        <ele>136.8</ele>
        <time>2019-12-22T08:47:14Z</time>
      </trkpt>
      <trkpt lat="49.00202" lon="1.17477">
        <ele>137</ele>
        <time>2019-12-22T08:47:18Z</time>
      </trkpt>
      <trkpt lat="49.00199" lon="1.17493">
        <ele>136.8</ele>
        <time>2019-12-22T08:47:22Z</time>
      </trkpt>
      <trkpt lat="49.00195" lon="1.17502">
        <ele>137</ele>
        <time>2019-12-22T08:47:24Z</time>
      </trkpt>
      <trkpt lat="49.00183" lon="1.17522">
        <ele>137</ele>
        <time>2019-12-22T08:47:28Z</time>
      </trkpt>
      <trkpt lat="49.00177" lon="1.17533">
        <ele>137</ele>
        <time>2019-12-22T08:47:30Z</time>
      </trkpt>
      <trkpt lat="49.00141" lon="1.17579">
        <ele>136.6</ele>
        <time>2019-12-22T08:47:38Z</time>
      </trkpt>
      <trkpt lat="49.00092" lon="1.1763">
        <ele>136</ele>
        <time>2019-12-22T08:47:48Z</time>
      </trkpt>
      <trkpt lat="49.00049" lon="1.17678">
        <ele>134</ele>
        <time>2019-12-22T08:47:58Z</time>
      </trkpt>
      <trkpt lat="49.00023" lon="1.17709">
        <ele>134</ele>
        <time>2019-12-22T08:48:05Z</time>
      </trkpt>
      <trkpt lat="49.00013" lon="1.17712">
        <ele>133.8</ele>
        <time>2019-12-22T08:48:07Z</time>
      </trkpt>
      <trkpt lat="49.00006" lon="1.17715">
        <ele>133.8</ele>
        <time>2019-12-22T08:48:09Z</time>
      </trkpt>
      <trkpt lat="49.00002" lon="1.17725">
        <ele>134</ele>
        <time>2019-12-22T08:48:11Z</time>
      </trkpt>
      <trkpt lat="48.99999" lon="1.17736">
        <ele>134.2</ele>
        <time>2019-12-22T08:48:13Z</time>
      </trkpt>
      <trkpt lat="49.00007" lon="1.17779">
        <ele>134.6</ele>
        <time>2019-12-22T08:48:26Z</time>
      </trkpt>
      <trkpt lat="49.00012" lon="1.17779">
        <ele>134.6</ele>
        <time>2019-12-22T08:48:29Z</time>
      </trkpt>
      <trkpt lat="49.00014" lon="1.17778">
        <ele>134.6</ele>
        <time>2019-12-22T08:48:30Z</time>
      </trkpt>
      <trkpt lat="49.00015" lon="1.17776">
        <ele>134.6</ele>
        <time>2019-12-22T08:48:31Z</time>
      </trkpt>
      <trkpt lat="49.00029" lon="1.17762">
        <ele>134.4</ele>
        <time>2019-12-22T08:48:39Z</time>
      </trkpt>
      <trkpt lat="49.00066" lon="1.1776">
        <ele>133.6</ele>
        <time>2019-12-22T08:48:54Z</time>
      </trkpt>
      <trkpt lat="49.00068" lon="1.17761">
        <ele>133.6</ele>
        <time>2019-12-22T08:48:55Z</time>
      </trkpt>
      <trkpt lat="49.00071" lon="1.17762">
        <ele>133.6</ele>
        <time>2019-12-22T08:48:56Z</time>
      </trkpt>
      <trkpt lat="49.00076" lon="1.17765">
        <ele>133.6</ele>
        <time>2019-12-22T08:48:58Z</time>
      </trkpt>
      <trkpt lat="49.00126" lon="1.17758">
        <ele>134</ele>
        <time>2019-12-22T08:49:18Z</time>
      </trkpt>
      <trkpt lat="49.00151" lon="1.17726">
        <ele>134.6</ele>
        <time>2019-12-22T08:49:29Z</time>
      </trkpt>
      <trkpt lat="49.00165" lon="1.17711">
        <ele>135</ele>
        <time>2019-12-22T08:49:36Z</time>
      </trkpt>
      <trkpt lat="49.00165" lon="1.1771">
        <ele>135.2</ele>
        <time>2019-12-22T08:49:38Z</time>
      </trkpt>
      <trkpt lat="49.00165" lon="1.1771">
        <ele>135.2</ele>
        <time>2019-12-22T08:49:41Z</time>
      </trkpt>
      <trkpt lat="49.00171" lon="1.17703">
        <ele>135.2</ele>
        <time>2019-12-22T08:49:58Z</time>
      </trkpt>
      <trkpt lat="49.00173" lon="1.17701">
        <ele>135.2</ele>
        <time>2019-12-22T08:49:59Z</time>
      </trkpt>
      <trkpt lat="49.00182" lon="1.17691">
        <ele>135.2</ele>
        <time>2019-12-22T08:50:05Z</time>
      </trkpt>
      <trkpt lat="49.00185" lon="1.17687">
        <ele>135</ele>
        <time>2019-12-22T08:50:08Z</time>
      </trkpt>
      <trkpt lat="49.00193" lon="1.17688">
        <ele>135</ele>
        <time>2019-12-22T08:50:12Z</time>
      </trkpt>
      <trkpt lat="49.00196" lon="1.17687">
        <ele>135</ele>
        <time>2019-12-22T08:50:13Z</time>
      </trkpt>
      <trkpt lat="49.00203" lon="1.17682">
        <ele>135</ele>
        <time>2019-12-22T08:50:16Z</time>
      </trkpt>
      <trkpt lat="49.00226" lon="1.17657">
        <ele>135</ele>
        <time>2019-12-22T08:50:27Z</time>
      </trkpt>
      <trkpt lat="49.00235" lon="1.17637">
        <ele>135.2</ele>
        <time>2019-12-22T08:50:32Z</time>
      </trkpt>
      <trkpt lat="49.00248" lon="1.17598">
        <ele>135.6</ele>
        <time>2019-12-22T08:50:41Z</time>
      </trkpt>
      <trkpt lat="49.00252" lon="1.17596">
        <ele>135.6</ele>
        <time>2019-12-22T08:50:43Z</time>
      </trkpt>
      <trkpt lat="49.00262" lon="1.17603">
        <ele>135.4</ele>
        <time>2019-12-22T08:50:49Z</time>
      </trkpt>
      <trkpt lat="49.00285" lon="1.17627">
        <ele>135.2</ele>
        <time>2019-12-22T08:50:59Z</time>
      </trkpt>
      <trkpt lat="49.00305" lon="1.17649">
        <ele>135.4</ele>
        <time>2019-12-22T08:51:09Z</time>
      </trkpt>
      <trkpt lat="49.00306" lon="1.17648">
        <ele>135.4</ele>
        <time>2019-12-22T08:51:10Z</time>
      </trkpt>
      <trkpt lat="49.00309" lon="1.17641">
        <ele>135.4</ele>
        <time>2019-12-22T08:51:13Z</time>
      </trkpt>
      <trkpt lat="49.00311" lon="1.17638">
        <ele>135.4</ele>
        <time>2019-12-22T08:51:29Z</time>
      </trkpt>
      <trkpt lat="49.00311" lon="1.17638">
        <ele>135.4</ele>
        <time>2019-12-22T08:51:32Z</time>
      </trkpt>
      <trkpt lat="49.00311" lon="1.17638">
        <ele>135.4</ele>
        <time>2019-12-22T08:51:35Z</time>
      </trkpt>
      <trkpt lat="49.00312" lon="1.17637">
        <ele>135.4</ele>
        <time>2019-12-22T08:51:42Z</time>
      </trkpt>
      <trkpt lat="49.0032" lon="1.17638">
        <ele>135.6</ele>
        <time>2019-12-22T08:51:46Z</time>
      </trkpt>
      <trkpt lat="49.00324" lon="1.17638">
        <ele>135.6</ele>
        <time>2019-12-22T08:51:48Z</time>
      </trkpt>
      <trkpt lat="49.00329" lon="1.17648">
        <ele>135.6</ele>
        <time>2019-12-22T08:51:51Z</time>
      </trkpt>
      <trkpt lat="49.00321" lon="1.1768">
        <ele>136</ele>
        <time>2019-12-22T08:51:58Z</time>
      </trkpt>
      <trkpt lat="49.00305" lon="1.17723">
        <ele>135.8</ele>
        <time>2019-12-22T08:52:08Z</time>
      </trkpt>
      <trkpt lat="49.00303" lon="1.17726">
        <ele>135.6</ele>
        <time>2019-12-22T08:52:09Z</time>
      </trkpt>
      <trkpt lat="49.00297" lon="1.17733">
        <ele>135.6</ele>
        <time>2019-12-22T08:52:11Z</time>
      </trkpt>
      <trkpt lat="49.00293" lon="1.1774">
        <ele>135.4</ele>
        <time>2019-12-22T08:52:13Z</time>
      </trkpt>
      <trkpt lat="49.00286" lon="1.1775">
        <ele>135.6</ele>
        <time>2019-12-22T08:52:16Z</time>
      </trkpt>
      <trkpt lat="49.00271" lon="1.17768">
        <ele>136</ele>
        <time>2019-12-22T08:52:21Z</time>
      </trkpt>
      <trkpt lat="49.00252" lon="1.17787">
        <ele>136.4</ele>
        <time>2019-12-22T08:52:27Z</time>
      </trkpt>
      <trkpt lat="49.00246" lon="1.17793">
        <ele>136.4</ele>
        <time>2019-12-22T08:52:29Z</time>
      </trkpt>
      <trkpt lat="49.00218" lon="1.17814">
        <ele>135.6</ele>
        <time>2019-12-22T08:52:38Z</time>
      </trkpt>
      <trkpt lat="49.00197" lon="1.17827">
        <ele>135.4</ele>
        <time>2019-12-22T08:52:45Z</time>
      </trkpt>
      <trkpt lat="49.00192" lon="1.1783">
        <ele>135.2</ele>
        <time>2019-12-22T08:52:54Z</time>
      </trkpt>
      <trkpt lat="49.00192" lon="1.17831">
        <ele>135.2</ele>
        <time>2019-12-22T08:53:01Z</time>
      </trkpt>
      <trkpt lat="49.00192" lon="1.17831">
        <ele>135.2</ele>
        <time>2019-12-22T08:53:02Z</time>
      </trkpt>
      <trkpt lat="49.00192" lon="1.17831">
        <ele>135.2</ele>
        <time>2019-12-22T08:53:04Z</time>
      </trkpt>
      <trkpt lat="49.00191" lon="1.17832">
        <ele>135.2</ele>
        <time>2019-12-22T08:53:05Z</time>
      </trkpt>
      <trkpt lat="49.0019" lon="1.17832">
        <ele>135.2</ele>
        <time>2019-12-22T08:53:06Z</time>
      </trkpt>
      <trkpt lat="49.00189" lon="1.17833">
        <ele>135.2</ele>
        <time>2019-12-22T08:53:07Z</time>
      </trkpt>
      <trkpt lat="49.00188" lon="1.17834">
        <ele>135.2</ele>
        <time>2019-12-22T08:53:08Z</time>
      </trkpt>
      <trkpt lat="49.0018" lon="1.1784">
        <ele>135</ele>
        <time>2019-12-22T08:53:12Z</time>
      </trkpt>
      <trkpt lat="49.00139" lon="1.17858">
        <ele>134.2</ele>
        <time>2019-12-22T08:53:24Z</time>
      </trkpt>
      <trkpt lat="49.00134" lon="1.17859">
        <ele>134.2</ele>
        <time>2019-12-22T08:53:25Z</time>
      </trkpt>
      <trkpt lat="49.00125" lon="1.17858">
        <ele>134</ele>
        <time>2019-12-22T08:53:27Z</time>
      </trkpt>
      <trkpt lat="49.00121" lon="1.17857">
        <ele>133.8</ele>
        <time>2019-12-22T08:53:28Z</time>
      </trkpt>
      <trkpt lat="49.001" lon="1.17857">
        <ele>133.8</ele>
        <time>2019-12-22T08:53:35Z</time>
      </trkpt>
      <trkpt lat="49.001" lon="1.17869">
        <ele>133.8</ele>
        <time>2019-12-22T08:53:39Z</time>
      </trkpt>
      <trkpt lat="49.00099" lon="1.17872">
        <ele>134</ele>
        <time>2019-12-22T08:53:42Z</time>
      </trkpt>
      <trkpt lat="49.00093" lon="1.17873">
        <ele>134.2</ele>
        <time>2019-12-22T08:53:45Z</time>
      </trkpt>
      <trkpt lat="49.00091" lon="1.17871">
        <ele>134.2</ele>
        <time>2019-12-22T08:53:46Z</time>
      </trkpt>
      <trkpt lat="49.00065" lon="1.17862">
        <ele>134.6</ele>
        <time>2019-12-22T08:53:54Z</time>
      </trkpt>
      <trkpt lat="49.00044" lon="1.17859">
        <ele>135.2</ele>
        <time>2019-12-22T08:53:59Z</time>
      </trkpt>
      <trkpt lat="49.00032" lon="1.17855">
        <ele>135.4</ele>
        <time>2019-12-22T08:54:02Z</time>
      </trkpt>
      <trkpt lat="48.99974" lon="1.17854">
        <ele>135.6</ele>
        <time>2019-12-22T08:54:15Z</time>
      </trkpt>
      <trkpt lat="48.9994" lon="1.17861">
        <ele>135.6</ele>
        <time>2019-12-22T08:54:24Z</time>
      </trkpt>
      <trkpt lat="48.99915" lon="1.17869">
        <ele>135.8</ele>
        <time>2019-12-22T08:54:30Z</time>
      </trkpt>
      <trkpt lat="48.99904" lon="1.17877">
        <ele>136</ele>
        <time>2019-12-22T08:54:33Z</time>
      </trkpt>
      <trkpt lat="48.9986" lon="1.17931">
        <ele>136.6</ele>
        <time>2019-12-22T08:54:48Z</time>
      </trkpt>
      <trkpt lat="48.99841" lon="1.17964">
        <ele>136</ele>
        <time>2019-12-22T08:54:56Z</time>
      </trkpt>
      <trkpt lat="48.99844" lon="1.17973">
        <ele>136</ele>
        <time>2019-12-22T08:54:58Z</time>
      </trkpt>
      <trkpt lat="48.99883" lon="1.18038">
        <ele>135</ele>
        <time>2019-12-22T08:55:12Z</time>
      </trkpt>
      <trkpt lat="48.99921" lon="1.181">
        <ele>135.2</ele>
        <time>2019-12-22T08:55:25Z</time>
      </trkpt>
      <trkpt lat="48.99957" lon="1.18155">
        <ele>135.8</ele>
        <time>2019-12-22T08:55:37Z</time>
      </trkpt>
      <trkpt lat="48.99989" lon="1.18216">
        <ele>135.8</ele>
        <time>2019-12-22T08:55:49Z</time>
      </trkpt>
      <trkpt lat="49.00009" lon="1.18249">
        <ele>135.2</ele>
        <time>2019-12-22T08:55:56Z</time>
      </trkpt>
      <trkpt lat="49.00048" lon="1.18306">
        <ele>134.6</ele>
        <time>2019-12-22T08:56:10Z</time>
      </trkpt>
      <trkpt lat="49.00059" lon="1.18311">
        <ele>134.8</ele>
        <time>2019-12-22T08:56:17Z</time>
      </trkpt>
      <trkpt lat="49.00064" lon="1.18311">
        <ele>135</ele>
        <time>2019-12-22T08:56:19Z</time>
      </trkpt>
      <trkpt lat="49.00096" lon="1.18336">
        <ele>135</ele>
        <time>2019-12-22T08:56:29Z</time>
      </trkpt>
      <trkpt lat="49.00109" lon="1.18351">
        <ele>135</ele>
        <time>2019-12-22T08:56:34Z</time>
      </trkpt>
      <trkpt lat="49.00116" lon="1.18356">
        <ele>135</ele>
        <time>2019-12-22T08:56:36Z</time>
      </trkpt>
      <trkpt lat="49.00137" lon="1.18371">
        <ele>135</ele>
        <time>2019-12-22T08:56:42Z</time>
      </trkpt>
      <trkpt lat="49.00153" lon="1.18387">
        <ele>134.8</ele>
        <time>2019-12-22T08:56:48Z</time>
      </trkpt>
      <trkpt lat="49.00207" lon="1.18403">
        <ele>135</ele>
        <time>2019-12-22T08:57:04Z</time>
      </trkpt>
      <trkpt lat="49.00261" lon="1.1843">
        <ele>135</ele>
        <time>2019-12-22T08:57:21Z</time>
      </trkpt>
      <trkpt lat="49.00315" lon="1.18446">
        <ele>134.2</ele>
        <time>2019-12-22T08:57:37Z</time>
      </trkpt>
      <trkpt lat="49.00368" lon="1.1846">
        <ele>134</ele>
        <time>2019-12-22T08:57:52Z</time>
      </trkpt>
      <trkpt lat="49.00424" lon="1.1846">
        <ele>134</ele>
        <time>2019-12-22T08:58:08Z</time>
      </trkpt>
      <trkpt lat="49.00477" lon="1.18455">
        <ele>132.2</ele>
        <time>2019-12-22T08:58:23Z</time>
      </trkpt>
      <trkpt lat="49.00512" lon="1.18451">
        <ele>131.4</ele>
        <time>2019-12-22T08:58:33Z</time>
      </trkpt>
      <trkpt lat="49.00567" lon="1.18437">
        <ele>133</ele>
        <time>2019-12-22T08:58:48Z</time>
      </trkpt>
      <trkpt lat="49.00616" lon="1.18424">
        <ele>132.8</ele>
        <time>2019-12-22T08:59:02Z</time>
      </trkpt>
      <trkpt lat="49.00623" lon="1.18423">
        <ele>133</ele>
        <time>2019-12-22T08:59:04Z</time>
      </trkpt>
      <trkpt lat="49.00631" lon="1.1842">
        <ele>133.2</ele>
        <time>2019-12-22T08:59:06Z</time>
      </trkpt>
      <trkpt lat="49.00635" lon="1.18419">
        <ele>133.2</ele>
        <time>2019-12-22T08:59:07Z</time>
      </trkpt>
      <trkpt lat="49.00639" lon="1.18419">
        <ele>133.4</ele>
        <time>2019-12-22T08:59:08Z</time>
      </trkpt>
      <trkpt lat="49.00652" lon="1.18415">
        <ele>133.6</ele>
        <time>2019-12-22T08:59:12Z</time>
      </trkpt>
      <trkpt lat="49.00661" lon="1.18412">
        <ele>133.6</ele>
        <time>2019-12-22T08:59:16Z</time>
      </trkpt>
      <trkpt lat="49.00688" lon="1.18379">
        <ele>134</ele>
        <time>2019-12-22T08:59:27Z</time>
      </trkpt>
      <trkpt lat="49.00697" lon="1.1837">
        <ele>133.8</ele>
        <time>2019-12-22T08:59:31Z</time>
      </trkpt>
      <trkpt lat="49.00708" lon="1.18365">
        <ele>133.6</ele>
        <time>2019-12-22T08:59:36Z</time>
      </trkpt>
      <trkpt lat="49.00718" lon="1.18354">
        <ele>133.4</ele>
        <time>2019-12-22T08:59:42Z</time>
      </trkpt>
      <trkpt lat="49.00721" lon="1.1835">
        <ele>133.4</ele>
        <time>2019-12-22T08:59:44Z</time>
      </trkpt>
      <trkpt lat="49.00723" lon="1.1835">
        <ele>133.2</ele>
        <time>2019-12-22T08:59:46Z</time>
      </trkpt>
      <trkpt lat="49.00724" lon="1.18352">
        <ele>133.2</ele>
        <time>2019-12-22T08:59:48Z</time>
      </trkpt>
      <trkpt lat="49.00724" lon="1.18355">
        <ele>133.2</ele>
        <time>2019-12-22T08:59:50Z</time>
      </trkpt>
      <trkpt lat="49.00726" lon="1.18361">
        <ele>133.2</ele>
        <time>2019-12-22T08:59:54Z</time>
      </trkpt>
      <trkpt lat="49.00723" lon="1.18369">
        <ele>133.2</ele>
        <time>2019-12-22T08:59:58Z</time>
      </trkpt>
      <trkpt lat="49.00726" lon="1.18404">
        <ele>133.4</ele>
        <time>2019-12-22T09:00:14Z</time>
      </trkpt>
      <trkpt lat="49.00729" lon="1.18406">
        <ele>133.6</ele>
        <time>2019-12-22T09:00:16Z</time>
      </trkpt>
      <trkpt lat="49.00733" lon="1.18406">
        <ele>133.4</ele>
        <time>2019-12-22T09:00:17Z</time>
      </trkpt>
      <trkpt lat="49.00742" lon="1.18407">
        <ele>133.2</ele>
        <time>2019-12-22T09:00:26Z</time>
      </trkpt>
      <trkpt lat="49.00742" lon="1.18408">
        <ele>133.2</ele>
        <time>2019-12-22T09:00:27Z</time>
      </trkpt>
      <trkpt lat="49.00742" lon="1.18407">
        <ele>133.2</ele>
        <time>2019-12-22T09:00:36Z</time>
      </trkpt>
      <trkpt lat="49.00742" lon="1.18407">
        <ele>133.2</ele>
        <time>2019-12-22T09:00:44Z</time>
      </trkpt>
      <trkpt lat="49.00742" lon="1.18407">
        <ele>133.2</ele>
        <time>2019-12-22T09:00:50Z</time>
      </trkpt>
      <trkpt lat="49.00742" lon="1.18407">
        <ele>133.2</ele>
        <time>2019-12-22T09:00:54Z</time>
      </trkpt>
      <trkpt lat="49.00742" lon="1.18407">
        <ele>133.2</ele>
        <time>2019-12-22T09:01:06Z</time>
      </trkpt>
      <trkpt lat="49.00742" lon="1.18407">
        <ele>133.2</ele>
        <time>2019-12-22T09:01:10Z</time>
      </trkpt>
      <trkpt lat="49.00742" lon="1.18407">
        <ele>133.2</ele>
        <time>2019-12-22T09:01:12Z</time>
      </trkpt>
      <trkpt lat="49.00742" lon="1.18407">
        <ele>133.2</ele>
        <time>2019-12-22T09:01:18Z</time>
      </trkpt>
      <trkpt lat="49.00742" lon="1.18407">
        <ele>133.2</ele>
        <time>2019-12-22T09:01:23Z</time>
      </trkpt>
      <trkpt lat="49.00742" lon="1.18407">
        <ele>133.2</ele>
        <time>2019-12-22T09:01:36Z</time>
      </trkpt>
      <trkpt lat="49.00742" lon="1.18407">
        <ele>133.2</ele>
        <time>2019-12-22T09:01:40Z</time>
      </trkpt>
      <trkpt lat="49.00742" lon="1.18407">
        <ele>133.2</ele>
        <time>2019-12-22T09:01:59Z</time>
      </trkpt>
      <trkpt lat="49.00742" lon="1.18407">
        <ele>133.2</ele>
        <time>2019-12-22T09:02:13Z</time>
      </trkpt>
      <trkpt lat="49.00742" lon="1.18407">
        <ele>133.2</ele>
        <time>2019-12-22T09:02:34Z</time>
      </trkpt>
      <trkpt lat="49.00742" lon="1.18407">
        <ele>133.2</ele>
        <time>2019-12-22T09:02:47Z</time>
      </trkpt>
      <trkpt lat="49.00743" lon="1.18408">
        <ele>133.2</ele>
        <time>2019-12-22T09:02:50Z</time>
      </trkpt>
      <trkpt lat="49.00744" lon="1.1841">
        <ele>133.2</ele>
        <time>2019-12-22T09:02:52Z</time>
      </trkpt>
      <trkpt lat="49.00745" lon="1.18411">
        <ele>133.4</ele>
        <time>2019-12-22T09:02:53Z</time>
      </trkpt>
      <trkpt lat="49.00747" lon="1.18413">
        <ele>133.4</ele>
        <time>2019-12-22T09:02:55Z</time>
      </trkpt>
      <trkpt lat="49.0075" lon="1.18415">
        <ele>133.4</ele>
        <time>2019-12-22T09:02:57Z</time>
      </trkpt>
      <trkpt lat="49.00754" lon="1.18419">
        <ele>133.4</ele>
        <time>2019-12-22T09:03:00Z</time>
      </trkpt>
      <trkpt lat="49.00769" lon="1.18427">
        <ele>133.4</ele>
        <time>2019-12-22T09:03:05Z</time>
      </trkpt>
      <trkpt lat="49.00773" lon="1.18432">
        <ele>133.4</ele>
        <time>2019-12-22T09:03:07Z</time>
      </trkpt>
      <trkpt lat="49.00775" lon="1.18433">
        <ele>133.4</ele>
        <time>2019-12-22T09:03:08Z</time>
      </trkpt>
      <trkpt lat="49.0079" lon="1.18433">
        <ele>133.8</ele>
        <time>2019-12-22T09:03:13Z</time>
      </trkpt>
      <trkpt lat="49.00818" lon="1.18433">
        <ele>134.4</ele>
        <time>2019-12-22T09:03:22Z</time>
      </trkpt>
      <trkpt lat="49.00835" lon="1.18431">
        <ele>134.8</ele>
        <time>2019-12-22T09:03:28Z</time>
      </trkpt>
      <trkpt lat="49.00839" lon="1.18439">
        <ele>135.2</ele>
        <time>2019-12-22T09:03:32Z</time>
      </trkpt>
      <trkpt lat="49.00878" lon="1.18502">
        <ele>136.2</ele>
        <time>2019-12-22T09:03:51Z</time>
      </trkpt>
      <trkpt lat="49.00908" lon="1.18518">
        <ele>134.6</ele>
        <time>2019-12-22T09:03:59Z</time>
      </trkpt>
      <trkpt lat="49.00913" lon="1.18519">
        <ele>134.2</ele>
        <time>2019-12-22T09:04:00Z</time>
      </trkpt>
      <trkpt lat="49.00931" lon="1.18526">
        <ele>133.2</ele>
        <time>2019-12-22T09:04:04Z</time>
      </trkpt>
      <trkpt lat="49.00975" lon="1.18533">
        <ele>131.8</ele>
        <time>2019-12-22T09:04:13Z</time>
      </trkpt>
      <trkpt lat="49.01006" lon="1.18557">
        <ele>131.4</ele>
        <time>2019-12-22T09:04:22Z</time>
      </trkpt>
      <trkpt lat="49.01019" lon="1.18606">
        <ele>132.2</ele>
        <time>2019-12-22T09:04:31Z</time>
      </trkpt>
      <trkpt lat="49.01031" lon="1.18634">
        <ele>132.6</ele>
        <time>2019-12-22T09:04:36Z</time>
      </trkpt>
      <trkpt lat="49.01063" lon="1.18701">
        <ele>131.6</ele>
        <time>2019-12-22T09:04:49Z</time>
      </trkpt>
      <trkpt lat="49.0108" lon="1.18712">
        <ele>131</ele>
        <time>2019-12-22T09:04:54Z</time>
      </trkpt>
      <trkpt lat="49.01094" lon="1.18712">
        <ele>130.6</ele>
        <time>2019-12-22T09:04:57Z</time>
      </trkpt>
      <trkpt lat="49.01102" lon="1.18715">
        <ele>130.2</ele>
        <time>2019-12-22T09:04:59Z</time>
      </trkpt>
      <trkpt lat="49.01121" lon="1.18727">
        <ele>129.8</ele>
        <time>2019-12-22T09:05:04Z</time>
      </trkpt>
      <trkpt lat="49.01127" lon="1.18736">
        <ele>129.8</ele>
        <time>2019-12-22T09:05:06Z</time>
      </trkpt>
      <trkpt lat="49.01135" lon="1.1876">
        <ele>130.4</ele>
        <time>2019-12-22T09:05:10Z</time>
      </trkpt>
      <trkpt lat="49.01146" lon="1.18811">
        <ele>131.6</ele>
        <time>2019-12-22T09:05:18Z</time>
      </trkpt>
      <trkpt lat="49.01153" lon="1.18828">
        <ele>131.2</ele>
        <time>2019-12-22T09:05:21Z</time>
      </trkpt>
      <trkpt lat="49.01183" lon="1.18866">
        <ele>130.4</ele>
        <time>2019-12-22T09:05:31Z</time>
      </trkpt>
      <trkpt lat="49.01216" lon="1.18884">
        <ele>130.6</ele>
        <time>2019-12-22T09:05:39Z</time>
      </trkpt>
      <trkpt lat="49.01249" lon="1.18886">
        <ele>131.4</ele>
        <time>2019-12-22T09:05:46Z</time>
      </trkpt>
      <trkpt lat="49.01259" lon="1.18882">
        <ele>131.8</ele>
        <time>2019-12-22T09:05:48Z</time>
      </trkpt>
      <trkpt lat="49.01268" lon="1.18873">
        <ele>131.8</ele>
        <time>2019-12-22T09:05:50Z</time>
      </trkpt>
      <trkpt lat="49.01273" lon="1.18856">
        <ele>131.6</ele>
        <time>2019-12-22T09:05:53Z</time>
      </trkpt>
      <trkpt lat="49.01267" lon="1.18805">
        <ele>130.8</ele>
        <time>2019-12-22T09:06:01Z</time>
      </trkpt>
      <trkpt lat="49.01265" lon="1.18791">
        <ele>130.8</ele>
        <time>2019-12-22T09:06:03Z</time>
      </trkpt>
      <trkpt lat="49.01265" lon="1.18778">
        <ele>131</ele>
        <time>2019-12-22T09:06:05Z</time>
      </trkpt>
      <trkpt lat="49.01264" lon="1.18733">
        <ele>131.4</ele>
        <time>2019-12-22T09:06:12Z</time>
      </trkpt>
      <trkpt lat="49.01259" lon="1.18708">
        <ele>131.2</ele>
        <time>2019-12-22T09:06:16Z</time>
      </trkpt>
      <trkpt lat="49.01256" lon="1.18697">
        <ele>131</ele>
        <time>2019-12-22T09:06:18Z</time>
      </trkpt>
      <trkpt lat="49.01249" lon="1.18688">
        <ele>130.6</ele>
        <time>2019-12-22T09:06:20Z</time>
      </trkpt>
      <trkpt lat="49.01238" lon="1.18678">
        <ele>130</ele>
        <time>2019-12-22T09:06:23Z</time>
      </trkpt>
      <trkpt lat="49.01201" lon="1.18656">
        <ele>128.4</ele>
        <time>2019-12-22T09:06:32Z</time>
      </trkpt>
      <trkpt lat="49.0118" lon="1.18636">
        <ele>128.6</ele>
        <time>2019-12-22T09:06:39Z</time>
      </trkpt>
      <trkpt lat="49.01196" lon="1.18622">
        <ele>129</ele>
        <time>2019-12-22T09:06:47Z</time>
      </trkpt>
      <trkpt lat="49.01205" lon="1.18602">
        <ele>130</ele>
        <time>2019-12-22T09:07:03Z</time>
      </trkpt>
      <trkpt lat="49.01204" lon="1.18604">
        <ele>129.8</ele>
        <time>2019-12-22T09:07:06Z</time>
      </trkpt>
      <trkpt lat="49.01206" lon="1.18607">
        <ele>129.8</ele>
        <time>2019-12-22T09:07:08Z</time>
      </trkpt>
      <trkpt lat="49.01225" lon="1.1862">
        <ele>130</ele>
        <time>2019-12-22T09:07:15Z</time>
      </trkpt>
      <trkpt lat="49.01251" lon="1.18639">
        <ele>130.4</ele>
        <time>2019-12-22T09:07:22Z</time>
      </trkpt>
      <trkpt lat="49.01298" lon="1.18681">
        <ele>131.8</ele>
        <time>2019-12-22T09:07:36Z</time>
      </trkpt>
      <trkpt lat="49.01311" lon="1.1869">
        <ele>132</ele>
        <time>2019-12-22T09:07:39Z</time>
      </trkpt>
      <trkpt lat="49.01345" lon="1.18714">
        <ele>132.6</ele>
        <time>2019-12-22T09:07:47Z</time>
      </trkpt>
      <trkpt lat="49.0135" lon="1.18726">
        <ele>132.8</ele>
        <time>2019-12-22T09:07:49Z</time>
      </trkpt>
      <trkpt lat="49.01357" lon="1.18742">
        <ele>133</ele>
        <time>2019-12-22T09:07:52Z</time>
      </trkpt>
      <trkpt lat="49.014" lon="1.18731">
        <ele>132.6</ele>
        <time>2019-12-22T09:08:06Z</time>
      </trkpt>
      <trkpt lat="49.01423" lon="1.18733">
        <ele>132.4</ele>
        <time>2019-12-22T09:08:11Z</time>
      </trkpt>
      <trkpt lat="49.01479" lon="1.18732">
        <ele>133.4</ele>
        <time>2019-12-22T09:08:24Z</time>
      </trkpt>
      <trkpt lat="49.01498" lon="1.18736">
        <ele>134</ele>
        <time>2019-12-22T09:08:28Z</time>
      </trkpt>
      <trkpt lat="49.01502" lon="1.18738">
        <ele>134.2</ele>
        <time>2019-12-22T09:08:29Z</time>
      </trkpt>
      <trkpt lat="49.01524" lon="1.18754">
        <ele>135</ele>
        <time>2019-12-22T09:08:35Z</time>
      </trkpt>
      <trkpt lat="49.01536" lon="1.18753">
        <ele>135.2</ele>
        <time>2019-12-22T09:08:37Z</time>
      </trkpt>
      <trkpt lat="49.01545" lon="1.18747">
        <ele>135.2</ele>
        <time>2019-12-22T09:08:39Z</time>
      </trkpt>
      <trkpt lat="49.01555" lon="1.18732">
        <ele>135</ele>
        <time>2019-12-22T09:08:42Z</time>
      </trkpt>
      <trkpt lat="49.01564" lon="1.18726">
        <ele>135</ele>
        <time>2019-12-22T09:08:44Z</time>
      </trkpt>
      <trkpt lat="49.01606" lon="1.18692">
        <ele>135</ele>
        <time>2019-12-22T09:08:54Z</time>
      </trkpt>
      <trkpt lat="49.01627" lon="1.18679">
        <ele>135</ele>
        <time>2019-12-22T09:08:59Z</time>
      </trkpt>
      <trkpt lat="49.01655" lon="1.18652">
        <ele>135.4</ele>
        <time>2019-12-22T09:09:07Z</time>
      </trkpt>
      <trkpt lat="49.01668" lon="1.18644">
        <ele>135.8</ele>
        <time>2019-12-22T09:09:10Z</time>
      </trkpt>
      <trkpt lat="49.01704" lon="1.18605">
        <ele>135.6</ele>
        <time>2019-12-22T09:09:21Z</time>
      </trkpt>
      <trkpt lat="49.01732" lon="1.1858">
        <ele>135.4</ele>
        <time>2019-12-22T09:09:27Z</time>
      </trkpt>
      <trkpt lat="49.0174" lon="1.18573">
        <ele>135.6</ele>
        <time>2019-12-22T09:09:29Z</time>
      </trkpt>
      <trkpt lat="49.01766" lon="1.18555">
        <ele>135.8</ele>
        <time>2019-12-22T09:09:35Z</time>
      </trkpt>
      <trkpt lat="49.01775" lon="1.18547">
        <ele>136</ele>
        <time>2019-12-22T09:09:37Z</time>
      </trkpt>
      <trkpt lat="49.01822" lon="1.18507">
        <ele>136.6</ele>
        <time>2019-12-22T09:09:49Z</time>
      </trkpt>
      <trkpt lat="49.01831" lon="1.18499">
        <ele>136.6</ele>
        <time>2019-12-22T09:09:51Z</time>
      </trkpt>
      <trkpt lat="49.01849" lon="1.1848">
        <ele>136.8</ele>
        <time>2019-12-22T09:09:55Z</time>
      </trkpt>
      <trkpt lat="49.01892" lon="1.18421">
        <ele>137</ele>
        <time>2019-12-22T09:10:06Z</time>
      </trkpt>
      <trkpt lat="49.01938" lon="1.18366">
        <ele>136</ele>
        <time>2019-12-22T09:10:17Z</time>
      </trkpt>
      <trkpt lat="49.01976" lon="1.18331">
        <ele>135.4</ele>
        <time>2019-12-22T09:10:25Z</time>
      </trkpt>
      <trkpt lat="49.02017" lon="1.1827">
        <ele>134.6</ele>
        <time>2019-12-22T09:10:35Z</time>
      </trkpt>
      <trkpt lat="49.02036" lon="1.1824">
        <ele>133.8</ele>
        <time>2019-12-22T09:10:40Z</time>
      </trkpt>
      <trkpt lat="49.02046" lon="1.18234">
        <ele>134.2</ele>
        <time>2019-12-22T09:10:42Z</time>
      </trkpt>
      <trkpt lat="49.02057" lon="1.18236">
        <ele>134.2</ele>
        <time>2019-12-22T09:10:44Z</time>
      </trkpt>
      <trkpt lat="49.02081" lon="1.18243">
        <ele>134.4</ele>
        <time>2019-12-22T09:10:49Z</time>
      </trkpt>
      <trkpt lat="49.02091" lon="1.18243">
        <ele>134.4</ele>
        <time>2019-12-22T09:10:51Z</time>
      </trkpt>
      <trkpt lat="49.02098" lon="1.1824">
        <ele>134.6</ele>
        <time>2019-12-22T09:10:53Z</time>
      </trkpt>
      <trkpt lat="49.02123" lon="1.18227">
        <ele>134.6</ele>
        <time>2019-12-22T09:10:59Z</time>
      </trkpt>
      <trkpt lat="49.02132" lon="1.18222">
        <ele>134.4</ele>
        <time>2019-12-22T09:11:01Z</time>
      </trkpt>
      <trkpt lat="49.02152" lon="1.18208">
        <ele>133.8</ele>
        <time>2019-12-22T09:11:05Z</time>
      </trkpt>
      <trkpt lat="49.02161" lon="1.18201">
        <ele>133.4</ele>
        <time>2019-12-22T09:11:07Z</time>
      </trkpt>
      <trkpt lat="49.02171" lon="1.18198">
        <ele>133.2</ele>
        <time>2019-12-22T09:11:09Z</time>
      </trkpt>
      <trkpt lat="49.02186" lon="1.18205">
        <ele>133</ele>
        <time>2019-12-22T09:11:13Z</time>
      </trkpt>
      <trkpt lat="49.02198" lon="1.18236">
        <ele>133</ele>
        <time>2019-12-22T09:11:18Z</time>
      </trkpt>
      <trkpt lat="49.02204" lon="1.18295">
        <ele>132.2</ele>
        <time>2019-12-22T09:11:25Z</time>
      </trkpt>
      <trkpt lat="49.02204" lon="1.18379">
        <ele>132.6</ele>
        <time>2019-12-22T09:11:34Z</time>
      </trkpt>
      <trkpt lat="49.02204" lon="1.18424">
        <ele>133.6</ele>
        <time>2019-12-22T09:11:39Z</time>
      </trkpt>
      <trkpt lat="49.02205" lon="1.18433">
        <ele>133.8</ele>
        <time>2019-12-22T09:11:40Z</time>
      </trkpt>
      <trkpt lat="49.02207" lon="1.18468">
        <ele>134.6</ele>
        <time>2019-12-22T09:11:44Z</time>
      </trkpt>
      <trkpt lat="49.02205" lon="1.1853">
        <ele>134.6</ele>
        <time>2019-12-22T09:11:51Z</time>
      </trkpt>
      <trkpt lat="49.02206" lon="1.18547">
        <ele>134.6</ele>
        <time>2019-12-22T09:11:53Z</time>
      </trkpt>
      <trkpt lat="49.02206" lon="1.18562">
        <ele>134.6</ele>
        <time>2019-12-22T09:11:55Z</time>
      </trkpt>
      <trkpt lat="49.0221" lon="1.18575">
        <ele>134.8</ele>
        <time>2019-12-22T09:11:57Z</time>
      </trkpt>
      <trkpt lat="49.02218" lon="1.18581">
        <ele>134.6</ele>
        <time>2019-12-22T09:11:59Z</time>
      </trkpt>
      <trkpt lat="49.02229" lon="1.18578">
        <ele>134.4</ele>
        <time>2019-12-22T09:12:01Z</time>
      </trkpt>
      <trkpt lat="49.02269" lon="1.18563">
        <ele>133.2</ele>
        <time>2019-12-22T09:12:07Z</time>
      </trkpt>
      <trkpt lat="49.02293" lon="1.18556">
        <ele>132.8</ele>
        <time>2019-12-22T09:12:11Z</time>
      </trkpt>
      <trkpt lat="49.02303" lon="1.18551">
        <ele>132.8</ele>
        <time>2019-12-22T09:12:13Z</time>
      </trkpt>
      <trkpt lat="49.02358" lon="1.18539">
        <ele>132.2</ele>
        <time>2019-12-22T09:12:24Z</time>
      </trkpt>
      <trkpt lat="49.02418" lon="1.18529">
        <ele>130.8</ele>
        <time>2019-12-22T09:12:34Z</time>
      </trkpt>
      <trkpt lat="49.02424" lon="1.18529">
        <ele>130.6</ele>
        <time>2019-12-22T09:12:35Z</time>
      </trkpt>
      <trkpt lat="49.02464" lon="1.1853">
        <ele>130.2</ele>
        <time>2019-12-22T09:12:42Z</time>
      </trkpt>
      <trkpt lat="49.02518" lon="1.18529">
        <ele>130.4</ele>
        <time>2019-12-22T09:12:52Z</time>
      </trkpt>
      <trkpt lat="49.02576" lon="1.18526">
        <ele>129.6</ele>
        <time>2019-12-22T09:13:02Z</time>
      </trkpt>
      <trkpt lat="49.02595" lon="1.18525">
        <ele>129.6</ele>
        <time>2019-12-22T09:13:05Z</time>
      </trkpt>
      <trkpt lat="49.02618" lon="1.18523">
        <ele>129.4</ele>
        <time>2019-12-22T09:13:09Z</time>
      </trkpt>
      <trkpt lat="49.02652" lon="1.18512">
        <ele>128.8</ele>
        <time>2019-12-22T09:13:17Z</time>
      </trkpt>
      <trkpt lat="49.02709" lon="1.18498">
        <ele>127.2</ele>
        <time>2019-12-22T09:13:28Z</time>
      </trkpt>
      <trkpt lat="49.0272" lon="1.18495">
        <ele>127.4</ele>
        <time>2019-12-22T09:13:30Z</time>
      </trkpt>
      <trkpt lat="49.02725" lon="1.18494">
        <ele>127.6</ele>
        <time>2019-12-22T09:13:31Z</time>
      </trkpt>
      <trkpt lat="49.02731" lon="1.18493">
        <ele>127.8</ele>
        <time>2019-12-22T09:13:32Z</time>
      </trkpt>
      <trkpt lat="49.02758" lon="1.18489">
        <ele>128.4</ele>
        <time>2019-12-22T09:13:38Z</time>
      </trkpt>
      <trkpt lat="49.02762" lon="1.18489">
        <ele>128.6</ele>
        <time>2019-12-22T09:13:39Z</time>
      </trkpt>
      <trkpt lat="49.0278" lon="1.18489">
        <ele>128.8</ele>
        <time>2019-12-22T09:13:43Z</time>
      </trkpt>
      <trkpt lat="49.02795" lon="1.18485">
        <ele>128.8</ele>
        <time>2019-12-22T09:13:46Z</time>
      </trkpt>
      <trkpt lat="49.02806" lon="1.18481">
        <ele>129</ele>
        <time>2019-12-22T09:13:48Z</time>
      </trkpt>
      <trkpt lat="49.02816" lon="1.18476">
        <ele>129</ele>
        <time>2019-12-22T09:13:50Z</time>
      </trkpt>
      <trkpt lat="49.02823" lon="1.18468">
        <ele>129</ele>
        <time>2019-12-22T09:13:52Z</time>
      </trkpt>
      <trkpt lat="49.02827" lon="1.18456">
        <ele>129</ele>
        <time>2019-12-22T09:13:54Z</time>
      </trkpt>
      <trkpt lat="49.02834" lon="1.18439">
        <ele>129</ele>
        <time>2019-12-22T09:13:57Z</time>
      </trkpt>
      <trkpt lat="49.02841" lon="1.18424">
        <ele>129</ele>
        <time>2019-12-22T09:14:01Z</time>
      </trkpt>
      <trkpt lat="49.02854" lon="1.18413">
        <ele>129</ele>
        <time>2019-12-22T09:14:06Z</time>
      </trkpt>
      <trkpt lat="49.02854" lon="1.18408">
        <ele>129</ele>
        <time>2019-12-22T09:14:07Z</time>
      </trkpt>
      <trkpt lat="49.02851" lon="1.18387">
        <ele>129</ele>
        <time>2019-12-22T09:14:11Z</time>
      </trkpt>
      <trkpt lat="49.02857" lon="1.18366">
        <ele>129</ele>
        <time>2019-12-22T09:14:15Z</time>
      </trkpt>
      <trkpt lat="49.02863" lon="1.18359">
        <ele>129</ele>
        <time>2019-12-22T09:14:17Z</time>
      </trkpt>
      <trkpt lat="49.02902" lon="1.18328">
        <ele>130.2</ele>
        <time>2019-12-22T09:14:30Z</time>
      </trkpt>
      <trkpt lat="49.02932" lon="1.18306">
        <ele>131.8</ele>
        <time>2019-12-22T09:14:38Z</time>
      </trkpt>
      <trkpt lat="49.02961" lon="1.1829">
        <ele>132.2</ele>
        <time>2019-12-22T09:14:46Z</time>
      </trkpt>
      <trkpt lat="49.03" lon="1.18262">
        <ele>132.6</ele>
        <time>2019-12-22T09:14:59Z</time>
      </trkpt>
      <trkpt lat="49.03007" lon="1.18254">
        <ele>132.6</ele>
        <time>2019-12-22T09:15:01Z</time>
      </trkpt>
      <trkpt lat="49.03018" lon="1.18243">
        <ele>132.8</ele>
        <time>2019-12-22T09:15:04Z</time>
      </trkpt>
      <trkpt lat="49.03055" lon="1.18228">
        <ele>133.4</ele>
        <time>2019-12-22T09:15:14Z</time>
      </trkpt>
      <trkpt lat="49.03069" lon="1.18223">
        <ele>133.4</ele>
        <time>2019-12-22T09:15:17Z</time>
      </trkpt>
      <trkpt lat="49.03096" lon="1.18207">
        <ele>133.2</ele>
        <time>2019-12-22T09:15:23Z</time>
      </trkpt>
      <trkpt lat="49.0311" lon="1.18202">
        <ele>132.8</ele>
        <time>2019-12-22T09:15:26Z</time>
      </trkpt>
      <trkpt lat="49.03119" lon="1.18198">
        <ele>132.2</ele>
        <time>2019-12-22T09:15:28Z</time>
      </trkpt>
      <trkpt lat="49.03136" lon="1.18187">
        <ele>131.4</ele>
        <time>2019-12-22T09:15:32Z</time>
      </trkpt>
      <trkpt lat="49.03183" lon="1.18166">
        <ele>132.4</ele>
        <time>2019-12-22T09:15:42Z</time>
      </trkpt>
      <trkpt lat="49.03196" lon="1.18132">
        <ele>132.8</ele>
        <time>2019-12-22T09:15:49Z</time>
      </trkpt>
      <trkpt lat="49.03169" lon="1.18055">
        <ele>131.6</ele>
        <time>2019-12-22T09:16:00Z</time>
      </trkpt>
      <trkpt lat="49.03168" lon="1.18043">
        <ele>132</ele>
        <time>2019-12-22T09:16:02Z</time>
      </trkpt>
      <trkpt lat="49.03172" lon="1.18036">
        <ele>132.4</ele>
        <time>2019-12-22T09:16:04Z</time>
      </trkpt>
      <trkpt lat="49.03212" lon="1.18003">
        <ele>133.6</ele>
        <time>2019-12-22T09:16:15Z</time>
      </trkpt>
      <trkpt lat="49.03236" lon="1.17992">
        <ele>135</ele>
        <time>2019-12-22T09:16:21Z</time>
      </trkpt>
      <trkpt lat="49.03262" lon="1.17974">
        <ele>136.4</ele>
        <time>2019-12-22T09:16:28Z</time>
      </trkpt>
      <trkpt lat="49.03266" lon="1.17971">
        <ele>136.6</ele>
        <time>2019-12-22T09:16:29Z</time>
      </trkpt>
      <trkpt lat="49.03278" lon="1.17963">
        <ele>137</ele>
        <time>2019-12-22T09:16:32Z</time>
      </trkpt>
      <trkpt lat="49.03329" lon="1.1793">
        <ele>136.8</ele>
        <time>2019-12-22T09:16:45Z</time>
      </trkpt>
      <trkpt lat="49.03352" lon="1.17917">
        <ele>137.4</ele>
        <time>2019-12-22T09:16:52Z</time>
      </trkpt>
      <trkpt lat="49.03385" lon="1.17851">
        <ele>136.4</ele>
        <time>2019-12-22T09:17:07Z</time>
      </trkpt>
      <trkpt lat="49.03395" lon="1.17831">
        <ele>136.6</ele>
        <time>2019-12-22T09:17:11Z</time>
      </trkpt>
      <trkpt lat="49.03407" lon="1.17807">
        <ele>137.6</ele>
        <time>2019-12-22T09:17:16Z</time>
      </trkpt>
      <trkpt lat="49.0344" lon="1.17778">
        <ele>137.4</ele>
        <time>2019-12-22T09:17:27Z</time>
      </trkpt>
      <trkpt lat="49.03441" lon="1.17775">
        <ele>137.2</ele>
        <time>2019-12-22T09:17:28Z</time>
      </trkpt>
      <trkpt lat="49.03441" lon="1.1777">
        <ele>137</ele>
        <time>2019-12-22T09:17:29Z</time>
      </trkpt>
      <trkpt lat="49.03443" lon="1.1769">
        <ele>133.6</ele>
        <time>2019-12-22T09:18:05Z</time>
      </trkpt>
      <trkpt lat="49.03438" lon="1.17684">
        <ele>133.6</ele>
        <time>2019-12-22T09:18:08Z</time>
      </trkpt>
      <trkpt lat="49.03433" lon="1.17683">
        <ele>133.8</ele>
        <time>2019-12-22T09:18:10Z</time>
      </trkpt>
      <trkpt lat="49.03426" lon="1.17688">
        <ele>134.2</ele>
        <time>2019-12-22T09:18:13Z</time>
      </trkpt>
      <trkpt lat="49.03418" lon="1.17688">
        <ele>134.4</ele>
        <time>2019-12-22T09:18:18Z</time>
      </trkpt>
      <trkpt lat="49.03403" lon="1.17696">
        <ele>135</ele>
        <time>2019-12-22T09:18:25Z</time>
      </trkpt>
      <trkpt lat="49.03399" lon="1.17692">
        <ele>135</ele>
        <time>2019-12-22T09:18:28Z</time>
      </trkpt>
      <trkpt lat="49.03397" lon="1.17688">
        <ele>135</ele>
        <time>2019-12-22T09:18:30Z</time>
      </trkpt>
      <trkpt lat="49.03386" lon="1.17679">
        <ele>135</ele>
        <time>2019-12-22T09:18:59Z</time>
      </trkpt>
      <trkpt lat="49.03385" lon="1.17675">
        <ele>135</ele>
        <time>2019-12-22T09:19:32Z</time>
      </trkpt>
      <trkpt lat="49.03385" lon="1.17674">
        <ele>135</ele>
        <time>2019-12-22T09:19:40Z</time>
      </trkpt>
      <trkpt lat="49.03385" lon="1.17675">
        <ele>135</ele>
        <time>2019-12-22T09:19:45Z</time>
      </trkpt>
      <trkpt lat="49.03384" lon="1.17676">
        <ele>135</ele>
        <time>2019-12-22T09:19:50Z</time>
      </trkpt>
      <trkpt lat="49.03384" lon="1.17676">
        <ele>135</ele>
        <time>2019-12-22T09:19:51Z</time>
      </trkpt>
      <trkpt lat="49.03384" lon="1.17677">
        <ele>135</ele>
        <time>2019-12-22T09:19:52Z</time>
      </trkpt>
      <trkpt lat="49.03384" lon="1.17677">
        <ele>135</ele>
        <time>2019-12-22T09:19:54Z</time>
      </trkpt>
      <trkpt lat="49.03382" lon="1.17671">
        <ele>135</ele>
        <time>2019-12-22T09:20:06Z</time>
      </trkpt>
      <trkpt lat="49.03381" lon="1.17671">
        <ele>135</ele>
        <time>2019-12-22T09:20:26Z</time>
      </trkpt>
      <trkpt lat="49.03379" lon="1.17672">
        <ele>135</ele>
        <time>2019-12-22T09:20:33Z</time>
      </trkpt>
      <trkpt lat="49.03382" lon="1.17674">
        <ele>135</ele>
        <time>2019-12-22T09:21:08Z</time>
      </trkpt>
      <trkpt lat="49.03382" lon="1.17674">
        <ele>135</ele>
        <time>2019-12-22T09:21:23Z</time>
      </trkpt>
      <trkpt lat="49.03382" lon="1.17675">
        <ele>135</ele>
        <time>2019-12-22T09:21:28Z</time>
      </trkpt>
      <trkpt lat="49.03381" lon="1.17675">
        <ele>134.8</ele>
        <time>2019-12-22T09:21:40Z</time>
      </trkpt>
      <trkpt lat="49.03382" lon="1.17674">
        <ele>135</ele>
        <time>2019-12-22T09:22:01Z</time>
      </trkpt>
      <trkpt lat="49.03382" lon="1.17674">
        <ele>135</ele>
        <time>2019-12-22T09:22:02Z</time>
      </trkpt>
      <trkpt lat="49.03382" lon="1.17674">
        <ele>135</ele>
        <time>2019-12-22T09:22:06Z</time>
      </trkpt>
      <trkpt lat="49.03383" lon="1.17674">
        <ele>135</ele>
        <time>2019-12-22T09:22:09Z</time>
      </trkpt>
      <trkpt lat="49.03383" lon="1.17674">
        <ele>135</ele>
        <time>2019-12-22T09:22:16Z</time>
      </trkpt>
      <trkpt lat="49.03382" lon="1.17674">
        <ele>135</ele>
        <time>2019-12-22T09:22:37Z</time>
      </trkpt>
      <trkpt lat="49.03383" lon="1.17675">
        <ele>135</ele>
        <time>2019-12-22T09:22:54Z</time>
      </trkpt>
      <trkpt lat="49.03382" lon="1.17673">
        <ele>135</ele>
        <time>2019-12-22T09:23:09Z</time>
      </trkpt>
      <trkpt lat="49.03382" lon="1.17674">
        <ele>135</ele>
        <time>2019-12-22T09:23:10Z</time>
      </trkpt>
      <trkpt lat="49.03382" lon="1.17674">
        <ele>135</ele>
        <time>2019-12-22T09:23:12Z</time>
      </trkpt>
      <trkpt lat="49.03382" lon="1.17674">
        <ele>135</ele>
        <time>2019-12-22T09:23:14Z</time>
      </trkpt>
      <trkpt lat="49.03382" lon="1.17674">
        <ele>135</ele>
        <time>2019-12-22T09:23:15Z</time>
      </trkpt>
      <trkpt lat="49.03383" lon="1.17676">
        <ele>135</ele>
        <time>2019-12-22T09:23:22Z</time>
      </trkpt>
      <trkpt lat="49.03384" lon="1.17677">
        <ele>135</ele>
        <time>2019-12-22T09:23:47Z</time>
      </trkpt>
      <trkpt lat="49.03384" lon="1.17678">
        <ele>134.8</ele>
        <time>2019-12-22T09:23:57Z</time>
      </trkpt>
      <trkpt lat="49.03385" lon="1.17678">
        <ele>135</ele>
        <time>2019-12-22T09:24:07Z</time>
      </trkpt>
      <trkpt lat="49.03385" lon="1.17677">
        <ele>135</ele>
        <time>2019-12-22T09:24:14Z</time>
      </trkpt>
      <trkpt lat="49.03384" lon="1.17678">
        <ele>135</ele>
        <time>2019-12-22T09:24:36Z</time>
      </trkpt>
      <trkpt lat="49.03384" lon="1.17677">
        <ele>135</ele>
        <time>2019-12-22T09:24:40Z</time>
      </trkpt>
      <trkpt lat="49.03381" lon="1.1767">
        <ele>135</ele>
        <time>2019-12-22T09:24:59Z</time>
      </trkpt>
      <trkpt lat="49.03364" lon="1.17657">
        <ele>135</ele>
        <time>2019-12-22T09:25:10Z</time>
      </trkpt>
      <trkpt lat="49.03336" lon="1.17599">
        <ele>133.6</ele>
        <time>2019-12-22T09:25:28Z</time>
      </trkpt>
      <trkpt lat="49.0333" lon="1.17585">
        <ele>133.2</ele>
        <time>2019-12-22T09:25:32Z</time>
      </trkpt>
      <trkpt lat="49.03326" lon="1.17577">
        <ele>133</ele>
        <time>2019-12-22T09:25:34Z</time>
      </trkpt>
      <trkpt lat="49.03319" lon="1.17559">
        <ele>132.6</ele>
        <time>2019-12-22T09:25:38Z</time>
      </trkpt>
      <trkpt lat="49.03322" lon="1.17481">
        <ele>132.6</ele>
        <time>2019-12-22T09:25:55Z</time>
      </trkpt>
      <trkpt lat="49.03297" lon="1.17407">
        <ele>131.6</ele>
        <time>2019-12-22T09:26:09Z</time>
      </trkpt>
      <trkpt lat="49.0327" lon="1.17383">
        <ele>131.2</ele>
        <time>2019-12-22T09:26:17Z</time>
      </trkpt>
      <trkpt lat="49.03267" lon="1.17378">
        <ele>131</ele>
        <time>2019-12-22T09:26:18Z</time>
      </trkpt>
      <trkpt lat="49.03264" lon="1.17375">
        <ele>130.8</ele>
        <time>2019-12-22T09:26:19Z</time>
      </trkpt>
      <trkpt lat="49.03258" lon="1.17369">
        <ele>130.4</ele>
        <time>2019-12-22T09:26:21Z</time>
      </trkpt>
      <trkpt lat="49.03255" lon="1.17361">
        <ele>130</ele>
        <time>2019-12-22T09:26:23Z</time>
      </trkpt>
      <trkpt lat="49.03258" lon="1.17352">
        <ele>129.4</ele>
        <time>2019-12-22T09:26:26Z</time>
      </trkpt>
      <trkpt lat="49.03285" lon="1.17349">
        <ele>129</ele>
        <time>2019-12-22T09:26:35Z</time>
      </trkpt>
      <trkpt lat="49.03313" lon="1.17338">
        <ele>127.4</ele>
        <time>2019-12-22T09:26:41Z</time>
      </trkpt>
      <trkpt lat="49.03333" lon="1.17322">
        <ele>126.2</ele>
        <time>2019-12-22T09:26:45Z</time>
      </trkpt>
      <trkpt lat="49.03341" lon="1.1732">
        <ele>125.8</ele>
        <time>2019-12-22T09:26:47Z</time>
      </trkpt>
      <trkpt lat="49.03348" lon="1.17325">
        <ele>125.8</ele>
        <time>2019-12-22T09:26:49Z</time>
      </trkpt>
      <trkpt lat="49.03387" lon="1.17384">
        <ele>127.4</ele>
        <time>2019-12-22T09:27:02Z</time>
      </trkpt>
      <trkpt lat="49.03417" lon="1.17422">
        <ele>127.2</ele>
        <time>2019-12-22T09:27:12Z</time>
      </trkpt>
      <trkpt lat="49.03426" lon="1.17451">
        <ele>127.2</ele>
        <time>2019-12-22T09:27:18Z</time>
      </trkpt>
      <trkpt lat="49.03429" lon="1.17461">
        <ele>127.2</ele>
        <time>2019-12-22T09:27:20Z</time>
      </trkpt>
      <trkpt lat="49.0343" lon="1.17464">
        <ele>127.2</ele>
        <time>2019-12-22T09:27:21Z</time>
      </trkpt>
      <trkpt lat="49.03431" lon="1.17467">
        <ele>127.2</ele>
        <time>2019-12-22T09:27:22Z</time>
      </trkpt>
      <trkpt lat="49.03433" lon="1.17467">
        <ele>127.2</ele>
        <time>2019-12-22T09:27:23Z</time>
      </trkpt>
      <trkpt lat="49.03435" lon="1.17466">
        <ele>127.2</ele>
        <time>2019-12-22T09:27:24Z</time>
      </trkpt>
      <trkpt lat="49.03441" lon="1.17462">
        <ele>126.8</ele>
        <time>2019-12-22T09:27:27Z</time>
      </trkpt>
      <trkpt lat="49.03444" lon="1.17458">
        <ele>126.8</ele>
        <time>2019-12-22T09:27:29Z</time>
      </trkpt>
      <trkpt lat="49.03454" lon="1.17451">
        <ele>127.2</ele>
        <time>2019-12-22T09:27:33Z</time>
      </trkpt>
      <trkpt lat="49.03463" lon="1.17447">
        <ele>127.6</ele>
        <time>2019-12-22T09:27:36Z</time>
      </trkpt>
      <trkpt lat="49.03465" lon="1.17446">
        <ele>127.8</ele>
        <time>2019-12-22T09:27:37Z</time>
      </trkpt>
      <trkpt lat="49.03466" lon="1.17443">
        <ele>127.8</ele>
        <time>2019-12-22T09:27:38Z</time>
      </trkpt>
      <trkpt lat="49.03455" lon="1.17403">
        <ele>126.4</ele>
        <time>2019-12-22T09:27:45Z</time>
      </trkpt>
      <trkpt lat="49.03447" lon="1.1738">
        <ele>125.4</ele>
        <time>2019-12-22T09:27:50Z</time>
      </trkpt>
      <trkpt lat="49.03441" lon="1.17376">
        <ele>125.4</ele>
        <time>2019-12-22T09:27:52Z</time>
      </trkpt>
      <trkpt lat="49.03436" lon="1.17366">
        <ele>125.2</ele>
        <time>2019-12-22T09:27:54Z</time>
      </trkpt>
      <trkpt lat="49.03425" lon="1.17336">
        <ele>124.4</ele>
        <time>2019-12-22T09:27:59Z</time>
      </trkpt>
      <trkpt lat="49.03421" lon="1.17326">
        <ele>124</ele>
        <time>2019-12-22T09:28:01Z</time>
      </trkpt>
      <trkpt lat="49.03419" lon="1.17322">
        <ele>124</ele>
        <time>2019-12-22T09:28:02Z</time>
      </trkpt>
      <trkpt lat="49.03417" lon="1.17318">
        <ele>123.8</ele>
        <time>2019-12-22T09:28:03Z</time>
      </trkpt>
      <trkpt lat="49.03416" lon="1.17313">
        <ele>123.6</ele>
        <time>2019-12-22T09:28:04Z</time>
      </trkpt>
      <trkpt lat="49.03415" lon="1.17307">
        <ele>123.4</ele>
        <time>2019-12-22T09:28:05Z</time>
      </trkpt>
      <trkpt lat="49.03418" lon="1.17297">
        <ele>122.8</ele>
        <time>2019-12-22T09:28:07Z</time>
      </trkpt>
      <trkpt lat="49.03436" lon="1.17273">
        <ele>122.4</ele>
        <time>2019-12-22T09:28:13Z</time>
      </trkpt>
      <trkpt lat="49.0346" lon="1.17243">
        <ele>122.2</ele>
        <time>2019-12-22T09:28:22Z</time>
      </trkpt>
      <trkpt lat="49.03491" lon="1.17193">
        <ele>122.6</ele>
        <time>2019-12-22T09:28:35Z</time>
      </trkpt>
      <trkpt lat="49.03495" lon="1.17186">
        <ele>122.6</ele>
        <time>2019-12-22T09:28:37Z</time>
      </trkpt>
      <trkpt lat="49.03518" lon="1.17166">
        <ele>123</ele>
        <time>2019-12-22T09:28:47Z</time>
      </trkpt>
      <trkpt lat="49.03527" lon="1.1716">
        <ele>123</ele>
        <time>2019-12-22T09:28:52Z</time>
      </trkpt>
      <trkpt lat="49.0353" lon="1.17134">
        <ele>123.2</ele>
        <time>2019-12-22T09:28:58Z</time>
      </trkpt>
      <trkpt lat="49.0353" lon="1.1713">
        <ele>123.4</ele>
        <time>2019-12-22T09:28:59Z</time>
      </trkpt>
      <trkpt lat="49.03532" lon="1.17113">
        <ele>123.8</ele>
        <time>2019-12-22T09:29:03Z</time>
      </trkpt>
      <trkpt lat="49.03532" lon="1.17094">
        <ele>124.4</ele>
        <time>2019-12-22T09:29:09Z</time>
      </trkpt>
      <trkpt lat="49.03512" lon="1.17094">
        <ele>123.8</ele>
        <time>2019-12-22T09:29:17Z</time>
      </trkpt>
      <trkpt lat="49.03501" lon="1.17102">
        <ele>123.2</ele>
        <time>2019-12-22T09:29:20Z</time>
      </trkpt>
      <trkpt lat="49.03494" lon="1.17112">
        <ele>122.6</ele>
        <time>2019-12-22T09:29:22Z</time>
      </trkpt>
      <trkpt lat="49.03488" lon="1.17125">
        <ele>122.6</ele>
        <time>2019-12-22T09:29:24Z</time>
      </trkpt>
      <trkpt lat="49.03454" lon="1.17181">
        <ele>122.2</ele>
        <time>2019-12-22T09:29:32Z</time>
      </trkpt>
      <trkpt lat="49.03439" lon="1.17203">
        <ele>121.8</ele>
        <time>2019-12-22T09:29:36Z</time>
      </trkpt>
      <trkpt lat="49.03421" lon="1.17187">
        <ele>120.8</ele>
        <time>2019-12-22T09:29:43Z</time>
      </trkpt>
      <trkpt lat="49.03398" lon="1.17193">
        <ele>119.8</ele>
        <time>2019-12-22T09:29:53Z</time>
      </trkpt>
      <trkpt lat="49.03394" lon="1.17202">
        <ele>120.2</ele>
        <time>2019-12-22T09:29:56Z</time>
      </trkpt>
      <trkpt lat="49.03389" lon="1.17204">
        <ele>120.2</ele>
        <time>2019-12-22T09:29:58Z</time>
      </trkpt>
      <trkpt lat="49.03379" lon="1.17197">
        <ele>119.8</ele>
        <time>2019-12-22T09:30:02Z</time>
      </trkpt>
      <trkpt lat="49.03367" lon="1.17183">
        <ele>119</ele>
        <time>2019-12-22T09:30:06Z</time>
      </trkpt>
      <trkpt lat="49.03358" lon="1.17164">
        <ele>118</ele>
        <time>2019-12-22T09:30:11Z</time>
      </trkpt>
      <trkpt lat="49.0337" lon="1.17131">
        <ele>116.4</ele>
        <time>2019-12-22T09:30:18Z</time>
      </trkpt>
      <trkpt lat="49.0338" lon="1.17113">
        <ele>115.2</ele>
        <time>2019-12-22T09:30:22Z</time>
      </trkpt>
      <trkpt lat="49.03383" lon="1.17095">
        <ele>113.6</ele>
        <time>2019-12-22T09:30:25Z</time>
      </trkpt>
      <trkpt lat="49.03385" lon="1.17075">
        <ele>113</ele>
        <time>2019-12-22T09:30:29Z</time>
      </trkpt>
      <trkpt lat="49.03396" lon="1.17064">
        <ele>114.8</ele>
        <time>2019-12-22T09:30:34Z</time>
      </trkpt>
      <trkpt lat="49.034" lon="1.17034">
        <ele>113.4</ele>
        <time>2019-12-22T09:30:39Z</time>
      </trkpt>
      <trkpt lat="49.03409" lon="1.16995">
        <ele>115.2</ele>
        <time>2019-12-22T09:30:48Z</time>
      </trkpt>
      <trkpt lat="49.03426" lon="1.16971">
        <ele>119.8</ele>
        <time>2019-12-22T09:30:58Z</time>
      </trkpt>
      <trkpt lat="49.0345" lon="1.16944">
        <ele>121.8</ele>
        <time>2019-12-22T09:31:10Z</time>
      </trkpt>
      <trkpt lat="49.0348" lon="1.1691">
        <ele>122.2</ele>
        <time>2019-12-22T09:31:23Z</time>
      </trkpt>
      <trkpt lat="49.03494" lon="1.16887">
        <ele>122.6</ele>
        <time>2019-12-22T09:31:29Z</time>
      </trkpt>
      <trkpt lat="49.03506" lon="1.16874">
        <ele>122</ele>
        <time>2019-12-22T09:31:33Z</time>
      </trkpt>
      <trkpt lat="49.03528" lon="1.1684">
        <ele>123</ele>
        <time>2019-12-22T09:31:41Z</time>
      </trkpt>
      <trkpt lat="49.03544" lon="1.1682">
        <ele>122</ele>
        <time>2019-12-22T09:31:46Z</time>
      </trkpt>
      <trkpt lat="49.03546" lon="1.16816">
        <ele>122</ele>
        <time>2019-12-22T09:31:47Z</time>
      </trkpt>
      <trkpt lat="49.03549" lon="1.16813">
        <ele>122.2</ele>
        <time>2019-12-22T09:31:48Z</time>
      </trkpt>
      <trkpt lat="49.03552" lon="1.1681">
        <ele>122.2</ele>
        <time>2019-12-22T09:31:49Z</time>
      </trkpt>
      <trkpt lat="49.03557" lon="1.16808">
        <ele>122.2</ele>
        <time>2019-12-22T09:31:51Z</time>
      </trkpt>
      <trkpt lat="49.03564" lon="1.16809">
        <ele>122.6</ele>
        <time>2019-12-22T09:31:55Z</time>
      </trkpt>
      <trkpt lat="49.03565" lon="1.16811">
        <ele>122.8</ele>
        <time>2019-12-22T09:31:56Z</time>
      </trkpt>
      <trkpt lat="49.03566" lon="1.16813">
        <ele>123</ele>
        <time>2019-12-22T09:31:57Z</time>
      </trkpt>
      <trkpt lat="49.03568" lon="1.16818">
        <ele>123.2</ele>
        <time>2019-12-22T09:31:59Z</time>
      </trkpt>
      <trkpt lat="49.03575" lon="1.16831">
        <ele>123.6</ele>
        <time>2019-12-22T09:32:03Z</time>
      </trkpt>
      <trkpt lat="49.03577" lon="1.16834">
        <ele>123.8</ele>
        <time>2019-12-22T09:32:04Z</time>
      </trkpt>
      <trkpt lat="49.03585" lon="1.16858">
        <ele>124.4</ele>
        <time>2019-12-22T09:32:10Z</time>
      </trkpt>
      <trkpt lat="49.03609" lon="1.16906">
        <ele>126.2</ele>
        <time>2019-12-22T09:32:21Z</time>
      </trkpt>
      <trkpt lat="49.0362" lon="1.16921">
        <ele>126.4</ele>
        <time>2019-12-22T09:32:25Z</time>
      </trkpt>
      <trkpt lat="49.03634" lon="1.16937">
        <ele>126.4</ele>
        <time>2019-12-22T09:32:31Z</time>
      </trkpt>
      <trkpt lat="49.03643" lon="1.16935">
        <ele>126.2</ele>
        <time>2019-12-22T09:32:34Z</time>
      </trkpt>
      <trkpt lat="49.03691" lon="1.16916">
        <ele>126</ele>
        <time>2019-12-22T09:32:49Z</time>
      </trkpt>
      <trkpt lat="49.03704" lon="1.16887">
        <ele>125.6</ele>
        <time>2019-12-22T09:32:56Z</time>
      </trkpt>
      <trkpt lat="49.03712" lon="1.16864">
        <ele>125</ele>
        <time>2019-12-22T09:33:01Z</time>
      </trkpt>
      <trkpt lat="49.03729" lon="1.16784">
        <ele>124.4</ele>
        <time>2019-12-22T09:33:15Z</time>
      </trkpt>
      <trkpt lat="49.03731" lon="1.16712">
        <ele>124</ele>
        <time>2019-12-22T09:33:26Z</time>
      </trkpt>
      <trkpt lat="49.03722" lon="1.16696">
        <ele>122.8</ele>
        <time>2019-12-22T09:33:29Z</time>
      </trkpt>
      <trkpt lat="49.03699" lon="1.16675">
        <ele>121</ele>
        <time>2019-12-22T09:33:34Z</time>
      </trkpt>
      <trkpt lat="49.03697" lon="1.16667">
        <ele>120.4</ele>
        <time>2019-12-22T09:33:36Z</time>
      </trkpt>
      <trkpt lat="49.03706" lon="1.16659">
        <ele>120.2</ele>
        <time>2019-12-22T09:33:39Z</time>
      </trkpt>
      <trkpt lat="49.03721" lon="1.16657">
        <ele>120</ele>
        <time>2019-12-22T09:33:42Z</time>
      </trkpt>
      <trkpt lat="49.03725" lon="1.16657">
        <ele>120</ele>
        <time>2019-12-22T09:33:43Z</time>
      </trkpt>
      <trkpt lat="49.03763" lon="1.16643">
        <ele>118.8</ele>
        <time>2019-12-22T09:33:55Z</time>
      </trkpt>
      <trkpt lat="49.03782" lon="1.16644">
        <ele>119</ele>
        <time>2019-12-22T09:34:03Z</time>
      </trkpt>
      <trkpt lat="49.03825" lon="1.16642">
        <ele>118.4</ele>
        <time>2019-12-22T09:34:12Z</time>
      </trkpt>
      <trkpt lat="49.03834" lon="1.16645">
        <ele>119</ele>
        <time>2019-12-22T09:34:14Z</time>
      </trkpt>
      <trkpt lat="49.03853" lon="1.16659">
        <ele>121</ele>
        <time>2019-12-22T09:34:19Z</time>
      </trkpt>
      <trkpt lat="49.03857" lon="1.16664">
        <ele>121.8</ele>
        <time>2019-12-22T09:34:21Z</time>
      </trkpt>
      <trkpt lat="49.03879" lon="1.16682">
        <ele>123.4</ele>
        <time>2019-12-22T09:34:30Z</time>
      </trkpt>
      <trkpt lat="49.03883" lon="1.16682">
        <ele>123.2</ele>
        <time>2019-12-22T09:34:31Z</time>
      </trkpt>
      <trkpt lat="49.03886" lon="1.16683">
        <ele>123.2</ele>
        <time>2019-12-22T09:34:32Z</time>
      </trkpt>
      <trkpt lat="49.039" lon="1.16686">
        <ele>123</ele>
        <time>2019-12-22T09:34:36Z</time>
      </trkpt>
      <trkpt lat="49.03905" lon="1.1669">
        <ele>123.4</ele>
        <time>2019-12-22T09:34:38Z</time>
      </trkpt>
      <trkpt lat="49.03908" lon="1.16693">
        <ele>123.6</ele>
        <time>2019-12-22T09:34:40Z</time>
      </trkpt>
      <trkpt lat="49.03912" lon="1.16698">
        <ele>124.2</ele>
        <time>2019-12-22T09:34:44Z</time>
      </trkpt>
      <trkpt lat="49.03966" lon="1.16683">
        <ele>122.6</ele>
        <time>2019-12-22T09:34:57Z</time>
      </trkpt>
      <trkpt lat="49.03987" lon="1.16664">
        <ele>120</ele>
        <time>2019-12-22T09:35:02Z</time>
      </trkpt>
      <trkpt lat="49.03996" lon="1.16654">
        <ele>118.6</ele>
        <time>2019-12-22T09:35:04Z</time>
      </trkpt>
      <trkpt lat="49.04011" lon="1.16636">
        <ele>115.2</ele>
        <time>2019-12-22T09:35:08Z</time>
      </trkpt>
      <trkpt lat="49.0402" lon="1.16618">
        <ele>112.2</ele>
        <time>2019-12-22T09:35:11Z</time>
      </trkpt>
      <trkpt lat="49.04028" lon="1.1661">
        <ele>110.8</ele>
        <time>2019-12-22T09:35:13Z</time>
      </trkpt>
      <trkpt lat="49.04046" lon="1.16583">
        <ele>104.6</ele>
        <time>2019-12-22T09:35:18Z</time>
      </trkpt>
      <trkpt lat="49.0405" lon="1.16577">
        <ele>103.6</ele>
        <time>2019-12-22T09:35:19Z</time>
      </trkpt>
      <trkpt lat="49.04068" lon="1.16559">
        <ele>99.4</ele>
        <time>2019-12-22T09:35:24Z</time>
      </trkpt>
      <trkpt lat="49.04077" lon="1.1654">
        <ele>94</ele>
        <time>2019-12-22T09:35:27Z</time>
      </trkpt>
      <trkpt lat="49.04088" lon="1.16535">
        <ele>92</ele>
        <time>2019-12-22T09:35:29Z</time>
      </trkpt>
      <trkpt lat="49.04099" lon="1.1653">
        <ele>90.8</ele>
        <time>2019-12-22T09:35:31Z</time>
      </trkpt>
      <trkpt lat="49.04142" lon="1.16521">
        <ele>84.4</ele>
        <time>2019-12-22T09:35:38Z</time>
      </trkpt>
      <trkpt lat="49.04187" lon="1.16514">
        <ele>81.2</ele>
        <time>2019-12-22T09:35:45Z</time>
      </trkpt>
      <trkpt lat="49.04201" lon="1.16509">
        <ele>79.8</ele>
        <time>2019-12-22T09:35:47Z</time>
      </trkpt>
      <trkpt lat="49.04213" lon="1.1651">
        <ele>79</ele>
        <time>2019-12-22T09:35:49Z</time>
      </trkpt>
      <trkpt lat="49.04222" lon="1.16512">
        <ele>78.4</ele>
        <time>2019-12-22T09:35:51Z</time>
      </trkpt>
      <trkpt lat="49.04248" lon="1.16514">
        <ele>76.4</ele>
        <time>2019-12-22T09:36:01Z</time>
      </trkpt>
      <trkpt lat="49.04254" lon="1.16512">
        <ele>75.8</ele>
        <time>2019-12-22T09:36:05Z</time>
      </trkpt>
      <trkpt lat="49.04263" lon="1.16492">
        <ele>73.2</ele>
        <time>2019-12-22T09:36:10Z</time>
      </trkpt>
      <trkpt lat="49.04271" lon="1.16481">
        <ele>71.6</ele>
        <time>2019-12-22T09:36:12Z</time>
      </trkpt>
      <trkpt lat="49.04281" lon="1.16475">
        <ele>70.8</ele>
        <time>2019-12-22T09:36:14Z</time>
      </trkpt>
      <trkpt lat="49.0431" lon="1.1647">
        <ele>71</ele>
        <time>2019-12-22T09:36:22Z</time>
      </trkpt>
      <trkpt lat="49.04327" lon="1.1647">
        <ele>71.2</ele>
        <time>2019-12-22T09:36:27Z</time>
      </trkpt>
      <trkpt lat="49.04332" lon="1.1647">
        <ele>71.4</ele>
        <time>2019-12-22T09:36:28Z</time>
      </trkpt>
      <trkpt lat="49.04336" lon="1.16469">
        <ele>71.4</ele>
        <time>2019-12-22T09:36:29Z</time>
      </trkpt>
      <trkpt lat="49.04367" lon="1.16465">
        <ele>71.4</ele>
        <time>2019-12-22T09:36:36Z</time>
      </trkpt>
      <trkpt lat="49.04422" lon="1.16464">
        <ele>69.8</ele>
        <time>2019-12-22T09:36:47Z</time>
      </trkpt>
      <trkpt lat="49.04444" lon="1.16468">
        <ele>69.8</ele>
        <time>2019-12-22T09:36:51Z</time>
      </trkpt>
      <trkpt lat="49.04499" lon="1.16481">
        <ele>71</ele>
        <time>2019-12-22T09:37:01Z</time>
      </trkpt>
      <trkpt lat="49.04536" lon="1.16493">
        <ele>70.8</ele>
        <time>2019-12-22T09:37:08Z</time>
      </trkpt>
      <trkpt lat="49.04592" lon="1.16504">
        <ele>69.8</ele>
        <time>2019-12-22T09:37:18Z</time>
      </trkpt>
      <trkpt lat="49.04647" lon="1.16511">
        <ele>68.4</ele>
        <time>2019-12-22T09:37:28Z</time>
      </trkpt>
      <trkpt lat="49.04699" lon="1.16516">
        <ele>66.2</ele>
        <time>2019-12-22T09:37:37Z</time>
      </trkpt>
      <trkpt lat="49.04703" lon="1.16517">
        <ele>66</ele>
        <time>2019-12-22T09:37:39Z</time>
      </trkpt>
      <trkpt lat="49.04705" lon="1.16516">
        <ele>66</ele>
        <time>2019-12-22T09:37:40Z</time>
      </trkpt>
      <trkpt lat="49.04709" lon="1.16513">
        <ele>65.6</ele>
        <time>2019-12-22T09:37:42Z</time>
      </trkpt>
      <trkpt lat="49.04714" lon="1.16504">
        <ele>65.2</ele>
        <time>2019-12-22T09:37:44Z</time>
      </trkpt>
      <trkpt lat="49.04716" lon="1.16491">
        <ele>64.4</ele>
        <time>2019-12-22T09:37:46Z</time>
      </trkpt>
      <trkpt lat="49.04716" lon="1.16477">
        <ele>63.8</ele>
        <time>2019-12-22T09:37:48Z</time>
      </trkpt>
      <trkpt lat="49.04711" lon="1.16463">
        <ele>63.2</ele>
        <time>2019-12-22T09:37:50Z</time>
      </trkpt>
      <trkpt lat="49.04705" lon="1.16451">
        <ele>62.8</ele>
        <time>2019-12-22T09:37:52Z</time>
      </trkpt>
      <trkpt lat="49.04695" lon="1.16434">
        <ele>62.2</ele>
        <time>2019-12-22T09:37:55Z</time>
      </trkpt>
      <trkpt lat="49.04686" lon="1.16426">
        <ele>62.2</ele>
        <time>2019-12-22T09:37:57Z</time>
      </trkpt>
      <trkpt lat="49.04661" lon="1.16411">
        <ele>62.4</ele>
        <time>2019-12-22T09:38:02Z</time>
      </trkpt>
      <trkpt lat="49.04639" lon="1.16399">
        <ele>62.8</ele>
        <time>2019-12-22T09:38:06Z</time>
      </trkpt>
      <trkpt lat="49.04595" lon="1.16386">
        <ele>63.4</ele>
        <time>2019-12-22T09:38:13Z</time>
      </trkpt>
      <trkpt lat="49.04589" lon="1.16369">
        <ele>62.2</ele>
        <time>2019-12-22T09:38:17Z</time>
      </trkpt>
      <trkpt lat="49.04593" lon="1.16353">
        <ele>60.6</ele>
        <time>2019-12-22T09:38:19Z</time>
      </trkpt>
      <trkpt lat="49.04618" lon="1.16275">
        <ele>56.6</ele>
        <time>2019-12-22T09:38:29Z</time>
      </trkpt>
      <trkpt lat="49.04643" lon="1.16213">
        <ele>56.4</ele>
        <time>2019-12-22T09:38:40Z</time>
      </trkpt>
      <trkpt lat="49.04621" lon="1.16186">
        <ele>56.2</ele>
        <time>2019-12-22T09:38:49Z</time>
      </trkpt>
      <trkpt lat="49.04605" lon="1.16159">
        <ele>56</ele>
        <time>2019-12-22T09:39:03Z</time>
      </trkpt>
      <trkpt lat="49.04646" lon="1.16095">
        <ele>56.8</ele>
        <time>2019-12-22T09:39:17Z</time>
      </trkpt>
      <trkpt lat="49.04682" lon="1.16031">
        <ele>56</ele>
        <time>2019-12-22T09:39:28Z</time>
      </trkpt>
      <trkpt lat="49.04725" lon="1.15977">
        <ele>56</ele>
        <time>2019-12-22T09:39:39Z</time>
      </trkpt>
      <trkpt lat="49.04739" lon="1.15965">
        <ele>56.4</ele>
        <time>2019-12-22T09:39:42Z</time>
      </trkpt>
      <trkpt lat="49.04747" lon="1.15955">
        <ele>56.6</ele>
        <time>2019-12-22T09:39:44Z</time>
      </trkpt>
      <trkpt lat="49.04743" lon="1.15917">
        <ele>57.8</ele>
        <time>2019-12-22T09:39:50Z</time>
      </trkpt>
      <trkpt lat="49.04744" lon="1.15903">
        <ele>58.4</ele>
        <time>2019-12-22T09:39:52Z</time>
      </trkpt>
      <trkpt lat="49.04746" lon="1.1589">
        <ele>58.6</ele>
        <time>2019-12-22T09:39:54Z</time>
      </trkpt>
      <trkpt lat="49.04755" lon="1.15867">
        <ele>58.6</ele>
        <time>2019-12-22T09:39:58Z</time>
      </trkpt>
      <trkpt lat="49.04759" lon="1.15855">
        <ele>58.6</ele>
        <time>2019-12-22T09:40:00Z</time>
      </trkpt>
      <trkpt lat="49.04761" lon="1.15822">
        <ele>58.6</ele>
        <time>2019-12-22T09:40:05Z</time>
      </trkpt>
      <trkpt lat="49.0478" lon="1.15769">
        <ele>59.4</ele>
        <time>2019-12-22T09:40:15Z</time>
      </trkpt>
      <trkpt lat="49.04801" lon="1.15744">
        <ele>59.4</ele>
        <time>2019-12-22T09:40:22Z</time>
      </trkpt>
      <trkpt lat="49.04816" lon="1.15659">
        <ele>59.4</ele>
        <time>2019-12-22T09:40:39Z</time>
      </trkpt>
      <trkpt lat="49.0482" lon="1.15589">
        <ele>61.6</ele>
        <time>2019-12-22T09:40:51Z</time>
      </trkpt>
      <trkpt lat="49.04821" lon="1.15516">
        <ele>64.6</ele>
        <time>2019-12-22T09:41:03Z</time>
      </trkpt>
      <trkpt lat="49.04798" lon="1.15508">
        <ele>64.4</ele>
        <time>2019-12-22T09:41:10Z</time>
      </trkpt>
      <trkpt lat="49.04795" lon="1.15508">
        <ele>64.4</ele>
        <time>2019-12-22T09:41:11Z</time>
      </trkpt>
      <trkpt lat="49.04793" lon="1.15506">
        <ele>64.4</ele>
        <time>2019-12-22T09:41:12Z</time>
      </trkpt>
      <trkpt lat="49.04791" lon="1.15503">
        <ele>64.4</ele>
        <time>2019-12-22T09:41:13Z</time>
      </trkpt>
      <trkpt lat="49.04791" lon="1.15499">
        <ele>64.6</ele>
        <time>2019-12-22T09:41:14Z</time>
      </trkpt>
      <trkpt lat="49.0479" lon="1.15489">
        <ele>65</ele>
        <time>2019-12-22T09:41:19Z</time>
      </trkpt>
      <trkpt lat="49.04786" lon="1.1551">
        <ele>64</ele>
        <time>2019-12-22T09:41:24Z</time>
      </trkpt>
      <trkpt lat="49.04778" lon="1.15513">
        <ele>63.8</ele>
        <time>2019-12-22T09:41:26Z</time>
      </trkpt>
      <trkpt lat="49.04765" lon="1.15514">
        <ele>63.6</ele>
        <time>2019-12-22T09:41:29Z</time>
      </trkpt>
      <trkpt lat="49.0476" lon="1.15511">
        <ele>63.6</ele>
        <time>2019-12-22T09:41:31Z</time>
      </trkpt>
      <trkpt lat="49.04756" lon="1.15497">
        <ele>64</ele>
        <time>2019-12-22T09:41:34Z</time>
      </trkpt>
      <trkpt lat="49.04757" lon="1.1548">
        <ele>64.6</ele>
        <time>2019-12-22T09:41:37Z</time>
      </trkpt>
      <trkpt lat="49.04757" lon="1.15475">
        <ele>64.8</ele>
        <time>2019-12-22T09:41:38Z</time>
      </trkpt>
      <trkpt lat="49.04757" lon="1.15469">
        <ele>65</ele>
        <time>2019-12-22T09:41:39Z</time>
      </trkpt>
      <trkpt lat="49.04756" lon="1.15459">
        <ele>65.4</ele>
        <time>2019-12-22T09:41:41Z</time>
      </trkpt>
      <trkpt lat="49.04754" lon="1.15455">
        <ele>65.6</ele>
        <time>2019-12-22T09:41:42Z</time>
      </trkpt>
      <trkpt lat="49.04748" lon="1.1545">
        <ele>65.6</ele>
        <time>2019-12-22T09:41:44Z</time>
      </trkpt>
      <trkpt lat="49.04693" lon="1.15454">
        <ele>64.8</ele>
        <time>2019-12-22T09:41:56Z</time>
      </trkpt>
      <trkpt lat="49.04688" lon="1.15455">
        <ele>64.6</ele>
        <time>2019-12-22T09:41:57Z</time>
      </trkpt>
      <trkpt lat="49.04675" lon="1.15457">
        <ele>64.2</ele>
        <time>2019-12-22T09:42:00Z</time>
      </trkpt>
      <trkpt lat="49.04666" lon="1.15458">
        <ele>64.2</ele>
        <time>2019-12-22T09:42:02Z</time>
      </trkpt>
      <trkpt lat="49.0462" lon="1.15463">
        <ele>63.4</ele>
        <time>2019-12-22T09:42:13Z</time>
      </trkpt>
      <trkpt lat="49.04567" lon="1.1547">
        <ele>63.8</ele>
        <time>2019-12-22T09:42:25Z</time>
      </trkpt>
      <trkpt lat="49.04509" lon="1.15478">
        <ele>63.8</ele>
        <time>2019-12-22T09:42:38Z</time>
      </trkpt>
      <trkpt lat="49.04454" lon="1.1548">
        <ele>63.2</ele>
        <time>2019-12-22T09:42:52Z</time>
      </trkpt>
      <trkpt lat="49.04453" lon="1.15512">
        <ele>62.8</ele>
        <time>2019-12-22T09:42:57Z</time>
      </trkpt>
      <trkpt lat="49.04453" lon="1.15524">
        <ele>62.6</ele>
        <time>2019-12-22T09:42:59Z</time>
      </trkpt>
      <trkpt lat="49.04453" lon="1.15558">
        <ele>62.2</ele>
        <time>2019-12-22T09:43:03Z</time>
      </trkpt>
      <trkpt lat="49.04454" lon="1.15577">
        <ele>62</ele>
        <time>2019-12-22T09:43:05Z</time>
      </trkpt>
      <trkpt lat="49.04458" lon="1.1562">
        <ele>61.4</ele>
        <time>2019-12-22T09:43:10Z</time>
      </trkpt>
      <trkpt lat="49.0446" lon="1.15675">
        <ele>60.4</ele>
        <time>2019-12-22T09:43:16Z</time>
      </trkpt>
      <trkpt lat="49.04463" lon="1.15727">
        <ele>59.8</ele>
        <time>2019-12-22T09:43:27Z</time>
      </trkpt>
      <trkpt lat="49.04449" lon="1.15756">
        <ele>59.6</ele>
        <time>2019-12-22T09:43:34Z</time>
      </trkpt>
      <trkpt lat="49.04444" lon="1.15766">
        <ele>59.6</ele>
        <time>2019-12-22T09:43:36Z</time>
      </trkpt>
      <trkpt lat="49.04434" lon="1.15773">
        <ele>59.4</ele>
        <time>2019-12-22T09:43:39Z</time>
      </trkpt>
      <trkpt lat="49.04408" lon="1.15772">
        <ele>59.4</ele>
        <time>2019-12-22T09:43:46Z</time>
      </trkpt>
      <trkpt lat="49.044" lon="1.15774">
        <ele>59.6</ele>
        <time>2019-12-22T09:43:47Z</time>
      </trkpt>
      <trkpt lat="49.04384" lon="1.15767">
        <ele>59.8</ele>
        <time>2019-12-22T09:43:52Z</time>
      </trkpt>
      <trkpt lat="49.04384" lon="1.15756">
        <ele>59.6</ele>
        <time>2019-12-22T09:43:54Z</time>
      </trkpt>
      <trkpt lat="49.0439" lon="1.15745">
        <ele>59.8</ele>
        <time>2019-12-22T09:43:56Z</time>
      </trkpt>
      <trkpt lat="49.04402" lon="1.15711">
        <ele>60</ele>
        <time>2019-12-22T09:44:02Z</time>
      </trkpt>
      <trkpt lat="49.04403" lon="1.15626">
        <ele>61</ele>
        <time>2019-12-22T09:44:15Z</time>
      </trkpt>
      <trkpt lat="49.04407" lon="1.15539">
        <ele>62.2</ele>
        <time>2019-12-22T09:44:29Z</time>
      </trkpt>
      <trkpt lat="49.04407" lon="1.15491">
        <ele>62.8</ele>
        <time>2019-12-22T09:44:39Z</time>
      </trkpt>
      <trkpt lat="49.04406" lon="1.15489">
        <ele>62.8</ele>
        <time>2019-12-22T09:44:40Z</time>
      </trkpt>
      <trkpt lat="49.044" lon="1.15488">
        <ele>62.8</ele>
        <time>2019-12-22T09:44:43Z</time>
      </trkpt>
      <trkpt lat="49.04392" lon="1.15489">
        <ele>62.8</ele>
        <time>2019-12-22T09:44:45Z</time>
      </trkpt>
      <trkpt lat="49.04336" lon="1.15496">
        <ele>63.4</ele>
        <time>2019-12-22T09:44:58Z</time>
      </trkpt>
      <trkpt lat="49.0428" lon="1.15498">
        <ele>64.4</ele>
        <time>2019-12-22T09:45:11Z</time>
      </trkpt>
      <trkpt lat="49.04224" lon="1.15492">
        <ele>65.8</ele>
        <time>2019-12-22T09:45:25Z</time>
      </trkpt>
      <trkpt lat="49.04191" lon="1.15493">
        <ele>66.6</ele>
        <time>2019-12-22T09:45:34Z</time>
      </trkpt>
      <trkpt lat="49.04136" lon="1.15497">
        <ele>66.6</ele>
        <time>2019-12-22T09:45:49Z</time>
      </trkpt>
      <trkpt lat="49.04104" lon="1.15504">
        <ele>66.2</ele>
        <time>2019-12-22T09:45:57Z</time>
      </trkpt>
      <trkpt lat="49.04061" lon="1.15499">
        <ele>66.8</ele>
        <time>2019-12-22T09:46:08Z</time>
      </trkpt>
      <trkpt lat="49.04005" lon="1.15494">
        <ele>67.6</ele>
        <time>2019-12-22T09:46:23Z</time>
      </trkpt>
      <trkpt lat="49.03969" lon="1.15487">
        <ele>67.8</ele>
        <time>2019-12-22T09:46:32Z</time>
      </trkpt>
      <trkpt lat="49.03942" lon="1.15484">
        <ele>67.8</ele>
        <time>2019-12-22T09:46:39Z</time>
      </trkpt>
      <trkpt lat="49.03938" lon="1.15483">
        <ele>68</ele>
        <time>2019-12-22T09:46:40Z</time>
      </trkpt>
      <trkpt lat="49.03935" lon="1.15483">
        <ele>68</ele>
        <time>2019-12-22T09:46:41Z</time>
      </trkpt>
      <trkpt lat="49.03931" lon="1.15483">
        <ele>68.2</ele>
        <time>2019-12-22T09:46:42Z</time>
      </trkpt>
      <trkpt lat="49.03927" lon="1.15482">
        <ele>68.2</ele>
        <time>2019-12-22T09:46:43Z</time>
      </trkpt>
      <trkpt lat="49.03913" lon="1.15482">
        <ele>68.6</ele>
        <time>2019-12-22T09:46:47Z</time>
      </trkpt>
      <trkpt lat="49.03909" lon="1.15481">
        <ele>68.8</ele>
        <time>2019-12-22T09:46:48Z</time>
      </trkpt>
      <trkpt lat="49.03854" lon="1.15474">
        <ele>70.4</ele>
        <time>2019-12-22T09:47:03Z</time>
      </trkpt>
      <trkpt lat="49.03813" lon="1.15469">
        <ele>72</ele>
        <time>2019-12-22T09:47:14Z</time>
      </trkpt>
      <trkpt lat="49.03806" lon="1.15468">
        <ele>72.4</ele>
        <time>2019-12-22T09:47:16Z</time>
      </trkpt>
      <trkpt lat="49.03783" lon="1.15469">
        <ele>73.2</ele>
        <time>2019-12-22T09:47:22Z</time>
      </trkpt>
      <trkpt lat="49.03754" lon="1.1548">
        <ele>73.6</ele>
        <time>2019-12-22T09:47:31Z</time>
      </trkpt>
      <trkpt lat="49.03716" lon="1.15488">
        <ele>74.6</ele>
        <time>2019-12-22T09:47:42Z</time>
      </trkpt>
      <trkpt lat="49.03679" lon="1.15486">
        <ele>74.8</ele>
        <time>2019-12-22T09:47:53Z</time>
      </trkpt>
      <trkpt lat="49.03672" lon="1.15487">
        <ele>74.6</ele>
        <time>2019-12-22T09:47:55Z</time>
      </trkpt>
      <trkpt lat="49.03654" lon="1.15487">
        <ele>73.8</ele>
        <time>2019-12-22T09:48:00Z</time>
      </trkpt>
      <trkpt lat="49.0362" lon="1.15486">
        <ele>72.8</ele>
        <time>2019-12-22T09:48:09Z</time>
      </trkpt>
      <trkpt lat="49.03611" lon="1.15487">
        <ele>72.4</ele>
        <time>2019-12-22T09:48:13Z</time>
      </trkpt>
      <trkpt lat="49.03609" lon="1.15489">
        <ele>72.4</ele>
        <time>2019-12-22T09:48:15Z</time>
      </trkpt>
      <trkpt lat="49.0361" lon="1.15499">
        <ele>71.8</ele>
        <time>2019-12-22T09:48:18Z</time>
      </trkpt>
      <trkpt lat="49.03612" lon="1.15531">
        <ele>69.8</ele>
        <time>2019-12-22T09:48:23Z</time>
      </trkpt>
      <trkpt lat="49.03612" lon="1.15588">
        <ele>66.4</ele>
        <time>2019-12-22T09:48:29Z</time>
      </trkpt>
      <trkpt lat="49.03611" lon="1.15596">
        <ele>66</ele>
        <time>2019-12-22T09:48:30Z</time>
      </trkpt>
      <trkpt lat="49.03606" lon="1.15609">
        <ele>65</ele>
        <time>2019-12-22T09:48:32Z</time>
      </trkpt>
      <trkpt lat="49.03596" lon="1.15616">
        <ele>64</ele>
        <time>2019-12-22T09:48:34Z</time>
      </trkpt>
      <trkpt lat="49.03545" lon="1.15595">
        <ele>62.6</ele>
        <time>2019-12-22T09:48:43Z</time>
      </trkpt>
      <trkpt lat="49.03529" lon="1.15586">
        <ele>62.4</ele>
        <time>2019-12-22T09:48:46Z</time>
      </trkpt>
      <trkpt lat="49.03478" lon="1.15571">
        <ele>61.6</ele>
        <time>2019-12-22T09:48:54Z</time>
      </trkpt>
      <trkpt lat="49.03473" lon="1.15569">
        <ele>61.6</ele>
        <time>2019-12-22T09:48:55Z</time>
      </trkpt>
      <trkpt lat="49.03467" lon="1.15562">
        <ele>61.6</ele>
        <time>2019-12-22T09:48:57Z</time>
      </trkpt>
      <trkpt lat="49.03466" lon="1.15552">
        <ele>61.8</ele>
        <time>2019-12-22T09:48:59Z</time>
      </trkpt>
      <trkpt lat="49.03475" lon="1.15521">
        <ele>62.8</ele>
        <time>2019-12-22T09:49:05Z</time>
      </trkpt>
      <trkpt lat="49.03474" lon="1.15505">
        <ele>63.2</ele>
        <time>2019-12-22T09:49:08Z</time>
      </trkpt>
      <trkpt lat="49.03468" lon="1.15477">
        <ele>64.2</ele>
        <time>2019-12-22T09:49:14Z</time>
      </trkpt>
      <trkpt lat="49.0346" lon="1.15454">
        <ele>65.4</ele>
        <time>2019-12-22T09:49:19Z</time>
      </trkpt>
      <trkpt lat="49.03455" lon="1.15437">
        <ele>66</ele>
        <time>2019-12-22T09:49:23Z</time>
      </trkpt>
      <trkpt lat="49.03446" lon="1.15408">
        <ele>67.4</ele>
        <time>2019-12-22T09:49:30Z</time>
      </trkpt>
      <trkpt lat="49.03439" lon="1.15387">
        <ele>68.6</ele>
        <time>2019-12-22T09:49:35Z</time>
      </trkpt>
      <trkpt lat="49.03422" lon="1.15336">
        <ele>73</ele>
        <time>2019-12-22T09:49:47Z</time>
      </trkpt>
      <trkpt lat="49.0342" lon="1.1533">
        <ele>73.4</ele>
        <time>2019-12-22T09:49:48Z</time>
      </trkpt>
      <trkpt lat="49.03413" lon="1.15254">
        <ele>80.2</ele>
        <time>2019-12-22T09:50:04Z</time>
      </trkpt>
      <trkpt lat="49.03419" lon="1.1519">
        <ele>85</ele>
        <time>2019-12-22T09:50:20Z</time>
      </trkpt>
      <trkpt lat="49.03426" lon="1.15107">
        <ele>89.6</ele>
        <time>2019-12-22T09:50:39Z</time>
      </trkpt>
      <trkpt lat="49.03427" lon="1.15057">
        <ele>92.6</ele>
        <time>2019-12-22T09:50:56Z</time>
      </trkpt>
      <trkpt lat="49.03425" lon="1.15055">
        <ele>93</ele>
        <time>2019-12-22T09:50:57Z</time>
      </trkpt>
      <trkpt lat="49.03417" lon="1.15053">
        <ele>94.2</ele>
        <time>2019-12-22T09:51:00Z</time>
      </trkpt>
      <trkpt lat="49.0341" lon="1.15054">
        <ele>95.2</ele>
        <time>2019-12-22T09:51:03Z</time>
      </trkpt>
      <trkpt lat="49.03395" lon="1.15059">
        <ele>97</ele>
        <time>2019-12-22T09:51:10Z</time>
      </trkpt>
      <trkpt lat="49.03375" lon="1.15078">
        <ele>98.6</ele>
        <time>2019-12-22T09:51:26Z</time>
      </trkpt>
      <trkpt lat="49.03371" lon="1.15085">
        <ele>98.4</ele>
        <time>2019-12-22T09:51:32Z</time>
      </trkpt>
      <trkpt lat="49.0337" lon="1.15092">
        <ele>97.6</ele>
        <time>2019-12-22T09:51:50Z</time>
      </trkpt>
      <trkpt lat="49.03367" lon="1.15102">
        <ele>96.8</ele>
        <time>2019-12-22T09:52:15Z</time>
      </trkpt>
      <trkpt lat="49.03359" lon="1.15107">
        <ele>97</ele>
        <time>2019-12-22T09:52:29Z</time>
      </trkpt>
      <trkpt lat="49.03358" lon="1.15114">
        <ele>96</ele>
        <time>2019-12-22T09:53:03Z</time>
      </trkpt>
      <trkpt lat="49.03354" lon="1.15132">
        <ele>93.6</ele>
        <time>2019-12-22T09:53:09Z</time>
      </trkpt>
      <trkpt lat="49.03354" lon="1.15177">
        <ele>88.6</ele>
        <time>2019-12-22T09:53:18Z</time>
      </trkpt>
      <trkpt lat="49.03343" lon="1.15213">
        <ele>82.4</ele>
        <time>2019-12-22T09:53:24Z</time>
      </trkpt>
      <trkpt lat="49.03332" lon="1.15217">
        <ele>80</ele>
        <time>2019-12-22T09:53:26Z</time>
      </trkpt>
      <trkpt lat="49.03323" lon="1.15215">
        <ele>78.4</ele>
        <time>2019-12-22T09:53:28Z</time>
      </trkpt>
      <trkpt lat="49.03315" lon="1.15207">
        <ele>77.8</ele>
        <time>2019-12-22T09:53:30Z</time>
      </trkpt>
      <trkpt lat="49.03305" lon="1.15191">
        <ele>77.6</ele>
        <time>2019-12-22T09:53:33Z</time>
      </trkpt>
      <trkpt lat="49.03295" lon="1.15154">
        <ele>79.6</ele>
        <time>2019-12-22T09:53:41Z</time>
      </trkpt>
      <trkpt lat="49.03287" lon="1.15123">
        <ele>82.2</ele>
        <time>2019-12-22T09:53:51Z</time>
      </trkpt>
      <trkpt lat="49.03286" lon="1.15121">
        <ele>82.2</ele>
        <time>2019-12-22T09:53:52Z</time>
      </trkpt>
      <trkpt lat="49.03285" lon="1.15119">
        <ele>82.4</ele>
        <time>2019-12-22T09:53:53Z</time>
      </trkpt>
      <trkpt lat="49.03282" lon="1.15111">
        <ele>83</ele>
        <time>2019-12-22T09:53:56Z</time>
      </trkpt>
      <trkpt lat="49.03279" lon="1.15104">
        <ele>83.4</ele>
        <time>2019-12-22T09:53:59Z</time>
      </trkpt>
      <trkpt lat="49.03268" lon="1.15078">
        <ele>84.4</ele>
        <time>2019-12-22T09:54:08Z</time>
      </trkpt>
      <trkpt lat="49.03259" lon="1.15053">
        <ele>85.4</ele>
        <time>2019-12-22T09:54:14Z</time>
      </trkpt>
      <trkpt lat="49.03232" lon="1.14979">
        <ele>86.2</ele>
        <time>2019-12-22T09:54:31Z</time>
      </trkpt>
      <trkpt lat="49.03219" lon="1.14944">
        <ele>87.8</ele>
        <time>2019-12-22T09:54:39Z</time>
      </trkpt>
      <trkpt lat="49.03217" lon="1.14941">
        <ele>88</ele>
        <time>2019-12-22T09:54:40Z</time>
      </trkpt>
      <trkpt lat="49.03212" lon="1.14927">
        <ele>88.6</ele>
        <time>2019-12-22T09:54:44Z</time>
      </trkpt>
      <trkpt lat="49.03206" lon="1.14913">
        <ele>88.8</ele>
        <time>2019-12-22T09:54:48Z</time>
      </trkpt>
      <trkpt lat="49.03189" lon="1.14869">
        <ele>90.8</ele>
        <time>2019-12-22T09:55:00Z</time>
      </trkpt>
      <trkpt lat="49.03177" lon="1.14819">
        <ele>94.8</ele>
        <time>2019-12-22T09:55:13Z</time>
      </trkpt>
      <trkpt lat="49.03167" lon="1.14769">
        <ele>96.2</ele>
        <time>2019-12-22T09:55:27Z</time>
      </trkpt>
      <trkpt lat="49.03169" lon="1.14764">
        <ele>97.2</ele>
        <time>2019-12-22T09:55:29Z</time>
      </trkpt>
      <trkpt lat="49.03194" lon="1.14784">
        <ele>104.4</ele>
        <time>2019-12-22T09:55:46Z</time>
      </trkpt>
      <trkpt lat="49.03206" lon="1.14769">
        <ele>108.4</ele>
        <time>2019-12-22T09:55:55Z</time>
      </trkpt>
      <trkpt lat="49.03205" lon="1.14763">
        <ele>108.6</ele>
        <time>2019-12-22T09:56:01Z</time>
      </trkpt>
      <trkpt lat="49.03205" lon="1.14764">
        <ele>108.6</ele>
        <time>2019-12-22T09:56:06Z</time>
      </trkpt>
      <trkpt lat="49.03205" lon="1.14764">
        <ele>108.6</ele>
        <time>2019-12-22T09:56:12Z</time>
      </trkpt>
      <trkpt lat="49.03205" lon="1.14764">
        <ele>108.6</ele>
        <time>2019-12-22T09:56:15Z</time>
      </trkpt>
      <trkpt lat="49.03205" lon="1.14764">
        <ele>108.6</ele>
        <time>2019-12-22T09:56:16Z</time>
      </trkpt>
      <trkpt lat="49.03205" lon="1.14764">
        <ele>108.6</ele>
        <time>2019-12-22T09:56:17Z</time>
      </trkpt>
      <trkpt lat="49.03205" lon="1.14765">
        <ele>108.6</ele>
        <time>2019-12-22T09:56:34Z</time>
      </trkpt>
      <trkpt lat="49.03205" lon="1.14763">
        <ele>108.6</ele>
        <time>2019-12-22T09:56:39Z</time>
      </trkpt>
      <trkpt lat="49.03204" lon="1.14759">
        <ele>108.8</ele>
        <time>2019-12-22T09:56:44Z</time>
      </trkpt>
      <trkpt lat="49.03203" lon="1.14757">
        <ele>108.8</ele>
        <time>2019-12-22T09:56:47Z</time>
      </trkpt>
      <trkpt lat="49.03203" lon="1.14757">
        <ele>108.6</ele>
        <time>2019-12-22T09:56:48Z</time>
      </trkpt>
      <trkpt lat="49.03202" lon="1.14757">
        <ele>108.6</ele>
        <time>2019-12-22T09:56:50Z</time>
      </trkpt>
      <trkpt lat="49.03205" lon="1.14755">
        <ele>109.2</ele>
        <time>2019-12-22T09:56:57Z</time>
      </trkpt>
      <trkpt lat="49.03205" lon="1.14756">
        <ele>109.2</ele>
        <time>2019-12-22T09:57:02Z</time>
      </trkpt>
      <trkpt lat="49.03207" lon="1.14755">
        <ele>109.6</ele>
        <time>2019-12-22T09:57:04Z</time>
      </trkpt>
      <trkpt lat="49.03206" lon="1.14757">
        <ele>109.2</ele>
        <time>2019-12-22T09:57:12Z</time>
      </trkpt>
      <trkpt lat="49.03205" lon="1.14755">
        <ele>109.2</ele>
        <time>2019-12-22T09:57:26Z</time>
      </trkpt>
      <trkpt lat="49.03205" lon="1.14755">
        <ele>109.2</ele>
        <time>2019-12-22T09:57:27Z</time>
      </trkpt>
      <trkpt lat="49.03205" lon="1.14755">
        <ele>109.2</ele>
        <time>2019-12-22T09:57:33Z</time>
      </trkpt>
      <trkpt lat="49.03208" lon="1.14756">
        <ele>110</ele>
        <time>2019-12-22T09:58:00Z</time>
      </trkpt>
      <trkpt lat="49.03208" lon="1.14756">
        <ele>109.8</ele>
        <time>2019-12-22T09:58:01Z</time>
      </trkpt>
      <trkpt lat="49.03204" lon="1.14758">
        <ele>108.8</ele>
        <time>2019-12-22T09:58:05Z</time>
      </trkpt>
      <trkpt lat="49.03207" lon="1.14762">
        <ele>109</ele>
        <time>2019-12-22T09:58:17Z</time>
      </trkpt>
      <trkpt lat="49.03205" lon="1.14763">
        <ele>108.6</ele>
        <time>2019-12-22T09:58:21Z</time>
      </trkpt>
      <trkpt lat="49.03205" lon="1.14763">
        <ele>108.6</ele>
        <time>2019-12-22T09:58:23Z</time>
      </trkpt>
      <trkpt lat="49.03205" lon="1.14765">
        <ele>108.6</ele>
        <time>2019-12-22T09:58:28Z</time>
      </trkpt>
      <trkpt lat="49.03208" lon="1.14771">
        <ele>108.6</ele>
        <time>2019-12-22T09:58:39Z</time>
      </trkpt>
      <trkpt lat="49.03204" lon="1.1477">
        <ele>107.8</ele>
        <time>2019-12-22T09:58:42Z</time>
      </trkpt>
      <trkpt lat="49.03203" lon="1.14769">
        <ele>107.6</ele>
        <time>2019-12-22T09:58:43Z</time>
      </trkpt>
      <trkpt lat="49.03202" lon="1.14769">
        <ele>107.6</ele>
        <time>2019-12-22T09:58:44Z</time>
      </trkpt>
      <trkpt lat="49.03202" lon="1.1477">
        <ele>107.4</ele>
        <time>2019-12-22T09:58:45Z</time>
      </trkpt>
      <trkpt lat="49.03201" lon="1.1477">
        <ele>107.2</ele>
        <time>2019-12-22T09:58:46Z</time>
      </trkpt>
      <trkpt lat="49.03202" lon="1.14771">
        <ele>107.2</ele>
        <time>2019-12-22T09:58:47Z</time>
      </trkpt>
      <trkpt lat="49.03202" lon="1.14773">
        <ele>107.2</ele>
        <time>2019-12-22T09:58:50Z</time>
      </trkpt>
      <trkpt lat="49.03203" lon="1.14774">
        <ele>107.4</ele>
        <time>2019-12-22T09:58:54Z</time>
      </trkpt>
      <trkpt lat="49.03203" lon="1.14774">
        <ele>107.2</ele>
        <time>2019-12-22T09:58:55Z</time>
      </trkpt>
      <trkpt lat="49.03203" lon="1.14775">
        <ele>107.2</ele>
        <time>2019-12-22T09:58:56Z</time>
      </trkpt>
      <trkpt lat="49.032" lon="1.14775">
        <ele>106.6</ele>
        <time>2019-12-22T09:59:03Z</time>
      </trkpt>
      <trkpt lat="49.032" lon="1.14775">
        <ele>106.6</ele>
        <time>2019-12-22T09:59:05Z</time>
      </trkpt>
      <trkpt lat="49.032" lon="1.14775">
        <ele>106.6</ele>
        <time>2019-12-22T09:59:06Z</time>
      </trkpt>
      <trkpt lat="49.032" lon="1.14775">
        <ele>106.6</ele>
        <time>2019-12-22T09:59:08Z</time>
      </trkpt>
      <trkpt lat="49.032" lon="1.14775">
        <ele>106.6</ele>
        <time>2019-12-22T09:59:14Z</time>
      </trkpt>
      <trkpt lat="49.03202" lon="1.14777">
        <ele>107</ele>
        <time>2019-12-22T09:59:26Z</time>
      </trkpt>
      <trkpt lat="49.03204" lon="1.14778">
        <ele>107</ele>
        <time>2019-12-22T09:59:31Z</time>
      </trkpt>
      <trkpt lat="49.03215" lon="1.14764">
        <ele>110.6</ele>
        <time>2019-12-22T10:00:11Z</time>
      </trkpt>
      <trkpt lat="49.03221" lon="1.1476">
        <ele>112.2</ele>
        <time>2019-12-22T10:00:14Z</time>
      </trkpt>
      <trkpt lat="49.03264" lon="1.14813">
        <ele>116.2</ele>
        <time>2019-12-22T10:00:28Z</time>
      </trkpt>
      <trkpt lat="49.03297" lon="1.14878">
        <ele>111.4</ele>
        <time>2019-12-22T10:00:37Z</time>
      </trkpt>
      <trkpt lat="49.0332" lon="1.14953">
        <ele>106.6</ele>
        <time>2019-12-22T10:00:45Z</time>
      </trkpt>
      <trkpt lat="49.03328" lon="1.15034">
        <ele>100.6</ele>
        <time>2019-12-22T10:00:53Z</time>
      </trkpt>
      <trkpt lat="49.03336" lon="1.15033">
        <ele>101.6</ele>
        <time>2019-12-22T10:00:55Z</time>
      </trkpt>
      <trkpt lat="49.03344" lon="1.15031">
        <ele>102.6</ele>
        <time>2019-12-22T10:00:57Z</time>
      </trkpt>
      <trkpt lat="49.03353" lon="1.15025">
        <ele>103.8</ele>
        <time>2019-12-22T10:00:59Z</time>
      </trkpt>
      <trkpt lat="49.0336" lon="1.15018">
        <ele>105</ele>
        <time>2019-12-22T10:01:01Z</time>
      </trkpt>
      <trkpt lat="49.03395" lon="1.14952">
        <ele>104</ele>
        <time>2019-12-22T10:01:13Z</time>
      </trkpt>
      <trkpt lat="49.03418" lon="1.14885">
        <ele>107</ele>
        <time>2019-12-22T10:01:22Z</time>
      </trkpt>
      <trkpt lat="49.03425" lon="1.14861">
        <ele>107</ele>
        <time>2019-12-22T10:01:25Z</time>
      </trkpt>
      <trkpt lat="49.03427" lon="1.14837">
        <ele>107.2</ele>
        <time>2019-12-22T10:01:28Z</time>
      </trkpt>
      <trkpt lat="49.03424" lon="1.14817">
        <ele>108</ele>
        <time>2019-12-22T10:01:30Z</time>
      </trkpt>
      <trkpt lat="49.0342" lon="1.148">
        <ele>108.8</ele>
        <time>2019-12-22T10:01:32Z</time>
      </trkpt>
      <trkpt lat="49.03413" lon="1.14782">
        <ele>109.8</ele>
        <time>2019-12-22T10:01:34Z</time>
      </trkpt>
      <trkpt lat="49.03381" lon="1.1471">
        <ele>113</ele>
        <time>2019-12-22T10:01:44Z</time>
      </trkpt>
      <trkpt lat="49.03373" lon="1.14692">
        <ele>113</ele>
        <time>2019-12-22T10:01:47Z</time>
      </trkpt>
      <trkpt lat="49.03365" lon="1.14673">
        <ele>113</ele>
        <time>2019-12-22T10:01:50Z</time>
      </trkpt>
      <trkpt lat="49.03358" lon="1.14659">
        <ele>113</ele>
        <time>2019-12-22T10:01:52Z</time>
      </trkpt>
      <trkpt lat="49.03354" lon="1.14653">
        <ele>113.2</ele>
        <time>2019-12-22T10:01:53Z</time>
      </trkpt>
      <trkpt lat="49.03351" lon="1.14647">
        <ele>113.4</ele>
        <time>2019-12-22T10:01:54Z</time>
      </trkpt>
      <trkpt lat="49.03345" lon="1.14638">
        <ele>113.8</ele>
        <time>2019-12-22T10:01:56Z</time>
      </trkpt>
      <trkpt lat="49.0334" lon="1.14629">
        <ele>114</ele>
        <time>2019-12-22T10:01:58Z</time>
      </trkpt>
      <trkpt lat="49.03327" lon="1.14606">
        <ele>114.8</ele>
        <time>2019-12-22T10:02:02Z</time>
      </trkpt>
      <trkpt lat="49.0331" lon="1.14576">
        <ele>115.6</ele>
        <time>2019-12-22T10:02:08Z</time>
      </trkpt>
      <trkpt lat="49.03307" lon="1.14572">
        <ele>115.8</ele>
        <time>2019-12-22T10:02:09Z</time>
      </trkpt>
      <trkpt lat="49.03305" lon="1.14568">
        <ele>116</ele>
        <time>2019-12-22T10:02:10Z</time>
      </trkpt>
      <trkpt lat="49.033" lon="1.14559">
        <ele>116.2</ele>
        <time>2019-12-22T10:02:12Z</time>
      </trkpt>
      <trkpt lat="49.03289" lon="1.14539">
        <ele>117.4</ele>
        <time>2019-12-22T10:02:17Z</time>
      </trkpt>
      <trkpt lat="49.03287" lon="1.14535">
        <ele>117.6</ele>
        <time>2019-12-22T10:02:18Z</time>
      </trkpt>
      <trkpt lat="49.03285" lon="1.14531">
        <ele>117.8</ele>
        <time>2019-12-22T10:02:19Z</time>
      </trkpt>
      <trkpt lat="49.03283" lon="1.14527">
        <ele>118</ele>
        <time>2019-12-22T10:02:20Z</time>
      </trkpt>
      <trkpt lat="49.03281" lon="1.14524">
        <ele>118.2</ele>
        <time>2019-12-22T10:02:21Z</time>
      </trkpt>
      <trkpt lat="49.03276" lon="1.14506">
        <ele>118.6</ele>
        <time>2019-12-22T10:02:29Z</time>
      </trkpt>
      <trkpt lat="49.03327" lon="1.14472">
        <ele>115.6</ele>
        <time>2019-12-22T10:02:45Z</time>
      </trkpt>
      <trkpt lat="49.03372" lon="1.14462">
        <ele>116</ele>
        <time>2019-12-22T10:03:00Z</time>
      </trkpt>
      <trkpt lat="49.03373" lon="1.14463">
        <ele>116</ele>
        <time>2019-12-22T10:03:01Z</time>
      </trkpt>
      <trkpt lat="49.03372" lon="1.14465">
        <ele>115.8</ele>
        <time>2019-12-22T10:03:03Z</time>
      </trkpt>
      <trkpt lat="49.03369" lon="1.14484">
        <ele>114.2</ele>
        <time>2019-12-22T10:03:16Z</time>
      </trkpt>
      <trkpt lat="49.03373" lon="1.14486">
        <ele>114.2</ele>
        <time>2019-12-22T10:03:18Z</time>
      </trkpt>
      <trkpt lat="49.03381" lon="1.14491">
        <ele>114.4</ele>
        <time>2019-12-22T10:03:22Z</time>
      </trkpt>
      <trkpt lat="49.03391" lon="1.14496">
        <ele>114.6</ele>
        <time>2019-12-22T10:03:27Z</time>
      </trkpt>
      <trkpt lat="49.03393" lon="1.14497">
        <ele>114.6</ele>
        <time>2019-12-22T10:03:28Z</time>
      </trkpt>
      <trkpt lat="49.03399" lon="1.14502">
        <ele>114.4</ele>
        <time>2019-12-22T10:03:31Z</time>
      </trkpt>
      <trkpt lat="49.03407" lon="1.14514">
        <ele>114</ele>
        <time>2019-12-22T10:03:36Z</time>
      </trkpt>
      <trkpt lat="49.03421" lon="1.14538">
        <ele>112.6</ele>
        <time>2019-12-22T10:03:44Z</time>
      </trkpt>
      <trkpt lat="49.03432" lon="1.14543">
        <ele>113</ele>
        <time>2019-12-22T10:03:48Z</time>
      </trkpt>
      <trkpt lat="49.03446" lon="1.14553">
        <ele>113.2</ele>
        <time>2019-12-22T10:03:53Z</time>
      </trkpt>
      <trkpt lat="49.03466" lon="1.14575">
        <ele>114.2</ele>
        <time>2019-12-22T10:04:00Z</time>
      </trkpt>
      <trkpt lat="49.0347" lon="1.14585">
        <ele>113.8</ele>
        <time>2019-12-22T10:04:02Z</time>
      </trkpt>
      <trkpt lat="49.03481" lon="1.14598">
        <ele>114</ele>
        <time>2019-12-22T10:04:06Z</time>
      </trkpt>
      <trkpt lat="49.03495" lon="1.14614">
        <ele>114.4</ele>
        <time>2019-12-22T10:04:11Z</time>
      </trkpt>
      <trkpt lat="49.03498" lon="1.14617">
        <ele>114.6</ele>
        <time>2019-12-22T10:04:12Z</time>
      </trkpt>
      <trkpt lat="49.03515" lon="1.14647">
        <ele>114.2</ele>
        <time>2019-12-22T10:04:19Z</time>
      </trkpt>
      <trkpt lat="49.03519" lon="1.14661">
        <ele>113.2</ele>
        <time>2019-12-22T10:04:21Z</time>
      </trkpt>
      <trkpt lat="49.0355" lon="1.14729">
        <ele>110.6</ele>
        <time>2019-12-22T10:04:35Z</time>
      </trkpt>
      <trkpt lat="49.03572" lon="1.14771">
        <ele>112.4</ele>
        <time>2019-12-22T10:04:44Z</time>
      </trkpt>
      <trkpt lat="49.03598" lon="1.14803">
        <ele>115.4</ele>
        <time>2019-12-22T10:04:54Z</time>
      </trkpt>
      <trkpt lat="49.03654" lon="1.14803">
        <ele>121.2</ele>
        <time>2019-12-22T10:05:17Z</time>
      </trkpt>
      <trkpt lat="49.03687" lon="1.14791">
        <ele>124.8</ele>
        <time>2019-12-22T10:05:29Z</time>
      </trkpt>
      <trkpt lat="49.03737" lon="1.14758">
        <ele>126.2</ele>
        <time>2019-12-22T10:05:46Z</time>
      </trkpt>
      <trkpt lat="49.03753" lon="1.14754">
        <ele>126.4</ele>
        <time>2019-12-22T10:05:51Z</time>
      </trkpt>
      <trkpt lat="49.03785" lon="1.14729">
        <ele>128.4</ele>
        <time>2019-12-22T10:06:02Z</time>
      </trkpt>
      <trkpt lat="49.03788" lon="1.14722">
        <ele>128.6</ele>
        <time>2019-12-22T10:06:04Z</time>
      </trkpt>
      <trkpt lat="49.03815" lon="1.14652">
        <ele>130.4</ele>
        <time>2019-12-22T10:06:20Z</time>
      </trkpt>
      <trkpt lat="49.03826" lon="1.14622">
        <ele>130.4</ele>
        <time>2019-12-22T10:06:26Z</time>
      </trkpt>
      <trkpt lat="49.03827" lon="1.14611">
        <ele>130.6</ele>
        <time>2019-12-22T10:06:28Z</time>
      </trkpt>
      <trkpt lat="49.03827" lon="1.14584">
        <ele>131.8</ele>
        <time>2019-12-22T10:06:33Z</time>
      </trkpt>
      <trkpt lat="49.03847" lon="1.14516">
        <ele>132.6</ele>
        <time>2019-12-22T10:06:47Z</time>
      </trkpt>
      <trkpt lat="49.03851" lon="1.14437">
        <ele>134.2</ele>
        <time>2019-12-22T10:07:03Z</time>
      </trkpt>
      <trkpt lat="49.03856" lon="1.14421">
        <ele>134.6</ele>
        <time>2019-12-22T10:07:06Z</time>
      </trkpt>
      <trkpt lat="49.03868" lon="1.14402">
        <ele>134.2</ele>
        <time>2019-12-22T10:07:12Z</time>
      </trkpt>
      <trkpt lat="49.0388" lon="1.14376">
        <ele>133.8</ele>
        <time>2019-12-22T10:07:18Z</time>
      </trkpt>
      <trkpt lat="49.03882" lon="1.14292">
        <ele>134.2</ele>
        <time>2019-12-22T10:07:33Z</time>
      </trkpt>
      <trkpt lat="49.03866" lon="1.14256">
        <ele>134.2</ele>
        <time>2019-12-22T10:07:40Z</time>
      </trkpt>
      <trkpt lat="49.0383" lon="1.14193">
        <ele>133.2</ele>
        <time>2019-12-22T10:07:55Z</time>
      </trkpt>
      <trkpt lat="49.03816" lon="1.14146">
        <ele>133</ele>
        <time>2019-12-22T10:08:04Z</time>
      </trkpt>
      <trkpt lat="49.03779" lon="1.14111">
        <ele>132.8</ele>
        <time>2019-12-22T10:08:16Z</time>
      </trkpt>
      <trkpt lat="49.03745" lon="1.14096">
        <ele>131.8</ele>
        <time>2019-12-22T10:08:28Z</time>
      </trkpt>
      <trkpt lat="49.03726" lon="1.14121">
        <ele>131.2</ele>
        <time>2019-12-22T10:08:37Z</time>
      </trkpt>
      <trkpt lat="49.03726" lon="1.14138">
        <ele>131.4</ele>
        <time>2019-12-22T10:08:40Z</time>
      </trkpt>
      <trkpt lat="49.03699" lon="1.14212">
        <ele>132.6</ele>
        <time>2019-12-22T10:08:54Z</time>
      </trkpt>
      <trkpt lat="49.0368" lon="1.14241">
        <ele>132.2</ele>
        <time>2019-12-22T10:09:00Z</time>
      </trkpt>
      <trkpt lat="49.03631" lon="1.1429">
        <ele>130.2</ele>
        <time>2019-12-22T10:09:13Z</time>
      </trkpt>
      <trkpt lat="49.03619" lon="1.1431">
        <ele>130.2</ele>
        <time>2019-12-22T10:09:17Z</time>
      </trkpt>
      <trkpt lat="49.03616" lon="1.14321">
        <ele>130</ele>
        <time>2019-12-22T10:09:24Z</time>
      </trkpt>
      <trkpt lat="49.03612" lon="1.14333">
        <ele>129.8</ele>
        <time>2019-12-22T10:09:36Z</time>
      </trkpt>
      <trkpt lat="49.03603" lon="1.14345">
        <ele>129.8</ele>
        <time>2019-12-22T10:09:39Z</time>
      </trkpt>
      <trkpt lat="49.03575" lon="1.14362">
        <ele>131</ele>
        <time>2019-12-22T10:09:46Z</time>
      </trkpt>
      <trkpt lat="49.03557" lon="1.14374">
        <ele>131</ele>
        <time>2019-12-22T10:09:50Z</time>
      </trkpt>
      <trkpt lat="49.03548" lon="1.14378">
        <ele>131</ele>
        <time>2019-12-22T10:09:52Z</time>
      </trkpt>
      <trkpt lat="49.03533" lon="1.14384">
        <ele>131.2</ele>
        <time>2019-12-22T10:09:59Z</time>
      </trkpt>
      <trkpt lat="49.03527" lon="1.14394">
        <ele>131</ele>
        <time>2019-12-22T10:10:02Z</time>
      </trkpt>
      <trkpt lat="49.03495" lon="1.1441">
        <ele>130.4</ele>
        <time>2019-12-22T10:10:12Z</time>
      </trkpt>
      <trkpt lat="49.03475" lon="1.1439">
        <ele>131.2</ele>
        <time>2019-12-22T10:10:18Z</time>
      </trkpt>
      <trkpt lat="49.03448" lon="1.14361">
        <ele>131.8</ele>
        <time>2019-12-22T10:10:26Z</time>
      </trkpt>
      <trkpt lat="49.03425" lon="1.14337">
        <ele>130.2</ele>
        <time>2019-12-22T10:10:32Z</time>
      </trkpt>
      <trkpt lat="49.03391" lon="1.14299">
        <ele>126.6</ele>
        <time>2019-12-22T10:10:41Z</time>
      </trkpt>
      <trkpt lat="49.03384" lon="1.14283">
        <ele>126.2</ele>
        <time>2019-12-22T10:10:45Z</time>
      </trkpt>
      <trkpt lat="49.03369" lon="1.14275">
        <ele>124.6</ele>
        <time>2019-12-22T10:10:49Z</time>
      </trkpt>
      <trkpt lat="49.03346" lon="1.14251">
        <ele>123.6</ele>
        <time>2019-12-22T10:10:55Z</time>
      </trkpt>
      <trkpt lat="49.03337" lon="1.1423">
        <ele>123.8</ele>
        <time>2019-12-22T10:11:00Z</time>
      </trkpt>
      <trkpt lat="49.03336" lon="1.14217">
        <ele>124.2</ele>
        <time>2019-12-22T10:11:03Z</time>
      </trkpt>
      <trkpt lat="49.03335" lon="1.14202">
        <ele>124.8</ele>
        <time>2019-12-22T10:11:06Z</time>
      </trkpt>
      <trkpt lat="49.03331" lon="1.14187">
        <ele>125.2</ele>
        <time>2019-12-22T10:11:09Z</time>
      </trkpt>
      <trkpt lat="49.03332" lon="1.14162">
        <ele>126.6</ele>
        <time>2019-12-22T10:11:17Z</time>
      </trkpt>
      <trkpt lat="49.0333" lon="1.14118">
        <ele>128</ele>
        <time>2019-12-22T10:11:26Z</time>
      </trkpt>
      <trkpt lat="49.03339" lon="1.14097">
        <ele>128</ele>
        <time>2019-12-22T10:11:31Z</time>
      </trkpt>
      <trkpt lat="49.03343" lon="1.14087">
        <ele>128</ele>
        <time>2019-12-22T10:11:34Z</time>
      </trkpt>
      <trkpt lat="49.03338" lon="1.14066">
        <ele>127.6</ele>
        <time>2019-12-22T10:11:39Z</time>
      </trkpt>
      <trkpt lat="49.03325" lon="1.13988">
        <ele>125.8</ele>
        <time>2019-12-22T10:11:56Z</time>
      </trkpt>
      <trkpt lat="49.03331" lon="1.13961">
        <ele>125.4</ele>
        <time>2019-12-22T10:12:02Z</time>
      </trkpt>
      <trkpt lat="49.03333" lon="1.1392">
        <ele>125</ele>
        <time>2019-12-22T10:12:12Z</time>
      </trkpt>
      <trkpt lat="49.03366" lon="1.13926">
        <ele>125.8</ele>
        <time>2019-12-22T10:12:27Z</time>
      </trkpt>
      <trkpt lat="49.03397" lon="1.13938">
        <ele>127.4</ele>
        <time>2019-12-22T10:12:39Z</time>
      </trkpt>
      <trkpt lat="49.03437" lon="1.13986">
        <ele>129.6</ele>
        <time>2019-12-22T10:12:57Z</time>
      </trkpt>
      <trkpt lat="49.03449" lon="1.14004">
        <ele>130</ele>
        <time>2019-12-22T10:13:02Z</time>
      </trkpt>
      <trkpt lat="49.03455" lon="1.14011">
        <ele>130.2</ele>
        <time>2019-12-22T10:13:05Z</time>
      </trkpt>
      <trkpt lat="49.03461" lon="1.1401">
        <ele>130.6</ele>
        <time>2019-12-22T10:13:07Z</time>
      </trkpt>
      <trkpt lat="49.03471" lon="1.14006">
        <ele>131</ele>
        <time>2019-12-22T10:13:10Z</time>
      </trkpt>
      <trkpt lat="49.03495" lon="1.13992">
        <ele>131.8</ele>
        <time>2019-12-22T10:13:19Z</time>
      </trkpt>
      <trkpt lat="49.0353" lon="1.13925">
        <ele>133</ele>
        <time>2019-12-22T10:13:38Z</time>
      </trkpt>
      <trkpt lat="49.03551" lon="1.13897">
        <ele>133.6</ele>
        <time>2019-12-22T10:13:45Z</time>
      </trkpt>
      <trkpt lat="49.03561" lon="1.13886">
        <ele>133.6</ele>
        <time>2019-12-22T10:13:48Z</time>
      </trkpt>
      <trkpt lat="49.03565" lon="1.13883">
        <ele>133.6</ele>
        <time>2019-12-22T10:13:49Z</time>
      </trkpt>
      <trkpt lat="49.03568" lon="1.1388">
        <ele>133.6</ele>
        <time>2019-12-22T10:13:50Z</time>
      </trkpt>
      <trkpt lat="49.03618" lon="1.13837">
        <ele>133</ele>
        <time>2019-12-22T10:14:03Z</time>
      </trkpt>
      <trkpt lat="49.03644" lon="1.13818">
        <ele>133.6</ele>
        <time>2019-12-22T10:14:10Z</time>
      </trkpt>
      <trkpt lat="49.03675" lon="1.13804">
        <ele>135</ele>
        <time>2019-12-22T10:14:18Z</time>
      </trkpt>
      <trkpt lat="49.03687" lon="1.13738">
        <ele>136.4</ele>
        <time>2019-12-22T10:14:30Z</time>
      </trkpt>
      <trkpt lat="49.03689" lon="1.1372">
        <ele>136.6</ele>
        <time>2019-12-22T10:14:33Z</time>
      </trkpt>
      <trkpt lat="49.03702" lon="1.13688">
        <ele>135.4</ele>
        <time>2019-12-22T10:14:40Z</time>
      </trkpt>
      <trkpt lat="49.03731" lon="1.13698">
        <ele>135.4</ele>
        <time>2019-12-22T10:14:48Z</time>
      </trkpt>
      <trkpt lat="49.03743" lon="1.13706">
        <ele>135.6</ele>
        <time>2019-12-22T10:14:51Z</time>
      </trkpt>
      <trkpt lat="49.03749" lon="1.13712">
        <ele>135.8</ele>
        <time>2019-12-22T10:14:53Z</time>
      </trkpt>
      <trkpt lat="49.03798" lon="1.13753">
        <ele>136.2</ele>
        <time>2019-12-22T10:15:08Z</time>
      </trkpt>
      <trkpt lat="49.03807" lon="1.1376">
        <ele>136.4</ele>
        <time>2019-12-22T10:15:10Z</time>
      </trkpt>
      <trkpt lat="49.03823" lon="1.13773">
        <ele>136.6</ele>
        <time>2019-12-22T10:15:14Z</time>
      </trkpt>
      <trkpt lat="49.03853" lon="1.13793">
        <ele>136.8</ele>
        <time>2019-12-22T10:15:21Z</time>
      </trkpt>
      <trkpt lat="49.03873" lon="1.13807">
        <ele>137.4</ele>
        <time>2019-12-22T10:15:26Z</time>
      </trkpt>
      <trkpt lat="49.03921" lon="1.13846">
        <ele>138.8</ele>
        <time>2019-12-22T10:15:39Z</time>
      </trkpt>
      <trkpt lat="49.03971" lon="1.13888">
        <ele>139</ele>
        <time>2019-12-22T10:15:51Z</time>
      </trkpt>
      <trkpt lat="49.03985" lon="1.139">
        <ele>138.8</ele>
        <time>2019-12-22T10:15:54Z</time>
      </trkpt>
      <trkpt lat="49.04015" lon="1.13918">
        <ele>138.2</ele>
        <time>2019-12-22T10:16:01Z</time>
      </trkpt>
      <trkpt lat="49.04063" lon="1.13879">
        <ele>137.2</ele>
        <time>2019-12-22T10:16:14Z</time>
      </trkpt>
      <trkpt lat="49.04118" lon="1.13888">
        <ele>135</ele>
        <time>2019-12-22T10:16:30Z</time>
      </trkpt>
      <trkpt lat="49.0413" lon="1.1388">
        <ele>135</ele>
        <time>2019-12-22T10:16:33Z</time>
      </trkpt>
      <trkpt lat="49.04156" lon="1.13852">
        <ele>135</ele>
        <time>2019-12-22T10:16:43Z</time>
      </trkpt>
      <trkpt lat="49.04151" lon="1.13815">
        <ele>134.6</ele>
        <time>2019-12-22T10:16:50Z</time>
      </trkpt>
      <trkpt lat="49.04138" lon="1.13735">
        <ele>132.6</ele>
        <time>2019-12-22T10:17:04Z</time>
      </trkpt>
      <trkpt lat="49.04138" lon="1.13728">
        <ele>132.6</ele>
        <time>2019-12-22T10:17:10Z</time>
      </trkpt>
      <trkpt lat="49.04138" lon="1.13728">
        <ele>132.6</ele>
        <time>2019-12-22T10:17:14Z</time>
      </trkpt>
      <trkpt lat="49.04138" lon="1.13724">
        <ele>132.6</ele>
        <time>2019-12-22T10:17:23Z</time>
      </trkpt>
      <trkpt lat="49.04133" lon="1.1364">
        <ele>131.6</ele>
        <time>2019-12-22T10:17:36Z</time>
      </trkpt>
      <trkpt lat="49.04132" lon="1.13618">
        <ele>131.6</ele>
        <time>2019-12-22T10:17:39Z</time>
      </trkpt>
      <trkpt lat="49.0413" lon="1.13605">
        <ele>131.4</ele>
        <time>2019-12-22T10:17:41Z</time>
      </trkpt>
      <trkpt lat="49.04106" lon="1.13561">
        <ele>131</ele>
        <time>2019-12-22T10:17:49Z</time>
      </trkpt>
      <trkpt lat="49.041" lon="1.1355">
        <ele>131</ele>
        <time>2019-12-22T10:17:51Z</time>
      </trkpt>
      <trkpt lat="49.04066" lon="1.13483">
        <ele>131.8</ele>
        <time>2019-12-22T10:18:06Z</time>
      </trkpt>
      <trkpt lat="49.04056" lon="1.13452">
        <ele>132.6</ele>
        <time>2019-12-22T10:18:12Z</time>
      </trkpt>
      <trkpt lat="49.04052" lon="1.13442">
        <ele>133</ele>
        <time>2019-12-22T10:18:14Z</time>
      </trkpt>
      <trkpt lat="49.04053" lon="1.13426">
        <ele>133.4</ele>
        <time>2019-12-22T10:18:17Z</time>
      </trkpt>
      <trkpt lat="49.04057" lon="1.13416">
        <ele>133.8</ele>
        <time>2019-12-22T10:18:19Z</time>
      </trkpt>
      <trkpt lat="49.04064" lon="1.13408">
        <ele>133.8</ele>
        <time>2019-12-22T10:18:21Z</time>
      </trkpt>
      <trkpt lat="49.04091" lon="1.13389">
        <ele>134.4</ele>
        <time>2019-12-22T10:18:28Z</time>
      </trkpt>
      <trkpt lat="49.04102" lon="1.13377">
        <ele>134.8</ele>
        <time>2019-12-22T10:18:32Z</time>
      </trkpt>
      <trkpt lat="49.04117" lon="1.13338">
        <ele>135.2</ele>
        <time>2019-12-22T10:18:41Z</time>
      </trkpt>
      <trkpt lat="49.04125" lon="1.13333">
        <ele>135.2</ele>
        <time>2019-12-22T10:18:44Z</time>
      </trkpt>
      <trkpt lat="49.0413" lon="1.13329">
        <ele>135.2</ele>
        <time>2019-12-22T10:18:46Z</time>
      </trkpt>
      <trkpt lat="49.04133" lon="1.13328">
        <ele>135.2</ele>
        <time>2019-12-22T10:18:47Z</time>
      </trkpt>
      <trkpt lat="49.04164" lon="1.13304">
        <ele>134.6</ele>
        <time>2019-12-22T10:18:58Z</time>
      </trkpt>
      <trkpt lat="49.04166" lon="1.13303">
        <ele>134.6</ele>
        <time>2019-12-22T10:19:05Z</time>
      </trkpt>
      <trkpt lat="49.04167" lon="1.133">
        <ele>134.4</ele>
        <time>2019-12-22T10:19:07Z</time>
      </trkpt>
      <trkpt lat="49.04195" lon="1.13309">
        <ele>134</ele>
        <time>2019-12-22T10:19:18Z</time>
      </trkpt>
      <trkpt lat="49.04201" lon="1.13318">
        <ele>134.2</ele>
        <time>2019-12-22T10:19:21Z</time>
      </trkpt>
      <trkpt lat="49.04234" lon="1.13305">
        <ele>135</ele>
        <time>2019-12-22T10:19:34Z</time>
      </trkpt>
      <trkpt lat="49.04228" lon="1.1326">
        <ele>134.2</ele>
        <time>2019-12-22T10:19:45Z</time>
      </trkpt>
      <trkpt lat="49.04225" lon="1.13257">
        <ele>134.2</ele>
        <time>2019-12-22T10:19:50Z</time>
      </trkpt>
      <trkpt lat="49.04225" lon="1.13257">
        <ele>134.2</ele>
        <time>2019-12-22T10:19:54Z</time>
      </trkpt>
      <trkpt lat="49.04225" lon="1.13257">
        <ele>134.2</ele>
        <time>2019-12-22T10:20:01Z</time>
      </trkpt>
      <trkpt lat="49.04225" lon="1.13257">
        <ele>134.2</ele>
        <time>2019-12-22T10:20:08Z</time>
      </trkpt>
      <trkpt lat="49.04225" lon="1.13257">
        <ele>134.2</ele>
        <time>2019-12-22T10:20:10Z</time>
      </trkpt>
      <trkpt lat="49.04225" lon="1.13257">
        <ele>134.2</ele>
        <time>2019-12-22T10:20:13Z</time>
      </trkpt>
      <trkpt lat="49.04225" lon="1.13257">
        <ele>134.2</ele>
        <time>2019-12-22T10:20:19Z</time>
      </trkpt>
      <trkpt lat="49.04225" lon="1.13257">
        <ele>134.2</ele>
        <time>2019-12-22T10:20:20Z</time>
      </trkpt>
      <trkpt lat="49.04225" lon="1.13257">
        <ele>134.2</ele>
        <time>2019-12-22T10:20:26Z</time>
      </trkpt>
      <trkpt lat="49.04211" lon="1.13199">
        <ele>133.6</ele>
        <time>2019-12-22T10:20:40Z</time>
      </trkpt>
      <trkpt lat="49.04201" lon="1.13156">
        <ele>134</ele>
        <time>2019-12-22T10:20:47Z</time>
      </trkpt>
      <trkpt lat="49.04196" lon="1.13137">
        <ele>134</ele>
        <time>2019-12-22T10:20:50Z</time>
      </trkpt>
      <trkpt lat="49.04191" lon="1.13117">
        <ele>134</ele>
        <time>2019-12-22T10:20:53Z</time>
      </trkpt>
      <trkpt lat="49.04183" lon="1.13085">
        <ele>133.8</ele>
        <time>2019-12-22T10:20:58Z</time>
      </trkpt>
      <trkpt lat="49.04177" lon="1.1306">
        <ele>133.8</ele>
        <time>2019-12-22T10:21:02Z</time>
      </trkpt>
      <trkpt lat="49.04174" lon="1.13033">
        <ele>134</ele>
        <time>2019-12-22T10:21:06Z</time>
      </trkpt>
      <trkpt lat="49.04175" lon="1.13019">
        <ele>134</ele>
        <time>2019-12-22T10:21:08Z</time>
      </trkpt>
      <trkpt lat="49.04173" lon="1.12945">
        <ele>134.4</ele>
        <time>2019-12-22T10:21:20Z</time>
      </trkpt>
      <trkpt lat="49.04175" lon="1.12936">
        <ele>134.4</ele>
        <time>2019-12-22T10:21:22Z</time>
      </trkpt>
      <trkpt lat="49.0418" lon="1.12932">
        <ele>134.4</ele>
        <time>2019-12-22T10:21:24Z</time>
      </trkpt>
      <trkpt lat="49.04236" lon="1.12934">
        <ele>134.4</ele>
        <time>2019-12-22T10:21:39Z</time>
      </trkpt>
      <trkpt lat="49.04243" lon="1.12917">
        <ele>134</ele>
        <time>2019-12-22T10:21:44Z</time>
      </trkpt>
      <trkpt lat="49.04239" lon="1.12912">
        <ele>133.8</ele>
        <time>2019-12-22T10:21:46Z</time>
      </trkpt>
      <trkpt lat="49.04235" lon="1.12907">
        <ele>133.8</ele>
        <time>2019-12-22T10:21:48Z</time>
      </trkpt>
      <trkpt lat="49.04233" lon="1.12898">
        <ele>133.6</ele>
        <time>2019-12-22T10:21:51Z</time>
      </trkpt>
      <trkpt lat="49.04229" lon="1.12891">
        <ele>133.6</ele>
        <time>2019-12-22T10:21:56Z</time>
      </trkpt>
      <trkpt lat="49.04222" lon="1.12857">
        <ele>134</ele>
        <time>2019-12-22T10:22:05Z</time>
      </trkpt>
      <trkpt lat="49.04212" lon="1.12807">
        <ele>134.8</ele>
        <time>2019-12-22T10:22:17Z</time>
      </trkpt>
      <trkpt lat="49.04197" lon="1.12724">
        <ele>135</ele>
        <time>2019-12-22T10:22:39Z</time>
      </trkpt>
      <trkpt lat="49.04195" lon="1.12709">
        <ele>134.8</ele>
        <time>2019-12-22T10:22:43Z</time>
      </trkpt>
      <trkpt lat="49.04199" lon="1.12647">
        <ele>134</ele>
        <time>2019-12-22T10:23:01Z</time>
      </trkpt>
      <trkpt lat="49.04234" lon="1.1259">
        <ele>135.6</ele>
        <time>2019-12-22T10:23:21Z</time>
      </trkpt>
      <trkpt lat="49.04206" lon="1.12517">
        <ele>137.6</ele>
        <time>2019-12-22T10:23:40Z</time>
      </trkpt>
      <trkpt lat="49.042" lon="1.1249">
        <ele>138.6</ele>
        <time>2019-12-22T10:23:47Z</time>
      </trkpt>
      <trkpt lat="49.04192" lon="1.12482">
        <ele>138.8</ele>
        <time>2019-12-22T10:23:54Z</time>
      </trkpt>
      <trkpt lat="49.04188" lon="1.12488">
        <ele>138.6</ele>
        <time>2019-12-22T10:23:57Z</time>
      </trkpt>
      <trkpt lat="49.04188" lon="1.12492">
        <ele>138.4</ele>
        <time>2019-12-22T10:24:03Z</time>
      </trkpt>
      <trkpt lat="49.04205" lon="1.12467">
        <ele>139</ele>
        <time>2019-12-22T10:24:10Z</time>
      </trkpt>
      <trkpt lat="49.04211" lon="1.12459">
        <ele>139</ele>
        <time>2019-12-22T10:24:12Z</time>
      </trkpt>
      <trkpt lat="49.04215" lon="1.12456">
        <ele>139</ele>
        <time>2019-12-22T10:24:13Z</time>
      </trkpt>
      <trkpt lat="49.04244" lon="1.12422">
        <ele>140.2</ele>
        <time>2019-12-22T10:24:22Z</time>
      </trkpt>
      <trkpt lat="49.04257" lon="1.12406">
        <ele>141.6</ele>
        <time>2019-12-22T10:24:30Z</time>
      </trkpt>
      <trkpt lat="49.04261" lon="1.12404">
        <ele>141.8</ele>
        <time>2019-12-22T10:24:35Z</time>
      </trkpt>
      <trkpt lat="49.04258" lon="1.12398">
        <ele>142</ele>
        <time>2019-12-22T10:24:40Z</time>
      </trkpt>
      <trkpt lat="49.04253" lon="1.12352">
        <ele>143</ele>
        <time>2019-12-22T10:24:55Z</time>
      </trkpt>
      <trkpt lat="49.04232" lon="1.12274">
        <ele>143.8</ele>
        <time>2019-12-22T10:25:10Z</time>
      </trkpt>
      <trkpt lat="49.04231" lon="1.12255">
        <ele>144</ele>
        <time>2019-12-22T10:25:13Z</time>
      </trkpt>
      <trkpt lat="49.0423" lon="1.12248">
        <ele>143.8</ele>
        <time>2019-12-22T10:25:14Z</time>
      </trkpt>
      <trkpt lat="49.04229" lon="1.12241">
        <ele>143.8</ele>
        <time>2019-12-22T10:25:15Z</time>
      </trkpt>
      <trkpt lat="49.04218" lon="1.12204">
        <ele>143.8</ele>
        <time>2019-12-22T10:25:21Z</time>
      </trkpt>
      <trkpt lat="49.04193" lon="1.12165">
        <ele>143.8</ele>
        <time>2019-12-22T10:25:30Z</time>
      </trkpt>
      <trkpt lat="49.04185" lon="1.12169">
        <ele>143.4</ele>
        <time>2019-12-22T10:25:33Z</time>
      </trkpt>
      <trkpt lat="49.04179" lon="1.12166">
        <ele>143</ele>
        <time>2019-12-22T10:25:35Z</time>
      </trkpt>
      <trkpt lat="49.04169" lon="1.12139">
        <ele>142.8</ele>
        <time>2019-12-22T10:25:40Z</time>
      </trkpt>
      <trkpt lat="49.04153" lon="1.12096">
        <ele>142</ele>
        <time>2019-12-22T10:25:48Z</time>
      </trkpt>
      <trkpt lat="49.04147" lon="1.12084">
        <ele>141.8</ele>
        <time>2019-12-22T10:25:50Z</time>
      </trkpt>
      <trkpt lat="49.04139" lon="1.12073">
        <ele>141.4</ele>
        <time>2019-12-22T10:25:52Z</time>
      </trkpt>
      <trkpt lat="49.04134" lon="1.1206">
        <ele>141.2</ele>
        <time>2019-12-22T10:25:54Z</time>
      </trkpt>
      <trkpt lat="49.04128" lon="1.12032">
        <ele>141.6</ele>
        <time>2019-12-22T10:25:58Z</time>
      </trkpt>
      <trkpt lat="49.04124" lon="1.1202">
        <ele>141.6</ele>
        <time>2019-12-22T10:26:00Z</time>
      </trkpt>
      <trkpt lat="49.04119" lon="1.12011">
        <ele>141.6</ele>
        <time>2019-12-22T10:26:02Z</time>
      </trkpt>
      <trkpt lat="49.04114" lon="1.12">
        <ele>141.6</ele>
        <time>2019-12-22T10:26:04Z</time>
      </trkpt>
      <trkpt lat="49.0411" lon="1.11974">
        <ele>142</ele>
        <time>2019-12-22T10:26:08Z</time>
      </trkpt>
      <trkpt lat="49.04108" lon="1.11945">
        <ele>142.4</ele>
        <time>2019-12-22T10:26:12Z</time>
      </trkpt>
      <trkpt lat="49.04101" lon="1.11916">
        <ele>142.6</ele>
        <time>2019-12-22T10:26:17Z</time>
      </trkpt>
      <trkpt lat="49.04079" lon="1.11889">
        <ele>142.2</ele>
        <time>2019-12-22T10:26:23Z</time>
      </trkpt>
      <trkpt lat="49.04062" lon="1.11876">
        <ele>141.2</ele>
        <time>2019-12-22T10:26:28Z</time>
      </trkpt>
      <trkpt lat="49.04046" lon="1.11876">
        <ele>140.8</ele>
        <time>2019-12-22T10:26:34Z</time>
      </trkpt>
      <trkpt lat="49.04032" lon="1.11868">
        <ele>140.2</ele>
        <time>2019-12-22T10:26:38Z</time>
      </trkpt>
      <trkpt lat="49.04024" lon="1.11862">
        <ele>139.6</ele>
        <time>2019-12-22T10:26:40Z</time>
      </trkpt>
      <trkpt lat="49.03983" lon="1.11851">
        <ele>133.4</ele>
        <time>2019-12-22T10:26:51Z</time>
      </trkpt>
      <trkpt lat="49.03978" lon="1.11857">
        <ele>133.2</ele>
        <time>2019-12-22T10:26:53Z</time>
      </trkpt>
      <trkpt lat="49.03942" lon="1.11878">
        <ele>131.6</ele>
        <time>2019-12-22T10:27:05Z</time>
      </trkpt>
      <trkpt lat="49.0392" lon="1.11925">
        <ele>132.8</ele>
        <time>2019-12-22T10:27:14Z</time>
      </trkpt>
      <trkpt lat="49.03906" lon="1.11945">
        <ele>132.8</ele>
        <time>2019-12-22T10:27:18Z</time>
      </trkpt>
      <trkpt lat="49.03862" lon="1.11999">
        <ele>137.8</ele>
        <time>2019-12-22T10:27:31Z</time>
      </trkpt>
      <trkpt lat="49.03838" lon="1.12034">
        <ele>138.8</ele>
        <time>2019-12-22T10:27:39Z</time>
      </trkpt>
      <trkpt lat="49.03829" lon="1.12045">
        <ele>139</ele>
        <time>2019-12-22T10:27:42Z</time>
      </trkpt>
      <trkpt lat="49.03823" lon="1.12054">
        <ele>139</ele>
        <time>2019-12-22T10:27:44Z</time>
      </trkpt>
      <trkpt lat="49.03785" lon="1.12107">
        <ele>139.2</ele>
        <time>2019-12-22T10:27:56Z</time>
      </trkpt>
      <trkpt lat="49.03747" lon="1.12166">
        <ele>134.8</ele>
        <time>2019-12-22T10:28:08Z</time>
      </trkpt>
      <trkpt lat="49.0373" lon="1.1223">
        <ele>131.2</ele>
        <time>2019-12-22T10:28:18Z</time>
      </trkpt>
      <trkpt lat="49.0373" lon="1.12257">
        <ele>130.4</ele>
        <time>2019-12-22T10:28:22Z</time>
      </trkpt>
      <trkpt lat="49.03729" lon="1.12278">
        <ele>130.4</ele>
        <time>2019-12-22T10:28:25Z</time>
      </trkpt>
      <trkpt lat="49.03716" lon="1.12338">
        <ele>129.6</ele>
        <time>2019-12-22T10:28:34Z</time>
      </trkpt>
      <trkpt lat="49.03709" lon="1.12358">
        <ele>129.8</ele>
        <time>2019-12-22T10:28:37Z</time>
      </trkpt>
      <trkpt lat="49.03704" lon="1.12374">
        <ele>130.2</ele>
        <time>2019-12-22T10:28:39Z</time>
      </trkpt>
      <trkpt lat="49.03686" lon="1.12425">
        <ele>130</ele>
        <time>2019-12-22T10:28:46Z</time>
      </trkpt>
      <trkpt lat="49.03665" lon="1.1248">
        <ele>131.4</ele>
        <time>2019-12-22T10:28:53Z</time>
      </trkpt>
      <trkpt lat="49.0365" lon="1.12512">
        <ele>130.4</ele>
        <time>2019-12-22T10:28:57Z</time>
      </trkpt>
      <trkpt lat="49.03637" lon="1.12535">
        <ele>131.6</ele>
        <time>2019-12-22T10:29:01Z</time>
      </trkpt>
      <trkpt lat="49.03629" lon="1.12543">
        <ele>132</ele>
        <time>2019-12-22T10:29:03Z</time>
      </trkpt>
      <trkpt lat="49.03578" lon="1.12571">
        <ele>133.2</ele>
        <time>2019-12-22T10:29:19Z</time>
      </trkpt>
      <trkpt lat="49.03543" lon="1.1263">
        <ele>134.4</ele>
        <time>2019-12-22T10:29:34Z</time>
      </trkpt>
      <trkpt lat="49.03501" lon="1.12685">
        <ele>135.2</ele>
        <time>2019-12-22T10:29:47Z</time>
      </trkpt>
      <trkpt lat="49.03486" lon="1.12712">
        <ele>135</ele>
        <time>2019-12-22T10:29:52Z</time>
      </trkpt>
      <trkpt lat="49.03474" lon="1.12734">
        <ele>134.6</ele>
        <time>2019-12-22T10:29:56Z</time>
      </trkpt>
      <trkpt lat="49.03444" lon="1.12797">
        <ele>133.2</ele>
        <time>2019-12-22T10:30:07Z</time>
      </trkpt>
      <trkpt lat="49.03441" lon="1.12842">
        <ele>132.2</ele>
        <time>2019-12-22T10:30:14Z</time>
      </trkpt>
      <trkpt lat="49.03437" lon="1.12882">
        <ele>131.2</ele>
        <time>2019-12-22T10:30:21Z</time>
      </trkpt>
      <trkpt lat="49.03424" lon="1.12899">
        <ele>131.2</ele>
        <time>2019-12-22T10:30:27Z</time>
      </trkpt>
      <trkpt lat="49.03392" lon="1.12939">
        <ele>131.6</ele>
        <time>2019-12-22T10:30:38Z</time>
      </trkpt>
      <trkpt lat="49.03383" lon="1.12952">
        <ele>131.2</ele>
        <time>2019-12-22T10:30:41Z</time>
      </trkpt>
      <trkpt lat="49.03354" lon="1.12997">
        <ele>129.8</ele>
        <time>2019-12-22T10:30:50Z</time>
      </trkpt>
      <trkpt lat="49.03341" lon="1.13019">
        <ele>129.8</ele>
        <time>2019-12-22T10:30:54Z</time>
      </trkpt>
      <trkpt lat="49.03324" lon="1.13048">
        <ele>129.6</ele>
        <time>2019-12-22T10:30:59Z</time>
      </trkpt>
      <trkpt lat="49.03289" lon="1.13114">
        <ele>130.6</ele>
        <time>2019-12-22T10:31:10Z</time>
      </trkpt>
      <trkpt lat="49.03253" lon="1.1318">
        <ele>131.2</ele>
        <time>2019-12-22T10:31:21Z</time>
      </trkpt>
      <trkpt lat="49.03229" lon="1.13224">
        <ele>130</ele>
        <time>2019-12-22T10:31:28Z</time>
      </trkpt>
      <trkpt lat="49.0319" lon="1.13291">
        <ele>127.4</ele>
        <time>2019-12-22T10:31:38Z</time>
      </trkpt>
      <trkpt lat="49.03149" lon="1.13347">
        <ele>127</ele>
        <time>2019-12-22T10:31:49Z</time>
      </trkpt>
      <trkpt lat="49.03122" lon="1.13397">
        <ele>127.8</ele>
        <time>2019-12-22T10:31:57Z</time>
      </trkpt>
      <trkpt lat="49.03108" lon="1.13425">
        <ele>128.4</ele>
        <time>2019-12-22T10:32:01Z</time>
      </trkpt>
      <trkpt lat="49.03074" lon="1.1349">
        <ele>128.6</ele>
        <time>2019-12-22T10:32:11Z</time>
      </trkpt>
      <trkpt lat="49.03048" lon="1.1354">
        <ele>127.8</ele>
        <time>2019-12-22T10:32:19Z</time>
      </trkpt>
      <trkpt lat="49.03039" lon="1.13547">
        <ele>127.4</ele>
        <time>2019-12-22T10:32:21Z</time>
      </trkpt>
      <trkpt lat="49.0303" lon="1.13545">
        <ele>127.2</ele>
        <time>2019-12-22T10:32:23Z</time>
      </trkpt>
      <trkpt lat="49.03018" lon="1.13536">
        <ele>127.2</ele>
        <time>2019-12-22T10:32:26Z</time>
      </trkpt>
      <trkpt lat="49.0301" lon="1.13532">
        <ele>127</ele>
        <time>2019-12-22T10:32:28Z</time>
      </trkpt>
      <trkpt lat="49.0298" lon="1.13531">
        <ele>126.2</ele>
        <time>2019-12-22T10:32:35Z</time>
      </trkpt>
      <trkpt lat="49.02927" lon="1.13551">
        <ele>125</ele>
        <time>2019-12-22T10:32:46Z</time>
      </trkpt>
      <trkpt lat="49.02918" lon="1.1356">
        <ele>124.8</ele>
        <time>2019-12-22T10:32:48Z</time>
      </trkpt>
      <trkpt lat="49.02876" lon="1.13624">
        <ele>123.4</ele>
        <time>2019-12-22T10:32:56Z</time>
      </trkpt>
      <trkpt lat="49.0284" lon="1.13689">
        <ele>117.6</ele>
        <time>2019-12-22T10:33:02Z</time>
      </trkpt>
      <trkpt lat="49.0282" lon="1.1373">
        <ele>111.8</ele>
        <time>2019-12-22T10:33:06Z</time>
      </trkpt>
      <trkpt lat="49.02816" lon="1.13756">
        <ele>108.2</ele>
        <time>2019-12-22T10:33:08Z</time>
      </trkpt>
      <trkpt lat="49.02819" lon="1.13789">
        <ele>103.8</ele>
        <time>2019-12-22T10:33:10Z</time>
      </trkpt>
      <trkpt lat="49.02837" lon="1.13888">
        <ele>95.4</ele>
        <time>2019-12-22T10:33:15Z</time>
      </trkpt>
      <trkpt lat="49.02856" lon="1.13974">
        <ele>85.8</ele>
        <time>2019-12-22T10:33:19Z</time>
      </trkpt>
      <trkpt lat="49.02882" lon="1.1406">
        <ele>78.8</ele>
        <time>2019-12-22T10:33:23Z</time>
      </trkpt>
      <trkpt lat="49.02888" lon="1.14081">
        <ele>77.4</ele>
        <time>2019-12-22T10:33:24Z</time>
      </trkpt>
      <trkpt lat="49.02894" lon="1.14102">
        <ele>76.6</ele>
        <time>2019-12-22T10:33:25Z</time>
      </trkpt>
      <trkpt lat="49.02899" lon="1.14122">
        <ele>76.6</ele>
        <time>2019-12-22T10:33:26Z</time>
      </trkpt>
      <trkpt lat="49.02904" lon="1.14142">
        <ele>76.4</ele>
        <time>2019-12-22T10:33:27Z</time>
      </trkpt>
      <trkpt lat="49.02909" lon="1.1416">
        <ele>75.6</ele>
        <time>2019-12-22T10:33:28Z</time>
      </trkpt>
      <trkpt lat="49.02913" lon="1.14179">
        <ele>74.8</ele>
        <time>2019-12-22T10:33:29Z</time>
      </trkpt>
      <trkpt lat="49.02917" lon="1.14196">
        <ele>73.8</ele>
        <time>2019-12-22T10:33:30Z</time>
      </trkpt>
      <trkpt lat="49.0293" lon="1.14265">
        <ele>71.2</ele>
        <time>2019-12-22T10:33:35Z</time>
      </trkpt>
      <trkpt lat="49.0293" lon="1.14274">
        <ele>70.6</ele>
        <time>2019-12-22T10:33:36Z</time>
      </trkpt>
      <trkpt lat="49.02925" lon="1.14289">
        <ele>68.6</ele>
        <time>2019-12-22T10:33:38Z</time>
      </trkpt>
      <trkpt lat="49.02912" lon="1.14297">
        <ele>67.4</ele>
        <time>2019-12-22T10:33:40Z</time>
      </trkpt>
      <trkpt lat="49.02877" lon="1.14305">
        <ele>65.2</ele>
        <time>2019-12-22T10:33:44Z</time>
      </trkpt>
      <trkpt lat="49.02846" lon="1.14322">
        <ele>63.8</ele>
        <time>2019-12-22T10:33:48Z</time>
      </trkpt>
      <trkpt lat="49.02826" lon="1.14339">
        <ele>63.4</ele>
        <time>2019-12-22T10:33:51Z</time>
      </trkpt>
      <trkpt lat="49.02804" lon="1.14362">
        <ele>63.4</ele>
        <time>2019-12-22T10:33:55Z</time>
      </trkpt>
      <trkpt lat="49.02794" lon="1.14378">
        <ele>63.6</ele>
        <time>2019-12-22T10:33:58Z</time>
      </trkpt>
      <trkpt lat="49.02783" lon="1.14419">
        <ele>63.6</ele>
        <time>2019-12-22T10:34:06Z</time>
      </trkpt>
      <trkpt lat="49.02785" lon="1.14442">
        <ele>63.2</ele>
        <time>2019-12-22T10:34:10Z</time>
      </trkpt>
      <trkpt lat="49.02792" lon="1.14468">
        <ele>62.8</ele>
        <time>2019-12-22T10:34:14Z</time>
      </trkpt>
      <trkpt lat="49.02798" lon="1.14496">
        <ele>62.6</ele>
        <time>2019-12-22T10:34:18Z</time>
      </trkpt>
      <trkpt lat="49.02809" lon="1.14546">
        <ele>62.6</ele>
        <time>2019-12-22T10:34:24Z</time>
      </trkpt>
      <trkpt lat="49.02811" lon="1.14555">
        <ele>62.6</ele>
        <time>2019-12-22T10:34:25Z</time>
      </trkpt>
      <trkpt lat="49.02812" lon="1.14564">
        <ele>62.6</ele>
        <time>2019-12-22T10:34:26Z</time>
      </trkpt>
      <trkpt lat="49.02813" lon="1.14572">
        <ele>62.6</ele>
        <time>2019-12-22T10:34:27Z</time>
      </trkpt>
      <trkpt lat="49.02818" lon="1.14598">
        <ele>63</ele>
        <time>2019-12-22T10:34:30Z</time>
      </trkpt>
      <trkpt lat="49.0282" lon="1.14605">
        <ele>63</ele>
        <time>2019-12-22T10:34:31Z</time>
      </trkpt>
      <trkpt lat="49.02826" lon="1.14633">
        <ele>63.6</ele>
        <time>2019-12-22T10:34:36Z</time>
      </trkpt>
      <trkpt lat="49.02815" lon="1.14639">
        <ele>64</ele>
        <time>2019-12-22T10:34:40Z</time>
      </trkpt>
      <trkpt lat="49.02813" lon="1.14645">
        <ele>64.2</ele>
        <time>2019-12-22T10:34:41Z</time>
      </trkpt>
      <trkpt lat="49.02811" lon="1.14652">
        <ele>64.2</ele>
        <time>2019-12-22T10:34:42Z</time>
      </trkpt>
      <trkpt lat="49.02809" lon="1.1466">
        <ele>64.4</ele>
        <time>2019-12-22T10:34:43Z</time>
      </trkpt>
      <trkpt lat="49.02806" lon="1.14667">
        <ele>64.6</ele>
        <time>2019-12-22T10:34:44Z</time>
      </trkpt>
      <trkpt lat="49.02802" lon="1.14673">
        <ele>64.8</ele>
        <time>2019-12-22T10:34:45Z</time>
      </trkpt>
      <trkpt lat="49.02799" lon="1.14678">
        <ele>64.8</ele>
        <time>2019-12-22T10:34:46Z</time>
      </trkpt>
      <trkpt lat="49.02784" lon="1.14692">
        <ele>65.4</ele>
        <time>2019-12-22T10:34:50Z</time>
      </trkpt>
      <trkpt lat="49.02777" lon="1.14698">
        <ele>65.6</ele>
        <time>2019-12-22T10:34:52Z</time>
      </trkpt>
      <trkpt lat="49.02773" lon="1.147">
        <ele>65.8</ele>
        <time>2019-12-22T10:34:53Z</time>
      </trkpt>
      <trkpt lat="49.02765" lon="1.14707">
        <ele>66</ele>
        <time>2019-12-22T10:34:55Z</time>
      </trkpt>
      <trkpt lat="49.02732" lon="1.14725">
        <ele>67</ele>
        <time>2019-12-22T10:35:03Z</time>
      </trkpt>
      <trkpt lat="49.02704" lon="1.14762">
        <ele>67.8</ele>
        <time>2019-12-22T10:35:14Z</time>
      </trkpt>
      <trkpt lat="49.02675" lon="1.14778">
        <ele>68.6</ele>
        <time>2019-12-22T10:35:22Z</time>
      </trkpt>
      <trkpt lat="49.02624" lon="1.14795">
        <ele>68</ele>
        <time>2019-12-22T10:35:40Z</time>
      </trkpt>
      <trkpt lat="49.02594" lon="1.14799">
        <ele>67.4</ele>
        <time>2019-12-22T10:35:49Z</time>
      </trkpt>
      <trkpt lat="49.02577" lon="1.14812">
        <ele>67.8</ele>
        <time>2019-12-22T10:35:57Z</time>
      </trkpt>
      <trkpt lat="49.02567" lon="1.14817">
        <ele>68</ele>
        <time>2019-12-22T10:36:00Z</time>
      </trkpt>
      <trkpt lat="49.02547" lon="1.14829">
        <ele>68.4</ele>
        <time>2019-12-22T10:36:05Z</time>
      </trkpt>
      <trkpt lat="49.02529" lon="1.14837">
        <ele>68.6</ele>
        <time>2019-12-22T10:36:09Z</time>
      </trkpt>
      <trkpt lat="49.02524" lon="1.1484">
        <ele>68.6</ele>
        <time>2019-12-22T10:36:10Z</time>
      </trkpt>
      <trkpt lat="49.02502" lon="1.14852">
        <ele>68</ele>
        <time>2019-12-22T10:36:15Z</time>
      </trkpt>
      <trkpt lat="49.0248" lon="1.14864">
        <ele>67.2</ele>
        <time>2019-12-22T10:36:20Z</time>
      </trkpt>
      <trkpt lat="49.02453" lon="1.14877">
        <ele>66.4</ele>
        <time>2019-12-22T10:36:28Z</time>
      </trkpt>
      <trkpt lat="49.02397" lon="1.14895">
        <ele>67.2</ele>
        <time>2019-12-22T10:36:42Z</time>
      </trkpt>
      <trkpt lat="49.02385" lon="1.14899">
        <ele>67.4</ele>
        <time>2019-12-22T10:36:45Z</time>
      </trkpt>
      <trkpt lat="49.02381" lon="1.14901">
        <ele>67.6</ele>
        <time>2019-12-22T10:36:46Z</time>
      </trkpt>
      <trkpt lat="49.02354" lon="1.14925">
        <ele>68.4</ele>
        <time>2019-12-22T10:36:54Z</time>
      </trkpt>
      <trkpt lat="49.02349" lon="1.14933">
        <ele>68.8</ele>
        <time>2019-12-22T10:36:56Z</time>
      </trkpt>
      <trkpt lat="49.02333" lon="1.14961">
        <ele>69.4</ele>
        <time>2019-12-22T10:37:02Z</time>
      </trkpt>
      <trkpt lat="49.02311" lon="1.14982">
        <ele>69.6</ele>
        <time>2019-12-22T11:17:18Z</time>
      </trkpt>
      <trkpt lat="49.02285" lon="1.14953">
        <ele>69.8</ele>
        <time>2019-12-22T11:17:32Z</time>
      </trkpt>
      <trkpt lat="49.02247" lon="1.14895">
        <ele>70.6</ele>
        <time>2019-12-22T11:17:49Z</time>
      </trkpt>
      <trkpt lat="49.02239" lon="1.14874">
        <ele>70.2</ele>
        <time>2019-12-22T11:17:53Z</time>
      </trkpt>
      <trkpt lat="49.02237" lon="1.14859">
        <ele>69.6</ele>
        <time>2019-12-22T11:17:55Z</time>
      </trkpt>
      <trkpt lat="49.02236" lon="1.14821">
        <ele>68.4</ele>
        <time>2019-12-22T11:18:00Z</time>
      </trkpt>
      <trkpt lat="49.02236" lon="1.14807">
        <ele>68.2</ele>
        <time>2019-12-22T11:18:02Z</time>
      </trkpt>
      <trkpt lat="49.02235" lon="1.14792">
        <ele>68.6</ele>
        <time>2019-12-22T11:18:04Z</time>
      </trkpt>
      <trkpt lat="49.02234" lon="1.1477">
        <ele>69.4</ele>
        <time>2019-12-22T11:18:07Z</time>
      </trkpt>
      <trkpt lat="49.02234" lon="1.14763">
        <ele>69.6</ele>
        <time>2019-12-22T11:18:08Z</time>
      </trkpt>
      <trkpt lat="49.02233" lon="1.14747">
        <ele>69.8</ele>
        <time>2019-12-22T11:18:10Z</time>
      </trkpt>
      <trkpt lat="49.02232" lon="1.14711">
        <ele>69.4</ele>
        <time>2019-12-22T11:18:15Z</time>
      </trkpt>
      <trkpt lat="49.02231" lon="1.14703">
        <ele>69</ele>
        <time>2019-12-22T11:18:16Z</time>
      </trkpt>
      <trkpt lat="49.0223" lon="1.14688">
        <ele>68.4</ele>
        <time>2019-12-22T11:18:18Z</time>
      </trkpt>
      <trkpt lat="49.02227" lon="1.14659">
        <ele>68</ele>
        <time>2019-12-22T11:18:22Z</time>
      </trkpt>
      <trkpt lat="49.02226" lon="1.14651">
        <ele>68</ele>
        <time>2019-12-22T11:18:23Z</time>
      </trkpt>
      <trkpt lat="49.02226" lon="1.14644">
        <ele>68</ele>
        <time>2019-12-22T11:18:24Z</time>
      </trkpt>
      <trkpt lat="49.02225" lon="1.14636">
        <ele>67.8</ele>
        <time>2019-12-22T11:18:25Z</time>
      </trkpt>
      <trkpt lat="49.02225" lon="1.1462">
        <ele>67.4</ele>
        <time>2019-12-22T11:18:27Z</time>
      </trkpt>
      <trkpt lat="49.02225" lon="1.14612">
        <ele>67.2</ele>
        <time>2019-12-22T11:18:28Z</time>
      </trkpt>
      <trkpt lat="49.02225" lon="1.14604">
        <ele>67</ele>
        <time>2019-12-22T11:18:29Z</time>
      </trkpt>
      <trkpt lat="49.02224" lon="1.14573">
        <ele>66.8</ele>
        <time>2019-12-22T11:18:33Z</time>
      </trkpt>
      <trkpt lat="49.02224" lon="1.14565">
        <ele>66.8</ele>
        <time>2019-12-22T11:18:34Z</time>
      </trkpt>
      <trkpt lat="49.02223" lon="1.14557">
        <ele>66.8</ele>
        <time>2019-12-22T11:18:35Z</time>
      </trkpt>
      <trkpt lat="49.02222" lon="1.14542">
        <ele>67.2</ele>
        <time>2019-12-22T11:18:37Z</time>
      </trkpt>
      <trkpt lat="49.02222" lon="1.14534">
        <ele>67.4</ele>
        <time>2019-12-22T11:18:38Z</time>
      </trkpt>
      <trkpt lat="49.02221" lon="1.14519">
        <ele>67.8</ele>
        <time>2019-12-22T11:18:40Z</time>
      </trkpt>
      <trkpt lat="49.02218" lon="1.14465">
        <ele>67.6</ele>
        <time>2019-12-22T11:18:47Z</time>
      </trkpt>
      <trkpt lat="49.02218" lon="1.14435">
        <ele>67.6</ele>
        <time>2019-12-22T11:18:51Z</time>
      </trkpt>
      <trkpt lat="49.02218" lon="1.14421">
        <ele>67.6</ele>
        <time>2019-12-22T11:18:53Z</time>
      </trkpt>
      <trkpt lat="49.02217" lon="1.14413">
        <ele>67.8</ele>
        <time>2019-12-22T11:18:54Z</time>
      </trkpt>
      <trkpt lat="49.02216" lon="1.14398">
        <ele>67.8</ele>
        <time>2019-12-22T11:18:56Z</time>
      </trkpt>
      <trkpt lat="49.02215" lon="1.14383">
        <ele>67.6</ele>
        <time>2019-12-22T11:18:58Z</time>
      </trkpt>
      <trkpt lat="49.02213" lon="1.1436">
        <ele>67.4</ele>
        <time>2019-12-22T11:19:01Z</time>
      </trkpt>
      <trkpt lat="49.02209" lon="1.14307">
        <ele>67.2</ele>
        <time>2019-12-22T11:19:08Z</time>
      </trkpt>
      <trkpt lat="49.02206" lon="1.14236">
        <ele>68</ele>
        <time>2019-12-22T11:19:18Z</time>
      </trkpt>
      <trkpt lat="49.02205" lon="1.14195">
        <ele>69</ele>
        <time>2019-12-22T11:19:24Z</time>
      </trkpt>
      <trkpt lat="49.02204" lon="1.14175">
        <ele>69.4</ele>
        <time>2019-12-22T11:19:27Z</time>
      </trkpt>
      <trkpt lat="49.02203" lon="1.14162">
        <ele>69.6</ele>
        <time>2019-12-22T11:19:29Z</time>
      </trkpt>
      <trkpt lat="49.02203" lon="1.14103">
        <ele>68.2</ele>
        <time>2019-12-22T11:19:41Z</time>
      </trkpt>
      <trkpt lat="49.02207" lon="1.14099">
        <ele>67.8</ele>
        <time>2019-12-22T11:19:44Z</time>
      </trkpt>
      <trkpt lat="49.02208" lon="1.14095">
        <ele>67.6</ele>
        <time>2019-12-22T11:19:46Z</time>
      </trkpt>
      <trkpt lat="49.02208" lon="1.14092">
        <ele>67.6</ele>
        <time>2019-12-22T11:19:47Z</time>
      </trkpt>
      <trkpt lat="49.02209" lon="1.14089">
        <ele>67.4</ele>
        <time>2019-12-22T11:19:48Z</time>
      </trkpt>
      <trkpt lat="49.02231" lon="1.14077">
        <ele>66.8</ele>
        <time>2019-12-22T11:20:00Z</time>
      </trkpt>
      <trkpt lat="49.02244" lon="1.14072">
        <ele>66.6</ele>
        <time>2019-12-22T11:20:04Z</time>
      </trkpt>
      <trkpt lat="49.02247" lon="1.14071">
        <ele>66.4</ele>
        <time>2019-12-22T11:20:05Z</time>
      </trkpt>
      <trkpt lat="49.02255" lon="1.14067">
        <ele>66.4</ele>
        <time>2019-12-22T11:20:07Z</time>
      </trkpt>
    </trkseg>
  </trk>
</gpx>